ECMWFNIL_250_spd_000.txt.gz
Wind_Speed
52 53 53 54 54 54 55 55 54 54 53 52 52 52 53 53 53 53 55 56 57 58 60 61 64 67 70 73 74 74 75 75 75 76 75 74 72 70 66 61 57 54
55 56 56 57 58 58 57 57 57 56 55 53 52 52 53 54 54 54 54 56 57 59 60 61 63 65 68 71 73 75 75 76 77 78 78 77 76 73 70 66 62 59
56 57 59 59 60 60 60 60 59 58 57 56 54 53 52 52 54 55 56 56 57 59 61 62 63 64 66 69 72 74 76 77 78 79 79 80 80 77 75 72 67 64
58 59 60 61 61 62 63 63 62 61 60 58 56 54 52 51 51 53 55 57 58 59 60 62 63 63 64 66 69 73 76 79 80 81 80 79 81 81 79 76 72 68
60 61 61 62 63 64 65 65 65 64 63 61 58 56 53 51 50 50 52 55 58 60 61 61 62 63 63 64 67 70 75 79 81 83 82 80 80 81 81 80 76 73
60 61 62 63 64 66 66 66 66 66 64 63 60 57 54 51 49 48 49 51 54 58 61 61 62 63 63 63 65 69 73 78 81 82 82 82 81 81 81 81 80 78
61 61 62 64 65 67 68 67 67 66 65 63 61 58 55 51 48 46 46 48 50 55 59 61 61 62 62 62 64 68 71 75 79 80 81 82 82 81 82 82 81 80
62 62 63 65 66 67 68 68 68 67 65 63 61 59 56 52 49 45 44 45 48 52 56 60 61 61 62 62 63 67 70 72 75 77 78 80 81 80 80 80 81 80
63 64 64 65 67 68 68 69 69 68 66 65 62 60 56 52 49 45 42 43 46 50 54 57 59 60 62 62 63 66 69 70 71 73 74 76 79 79 78 78 78 78
65 65 66 66 67 68 69 69 69 69 68 66 64 61 57 52 48 45 41 41 44 48 51 54 57 59 61 62 62 64 67 68 69 70 71 72 76 78 77 76 75 75
67 67 67 68 69 69 70 70 70 70 70 68 65 61 57 52 47 43 40 38 41 45 47 50 54 57 59 61 62 64 66 67 68 68 68 69 71 74 75 75 74 73
68 69 69 70 70 70 71 72 72 72 71 69 65 61 57 52 46 42 38 36 38 41 43 47 51 55 58 61 62 64 66 67 67 66 66 67 68 70 71 72 73 73
70 70 71 71 72 72 72 73 73 73 71 69 65 61 56 52 47 42 37 34 35 38 39 43 48 53 57 61 63 64 66 67 67 67 66 67 67 68 69 70 71 72
72 72 72 73 74 74 74 74 74 74 71 68 65 60 55 51 46 42 37 32 33 34 35 39 45 51 56 61 64 65 66 67 68 68 67 67 66 66 68 69 70 70
74 74 74 74 75 75 75 75 74 73 71 67 63 59 55 51 46 42 38 32 30 30 31 35 41 47 52 58 62 65 67 68 69 69 68 67 66 66 67 68 69 70
76 75 75 75 76 76 76 75 75 73 70 66 61 57 53 50 46 42 39 33 28 27 28 32 37 42 46 51 58 63 67 69 69 69 69 68 67 67 67 67 68 70
78 77 77 77 77 77 76 76 75 73 69 64 59 55 52 49 45 43 39 33 27 25 28 32 36 40 43 47 53 59 64 68 69 69 69 68 67 68 67 66 67 68
79 79 79 79 78 78 78 77 75 73 69 63 57 53 50 47 44 42 40 34 27 25 28 32 34 38 41 44 49 54 59 64 67 68 68 68 68 69 69 67 65 64
80 80 80 80 79 80 79 78 76 73 68 63 57 51 48 46 42 40 39 35 28 25 28 31 32 35 39 42 45 49 53 58 62 64 66 67 68 69 70 69 66 63
80 80 81 80 80 81 81 79 77 73 67 62 57 51 47 44 40 38 38 35 29 24 26 28 30 31 34 38 41 44 47 51 55 58 61 63 65 67 70 70 67 64
81 81 81 81 81 81 81 80 77 73 67 62 56 50 46 42 38 36 36 35 30 24 23 26 28 29 31 34 37 40 42 45 48 51 54 58 61 65 69 70 67 65
82 82 82 82 81 82 81 80 77 73 66 61 55 49 45 40 36 35 34 33 31 25 22 24 27 28 30 32 34 36 37 40 43 45 48 53 58 62 67 69 67 65
84 84 84 83 82 82 80 78 76 71 65 60 55 49 43 38 35 34 33 32 30 26 22 24 26 27 28 30 32 33 34 36 39 41 43 48 54 59 63 65 65 63
85 85 85 85 84 82 79 76 73 69 64 58 53 47 42 37 33 32 32 31 30 28 23 23 26 27 27 29 31 32 33 34 36 40 43 46 50 54 58 61 60 59
86 86 87 86 85 82 78 74 70 66 61 56 51 46 41 36 31 30 31 30 30 29 25 24 26 28 28 30 31 31 33 34 34 37 41 44 45 48 52 55 55 55
86 87 87 87 84 81 77 72 67 63 59 54 49 43 39 35 30 29 30 29 30 31 28 25 27 29 30 31 31 31 32 33 34 35 37 39 42 44 46 49 51 53

ECMWFNIL_250_spd_003.txt.gz
Wind_Speed
50 50 51 51 52 52 53 54 55 56 56 56 56 55 54 53 53 52 53 53 53 54 56 58 60 59 57 56 58 62 67 69 68 69 70 72 74 74 71 70 70 70
51 52 52 53 54 55 56 57 58 58 59 59 58 57 57 56 55 55 54 54 54 53 54 55 58 59 59 57 57 59 65 69 70 70 71 72 75 76 75 74 74 74
52 52 53 54 55 57 58 59 60 61 61 61 61 60 60 59 59 58 57 56 55 55 54 54 55 57 59 59 57 58 62 68 72 73 73 74 76 77 78 78 77 77
52 53 54 55 57 58 60 61 61 62 63 63 63 63 63 62 61 61 59 58 56 55 54 53 53 54 57 59 58 59 61 66 72 74 74 75 78 80 80 80 78 78
53 53 54 56 58 60 61 62 62 63 64 64 65 65 65 64 64 63 61 58 56 55 54 52 52 52 54 57 59 60 61 65 69 74 76 78 81 83 83 81 80 78
54 54 55 57 59 61 62 62 63 64 65 65 66 66 66 65 65 64 62 60 57 55 53 51 50 50 52 56 58 60 62 65 68 72 77 81 83 84 84 83 82 80
55 55 56 58 60 62 63 63 64 64 65 65 66 66 66 66 65 64 63 62 59 57 54 51 49 49 51 54 57 60 62 65 67 70 76 81 84 84 85 84 84 83
57 56 57 59 61 63 64 64 64 65 65 66 66 67 67 66 65 64 64 63 62 60 56 52 49 49 50 53 56 59 62 65 68 70 73 78 82 84 85 85 84 85
58 58 59 60 62 64 65 65 65 66 66 66 66 67 67 66 65 64 64 64 64 62 58 54 50 48 49 51 54 57 60 64 67 70 72 75 79 81 83 83 83 83
59 59 60 62 63 64 65 66 66 67 67 67 67 67 67 67 66 66 65 65 65 64 60 55 51 48 47 49 52 55 58 62 66 70 72 73 75 78 80 81 80 80
59 60 62 63 64 65 66 67 67 68 69 68 68 68 69 68 68 68 67 67 67 65 60 54 50 48 46 47 50 52 55 60 65 68 70 72 74 75 77 77 77 77
60 61 63 64 65 66 67 68 69 70 70 70 70 70 70 70 70 69 69 69 68 66 61 54 49 47 46 46 48 50 53 57 62 66 69 71 73 74 75 75 75 75
61 62 64 66 66 67 69 70 71 71 72 71 71 72 72 72 71 71 71 70 69 67 61 54 48 45 45 45 46 48 51 55 59 63 67 69 72 73 73 74 74 73
62 64 66 67 68 70 71 72 73 73 74 74 73 73 74 74 73 72 72 71 70 67 61 54 48 44 43 44 45 46 49 51 55 60 64 67 70 71 72 73 73 72
64 65 67 69 71 72 73 74 75 75 76 76 76 75 75 75 75 74 73 72 70 66 59 53 48 43 41 41 42 43 46 49 53 56 61 65 68 69 70 72 72 72
65 67 69 72 73 74 75 76 77 78 78 79 78 77 76 76 76 75 74 72 69 66 58 51 47 42 39 39 40 42 45 48 51 53 58 62 65 67 68 70 72 72
67 69 72 74 75 76 77 78 79 80 81 81 80 79 77 77 77 76 75 71 68 64 57 49 45 41 37 36 37 40 43 46 49 51 54 59 62 65 67 69 70 72
68 71 73 75 76 78 79 81 82 83 83 83 83 81 79 78 77 76 74 70 66 62 55 47 42 39 35 33 35 39 41 43 47 49 51 55 60 63 65 68 70 71
69 72 74 76 78 79 81 83 84 84 85 85 84 83 81 79 78 76 73 68 63 59 53 46 40 37 33 31 33 37 38 41 44 47 49 53 57 60 64 67 69 71
72 74 76 78 79 81 82 84 85 86 86 86 85 84 81 80 78 75 71 65 60 55 51 44 38 34 31 30 32 35 36 38 41 44 47 51 55 58 62 66 68 70
74 77 79 80 81 82 83 85 86 86 87 87 86 84 82 80 78 73 68 62 57 52 47 42 37 31 29 30 32 33 34 36 39 41 44 48 52 56 60 64 67 69
77 79 81 81 82 83 84 85 86 87 88 88 87 85 82 80 76 71 65 59 54 49 44 39 35 30 27 29 31 32 33 34 36 38 41 44 48 52 57 62 66 68
80 81 83 83 84 84 85 86 87 88 89 89 87 85 82 79 74 68 61 55 50 47 42 37 33 29 26 28 31 32 32 31 32 35 38 40 43 46 52 58 62 65
81 83 84 85 85 86 87 88 88 88 89 89 87 84 80 76 71 64 57 51 47 44 39 34 31 27 25 27 30 31 31 29 29 32 34 35 37 40 44 50 56 61
83 84 85 86 87 88 88 89 89 89 88 87 85 83 78 73 67 60 52 46 43 40 35 32 30 26 24 26 28 28 28 28 28 30 30 30 31 33 37 43 49 55
84 85 86 87 89 90 90 90 89 88 87 85 82 80 75 70 64 57 49 43 40 36 32 29 28 25 23 25 26 25 26 27 28 28 28 28 27 28 31 36 42 49

ECMWFNIL_250_spd_006.txt.gz
Wind_Speed
47 47 48 48 48 49 49 49 50 50 50 50 51 51 52 54 55 56 57 57 56 55 53 52 51 50 50 50 50 50 51 53 54 55 55 53 56 63 69 73 75 74
49 49 49 49 49 49 49 50 50 50 50 51 51 52 54 55 57 58 59 60 59 58 56 55 53 51 51 51 50 51 52 53 54 54 56 56 57 60 65 69 72 76
51 50 50 50 50 50 50 50 50 50 51 51 52 53 55 57 59 60 61 62 62 61 59 57 55 53 52 51 51 50 51 53 54 54 56 58 59 60 63 66 70 74
52 52 52 52 52 51 51 51 51 51 51 52 53 54 56 59 60 62 63 64 64 63 62 60 58 55 54 52 51 50 50 52 53 55 56 58 59 61 63 66 69 73
53 53 53 52 53 52 52 52 52 52 52 52 53 54 57 60 62 64 64 65 65 65 64 62 60 58 56 54 51 50 50 51 52 53 55 58 60 61 63 66 70 74
54 54 53 53 53 53 53 53 53 53 52 53 54 55 58 61 63 65 66 66 66 66 65 64 63 61 58 56 53 51 50 50 51 52 54 58 61 62 64 66 70 73
55 54 54 53 54 54 54 54 54 53 53 54 55 57 59 62 64 66 67 67 67 67 66 66 65 63 61 58 56 53 51 50 49 50 52 56 60 63 64 66 69 73
56 55 55 54 54 54 55 54 54 53 54 55 57 59 61 63 65 67 67 67 67 67 67 66 66 65 63 61 59 56 53 51 49 48 50 53 58 62 65 66 69 72
56 56 56 55 55 55 55 55 54 54 55 57 59 61 63 65 66 67 67 67 67 67 67 66 66 65 64 63 61 58 55 52 50 48 48 51 55 60 64 66 68 72
57 57 57 56 56 56 56 55 55 55 57 59 62 64 65 66 67 67 67 67 68 67 67 67 66 65 64 63 62 60 57 54 52 48 46 48 52 57 62 66 68 70
57 57 57 57 57 57 57 56 56 57 59 61 64 66 66 67 67 67 68 68 68 68 68 67 66 65 65 64 62 60 58 56 53 48 45 45 48 53 59 64 67 70
58 58 57 57 57 57 57 57 58 59 61 63 65 67 68 68 68 68 68 69 69 69 69 69 67 66 66 66 64 61 59 56 53 49 45 43 45 49 55 61 65 69
59 58 57 57 57 58 58 58 59 61 63 65 67 68 69 70 70 70 70 71 71 70 70 70 69 67 67 67 65 62 58 55 53 50 45 42 41 44 50 57 62 68
59 58 58 57 58 58 59 59 61 63 65 67 69 70 71 72 72 73 73 74 74 73 72 71 70 69 69 68 66 62 58 54 51 49 45 41 40 42 47 53 60 65
60 59 58 58 58 59 59 61 62 64 67 69 71 72 73 74 75 76 77 77 76 75 73 72 71 71 70 70 67 63 58 53 48 46 44 41 40 41 44 50 56 62
60 60 59 59 59 60 61 62 64 66 69 71 72 74 76 77 79 79 80 80 79 77 75 73 72 72 71 70 66 61 57 52 46 43 42 41 40 40 42 46 52 58
61 61 60 60 60 61 63 64 66 68 70 72 74 76 79 80 81 82 82 82 82 80 77 74 73 72 72 69 64 59 54 49 44 41 40 40 40 39 39 43 47 53
62 62 61 61 61 63 64 67 68 70 71 74 76 79 81 82 83 83 84 84 83 81 78 75 73 72 71 67 60 55 51 46 41 38 38 39 39 37 38 40 43 48
62 62 62 62 63 64 66 68 69 71 73 76 78 81 83 84 84 84 85 86 85 82 80 77 74 72 69 63 57 52 47 42 38 36 36 38 38 37 36 37 40 44
63 62 62 63 64 65 67 68 70 72 74 77 80 82 84 85 86 86 87 87 86 83 80 77 74 71 66 59 53 49 44 38 34 34 35 36 37 35 33 34 37 40
63 63 63 64 65 66 67 69 71 73 75 79 82 84 85 87 88 88 88 88 87 84 80 76 73 69 62 55 50 46 40 35 32 33 34 35 34 32 30 32 35 37
64 64 64 65 66 67 68 70 72 74 77 80 83 85 86 88 89 89 89 89 88 84 79 74 70 65 58 51 47 43 37 32 31 32 32 32 30 28 28 30 32 35
65 64 64 65 66 68 69 71 74 76 79 82 85 86 87 88 89 89 89 89 88 84 79 73 68 61 54 48 44 40 34 30 30 31 31 30 28 26 25 26 29 32
65 65 65 66 68 70 71 73 76 79 81 84 87 89 89 90 89 89 89 89 88 85 80 72 65 58 51 45 42 37 31 29 29 31 31 29 27 25 23 23 25 29
65 65 66 68 70 72 73 76 79 81 83 86 89 90 91 91 90 89 87 86 84 82 78 70 61 54 47 42 38 34 30 28 29 30 30 28 27 25 23 22 22 24
66 67 68 70 72 74 76 78 81 83 85 87 90 91 91 91 90 88 85 82 78 75 71 65 57 50 44 39 35 32 30 28 29 30 30 28 27 27 25 23 21 21

ECMWFNIL_250_spd_009.txt.gz
Wind_Speed
50 50 50 50 50 50 50 50 50 50 50 49 48 48 48 47 46 45 45 44 43 43 43 44 45 46 47 48 49 49 49 48 47 46 44 44 45 47 48 49 50 53
51 51 51 51 51 51 50 50 50 50 50 49 48 48 48 47 46 46 46 45 44 44 44 45 46 48 49 51 52 52 51 50 49 48 47 46 45 46 48 50 51 53
53 53 52 52 51 51 51 51 51 50 50 50 49 48 47 47 46 46 46 45 44 44 45 46 48 50 52 52 53 53 53 52 51 50 49 47 46 46 47 50 52 53
56 56 55 53 53 52 52 52 52 51 50 49 49 48 48 47 46 46 46 45 45 44 46 47 50 51 53 55 55 55 54 54 53 52 50 49 47 48 48 49 51 54
59 58 57 56 54 54 53 53 53 51 51 50 49 48 48 47 47 47 46 46 46 46 47 49 51 53 55 56 57 57 57 56 55 53 52 50 48 48 49 49 50 53
60 60 59 58 56 55 55 54 54 53 52 51 51 50 49 48 48 48 47 48 48 49 50 51 53 55 56 58 60 60 59 58 57 55 53 50 49 48 48 49 50 52
62 61 61 60 58 57 56 55 55 54 54 53 52 51 51 50 49 49 49 50 50 52 53 55 56 58 59 61 62 62 61 60 59 57 54 51 49 48 48 48 49 52
64 63 62 61 60 59 57 56 56 56 56 55 54 53 52 52 51 51 52 52 53 55 57 59 60 61 63 64 64 63 62 62 61 60 57 53 51 49 48 48 48 50
66 65 64 63 62 60 59 57 56 56 56 56 55 54 54 53 53 53 54 55 56 58 60 62 64 65 65 66 65 64 63 62 62 62 60 57 54 50 48 48 48 49
68 67 66 64 63 62 61 59 58 57 56 56 57 56 56 56 56 56 56 57 59 61 62 64 67 68 69 68 67 66 65 63 62 62 62 60 57 52 49 49 48 48
70 69 68 66 65 64 63 61 60 58 57 57 57 57 57 58 58 58 58 59 60 62 65 66 68 70 71 70 69 68 68 67 64 63 63 61 58 54 51 50 49 48
72 71 69 68 66 66 65 63 61 59 58 58 58 59 59 59 60 60 61 61 62 63 66 68 70 73 73 72 71 71 71 68 66 64 64 62 58 55 53 51 48 47
73 72 71 69 67 66 66 64 62 60 60 60 60 60 60 60 61 62 63 63 63 64 66 69 71 73 73 73 74 74 72 70 68 66 64 61 57 54 53 51 48 46
75 73 72 70 69 68 66 65 63 61 61 61 61 62 61 61 62 63 64 64 65 65 66 68 70 72 74 76 76 76 74 71 68 66 63 60 56 53 52 50 47 45
76 75 73 71 70 69 68 66 64 62 62 61 62 62 62 62 62 63 64 65 66 66 67 68 70 73 77 77 76 75 74 71 67 64 61 58 55 52 49 47 45 44
78 77 75 73 72 70 69 68 65 64 63 62 62 61 62 62 63 64 65 66 67 68 69 70 73 76 78 78 77 75 72 69 64 60 58 56 53 49 46 44 43 42
79 78 76 75 73 72 71 69 67 65 63 62 62 62 62 62 63 64 65 66 68 69 70 73 76 79 80 79 78 75 72 67 61 56 55 53 50 46 44 42 40 40
80 79 77 76 75 74 72 70 68 66 64 63 63 63 63 63 64 64 65 66 68 70 73 75 79 82 83 83 81 78 73 67 60 55 52 49 46 44 42 40 37 37
81 80 78 77 76 75 73 70 68 66 65 64 63 63 63 64 64 64 65 68 69 72 75 78 81 83 84 85 84 80 74 67 60 55 50 45 42 41 39 37 35 35
82 80 79 78 77 75 73 70 67 66 64 63 63 64 64 64 65 66 67 70 72 74 77 79 81 83 84 84 83 78 72 66 59 54 48 42 40 38 36 35 33 32
81 80 80 78 77 75 71 66 65 64 62 63 64 65 66 66 66 67 69 72 75 77 79 80 81 82 82 82 80 75 69 63 57 51 45 39 37 35 33 32 31 30
82 81 80 77 76 73 67 64 64 63 63 65 67 67 67 68 68 70 73 75 77 79 80 82 82 82 81 80 77 72 66 60 55 48 41 37 35 32 31 30 29 27
83 81 79 77 75 71 67 66 67 66 65 67 68 68 69 70 71 73 76 78 80 81 82 83 84 83 81 78 75 70 63 57 51 44 38 35 32 29 28 28 26 25
83 80 79 77 73 69 67 68 68 68 68 68 69 70 71 72 74 77 79 81 82 83 84 84 84 83 79 75 71 66 59 53 47 40 36 33 29 27 26 25 25 24
83 82 79 75 71 67 65 67 69 70 71 71 72 72 73 75 78 80 81 83 84 85 86 85 83 81 76 71 67 62 55 48 43 37 34 32 28 25 24 24 24 23
82 80 76 72 69 66 65 68 72 73 73 73 74 75 76 79 81 82 84 86 86 87 87 84 81 78 73 68 62 56 49 43 36 31 31 30 27 25 24 25 25 23

ECMWFNIL_250_spd_012.txt.gz
Wind_Speed
51 54 57 58 59 60 60 60 60 59 58 57 55 54 52 50 49 47 46 44 43 43 42 42 42 41 41 41 40 39 38 38 39 39 40 40 39 39 41 42 43 44
50 55 58 59 60 62 62 62 62 61 60 58 57 56 55 53 51 49 47 46 45 44 43 42 42 42 42 42 41 41 40 40 40 41 41 40 40 39 40 42 44 45
50 56 59 60 62 63 64 65 65 64 62 61 59 58 57 56 54 52 50 48 47 46 45 43 42 42 42 43 43 43 42 42 43 43 43 42 41 40 41 43 46 47
49 57 60 61 63 65 66 67 67 66 65 63 62 61 59 58 56 54 53 51 50 48 47 46 45 44 44 44 44 45 45 45 45 45 45 44 42 42 44 46 47 48
50 58 62 63 65 67 68 69 68 68 67 65 64 63 61 59 57 56 55 54 52 51 50 48 47 46 46 46 47 47 48 48 48 48 47 46 45 46 48 49 49 48
50 58 64 67 67 69 70 70 70 70 69 68 67 65 63 61 59 57 56 54 53 52 51 49 48 47 47 48 48 49 50 50 50 50 49 49 49 51 52 52 51 50
51 58 67 71 71 71 72 72 72 72 72 72 70 67 65 62 60 58 57 55 54 53 52 50 49 47 47 48 48 50 51 51 52 52 52 52 52 53 53 54 53 52
52 59 69 74 74 74 74 74 74 74 74 74 73 71 68 65 62 60 59 57 55 54 53 52 50 48 48 48 48 50 52 52 53 54 54 54 53 53 55 56 56 55
55 62 70 75 76 75 76 76 76 76 76 75 75 73 71 68 65 63 61 59 57 55 54 54 53 50 50 50 49 51 53 54 55 55 55 54 54 56 58 58 59 58
59 65 72 76 76 76 76 77 78 78 78 77 75 74 72 69 67 65 62 60 59 57 56 55 54 53 52 52 52 52 54 55 57 58 57 57 58 60 60 59 59 60
64 69 75 77 77 77 78 79 79 80 79 79 77 74 72 70 68 66 64 62 60 58 57 55 55 54 54 53 53 54 55 56 58 60 60 60 61 62 62 60 59 59
68 74 77 77 78 79 79 81 81 82 82 81 79 76 73 70 68 67 65 63 60 59 57 55 54 53 55 55 54 55 56 57 59 61 63 63 63 64 63 61 59 58
71 77 78 78 79 79 80 82 83 84 83 82 80 77 72 69 67 66 64 61 58 57 56 53 53 54 55 56 57 58 58 59 61 62 64 66 66 66 64 62 59 58
75 80 81 80 81 81 82 84 84 85 85 84 81 77 73 70 69 67 63 59 56 56 54 53 55 56 55 55 57 59 60 60 62 64 65 68 69 67 65 61 58 56
79 84 83 82 82 83 84 85 86 86 86 84 82 77 74 72 71 68 63 59 57 56 55 56 58 57 54 55 58 61 62 64 65 66 67 69 70 69 65 61 58 55
84 86 85 83 84 85 86 87 87 87 86 84 81 77 74 72 69 66 64 59 58 58 57 58 60 58 56 57 59 62 64 67 68 69 69 71 71 69 66 62 57 53
87 87 85 85 86 86 87 87 88 88 86 84 81 76 73 70 67 66 63 58 56 58 59 58 59 60 59 59 61 63 66 68 70 70 71 71 71 68 65 61 56 51
86 86 85 86 87 88 88 88 89 88 86 84 80 76 73 70 68 66 62 56 56 59 60 59 60 62 62 62 64 65 67 69 71 71 71 71 70 67 63 58 53 49
86 86 86 87 88 89 89 89 89 88 87 84 80 76 73 69 65 64 60 56 58 62 61 61 62 64 65 65 66 68 69 71 72 72 71 70 68 64 59 55 50 45
87 87 87 89 89 89 90 90 90 89 88 85 80 75 71 65 62 63 62 59 61 64 65 65 65 67 67 67 69 71 71 72 73 73 71 69 65 60 56 52 46 42
87 88 89 91 90 90 91 92 91 90 88 84 79 75 70 65 63 64 63 61 62 65 68 69 69 70 70 69 70 72 73 73 73 72 70 65 60 56 53 49 43 39
88 89 91 92 91 91 93 94 93 91 89 86 81 78 74 70 68 66 63 62 64 68 71 72 72 72 72 72 72 73 74 73 72 69 65 60 55 51 49 45 40 36
89 90 92 93 93 93 94 94 93 92 91 87 82 79 76 74 70 65 61 63 67 71 74 74 74 74 73 74 74 74 73 71 67 63 60 56 52 48 45 41 38 34
89 90 93 95 96 96 95 95 94 92 89 83 80 78 76 73 69 63 61 67 73 75 76 78 79 77 76 76 74 73 71 69 66 64 59 54 50 45 41 39 35 31
89 92 95 97 98 98 97 96 94 90 85 79 78 77 75 71 68 65 67 73 77 77 78 81 83 82 80 77 74 73 73 71 68 65 59 53 48 43 39 37 34 29
93 96 97 98 100 100 98 95 91 86 81 76 74 75 74 69 66 68 74 79 80 78 79 82 83 84 82 80 79 79 78 75 71 65 59 53 47 41 38 36 33 29

ECMWFNIL_250_spd_015.txt.gz
Wind_Speed
53 55 56 57 51 43 42 47 53 58 61 64 65 66 66 67 68 68 69 69 68 65 62 59 56 52 49 46 44 42 41 41 41 42 43 44 45 46 46 46 45 44
55 56 57 57 52 46 46 49 52 56 62 65 67 68 67 68 69 70 71 71 70 68 64 61 57 53 50 47 45 44 42 41 41 42 42 43 45 45 46 47 47 46
56 57 58 59 57 52 49 50 53 57 62 66 70 70 69 70 71 72 73 74 73 70 67 63 59 55 51 48 46 44 43 42 41 42 43 43 44 45 46 47 48 48
57 58 60 63 63 55 49 51 56 58 62 67 71 71 71 72 73 73 75 76 75 73 70 66 62 58 54 51 48 45 43 42 41 41 42 43 44 45 46 47 49 50
57 59 62 65 64 54 48 52 57 59 63 68 72 72 72 73 74 75 76 77 76 75 73 70 66 62 58 54 51 46 43 41 40 41 42 43 43 44 46 48 50 51
58 60 63 65 62 51 47 52 56 59 65 71 74 74 72 74 75 76 77 79 78 76 74 71 68 65 60 56 53 47 43 41 40 40 41 41 42 44 46 48 50 52
58 62 63 63 60 52 48 52 55 60 68 73 76 76 75 76 77 77 79 80 79 77 76 73 69 66 61 57 52 47 43 42 41 40 40 41 41 43 45 47 49 51
60 63 63 63 61 54 50 52 56 62 70 75 78 78 77 79 80 80 82 83 82 80 78 75 71 67 62 57 51 46 43 42 40 40 40 41 42 43 44 46 48 50
62 65 66 67 62 53 51 53 57 64 71 77 80 79 79 81 82 83 84 85 84 82 80 76 72 68 64 58 52 46 42 41 40 41 42 42 43 44 44 45 47 49
65 67 69 69 58 50 50 53 58 66 73 80 81 80 80 81 82 84 85 86 85 84 83 79 74 70 65 59 53 47 43 42 43 44 45 44 44 45 44 45 46 48
67 70 70 65 52 46 49 54 61 68 75 82 83 81 81 82 84 86 86 87 88 87 85 81 75 71 65 59 54 48 45 45 46 47 47 46 46 46 46 46 48 49
69 68 63 54 46 48 53 58 64 70 77 84 85 83 84 84 86 88 88 89 91 89 86 81 75 69 64 60 56 50 48 48 50 50 48 48 48 49 49 50 51 53
63 59 53 46 45 53 58 61 67 74 81 86 86 85 86 86 88 90 89 91 93 91 86 80 74 69 64 61 58 54 52 53 54 52 49 48 49 51 52 53 54 56
55 53 49 47 52 60 62 65 74 81 84 86 86 85 87 88 90 90 92 94 94 90 84 79 75 70 66 62 60 58 57 57 55 53 51 51 51 53 55 56 57 58
56 52 51 56 62 64 66 73 82 85 85 86 85 85 88 90 91 92 94 95 91 86 82 81 79 73 68 65 62 60 58 56 54 52 52 53 54 56 58 58 59 59
57 53 57 64 66 66 72 83 87 85 85 84 83 85 89 90 91 93 94 90 86 84 84 85 82 75 69 65 62 58 55 53 53 53 53 54 55 58 60 59 59 60
55 58 64 67 67 71 81 88 87 84 83 82 83 87 89 90 91 93 91 89 87 88 89 89 84 75 68 64 60 57 54 53 55 56 56 55 56 58 59 58 58 59
61 66 69 69 72 80 87 88 85 82 81 82 85 89 90 92 93 92 90 90 89 87 89 89 83 75 68 64 61 58 56 57 59 60 59 59 59 59 58 56 56 56
71 73 72 74 80 85 87 86 82 80 81 84 88 91 93 94 93 92 93 92 89 87 90 91 85 77 71 67 64 62 61 62 64 64 63 62 61 60 57 55 55 55
76 75 74 78 83 85 85 82 80 81 84 87 90 94 95 94 93 95 97 95 90 90 93 92 84 76 71 69 67 65 65 66 68 69 66 62 60 61 60 58 58 56
72 72 76 81 83 83 82 81 80 83 86 89 93 94 94 94 96 98 100 98 95 93 93 89 80 73 71 71 70 70 69 70 72 72 70 67 66 67 66 64 61 57
71 76 81 82 81 81 81 80 81 85 89 92 93 94 95 98 99 101 100 97 92 89 90 90 86 82 79 77 77 76 73 73 75 75 75 74 72 71 69 66 62 57
79 82 82 80 80 81 81 80 83 88 91 92 93 95 99 101 101 101 96 89 86 88 91 92 88 86 84 83 83 81 77 78 80 80 78 77 74 71 68 65 60 56
82 82 80 79 80 81 80 82 87 90 90 91 94 99 101 102 102 100 92 85 85 90 93 90 85 83 84 84 84 81 79 81 83 82 79 77 74 70 66 62 57 53
83 81 80 81 81 79 80 84 87 88 89 93 98 101 102 103 103 100 93 89 90 94 94 89 84 83 83 84 83 81 82 84 83 81 78 75 71 67 64 60 55 51
82 82 82 82 80 79 80 84 86 90 96 100 101 102 104 105 105 102 99 97 97 97 93 89 86 84 84 84 84 84 85 85 81 78 75 71 68 66 63 60 55 51

ECMWFNIL_250_spd_018.txt.gz
Wind_Speed
45 46 47 48 49 48 49 51 53 57 59 58 56 52 48 49 52 54 57 61 67 72 73 72 73 76 78 80 81 80 74 67 61 56 52 48 45 43 43 45 46 47
46 47 49 50 50 49 50 52 55 60 62 61 59 53 47 48 51 53 56 61 68 73 73 72 74 76 79 80 80 79 74 70 67 62 55 50 47 44 41 42 44 46
48 49 52 52 51 51 52 53 58 62 63 62 57 49 44 47 50 53 55 62 71 74 73 72 74 77 80 80 79 78 78 76 73 69 61 53 48 44 41 39 40 43
51 53 54 54 53 53 53 55 59 62 61 56 49 43 43 47 51 53 56 64 74 76 74 73 75 78 81 80 78 80 82 80 76 74 67 56 50 46 41 39 39 40
54 56 57 57 54 52 54 57 58 57 53 48 45 44 46 48 51 54 58 67 76 78 75 74 75 79 82 80 80 83 85 83 78 76 71 59 51 47 42 40 38 38
56 58 59 57 52 51 55 56 53 50 48 47 48 50 50 51 53 56 60 69 78 79 76 75 75 79 82 81 82 86 88 87 82 77 74 63 52 47 43 39 38 38
58 59 58 54 51 54 56 51 47 48 49 50 52 54 54 55 57 59 63 71 79 80 78 76 76 80 83 83 85 88 91 91 84 77 75 67 54 47 43 40 39 40
58 59 57 56 57 57 53 48 49 52 53 54 56 57 58 58 60 63 66 73 80 81 79 77 77 82 84 84 86 89 91 90 84 78 74 67 56 49 45 42 41 41
59 60 60 60 58 54 51 52 54 56 56 58 59 60 60 60 63 65 69 76 82 83 82 79 79 83 84 84 88 90 91 90 85 80 76 65 55 50 47 45 43 42
60 60 59 58 55 54 56 59 61 60 59 60 62 61 61 62 64 67 71 78 82 83 83 80 80 84 85 87 90 90 91 92 88 82 77 66 56 51 49 46 43 42
57 57 56 57 57 59 61 63 62 61 60 62 63 62 62 63 66 70 74 79 82 83 83 80 80 84 87 90 92 91 92 95 91 85 79 69 59 53 50 47 43 40
57 59 58 58 57 57 58 59 59 59 61 64 65 64 64 66 69 72 75 78 82 82 82 81 81 84 89 92 92 91 94 96 94 88 81 70 61 55 51 48 45 43
61 60 59 60 59 58 59 60 61 63 66 68 68 67 69 70 71 73 75 79 82 82 82 83 81 84 90 93 92 92 95 98 95 91 83 71 61 56 53 50 49 47
64 61 63 66 66 65 66 67 68 69 70 70 70 71 72 71 71 73 76 81 83 83 84 85 83 85 91 94 93 94 97 100 98 93 85 74 64 57 55 54 52 50
64 63 66 69 69 68 68 68 68 69 68 68 70 72 72 70 71 75 80 84 85 85 87 87 84 86 92 95 95 97 100 102 100 96 89 79 68 61 57 57 56 53
65 66 68 69 67 64 63 63 64 64 64 67 71 72 70 70 74 79 83 86 88 89 89 88 87 88 92 96 97 98 102 104 102 99 94 85 75 67 63 61 59 58
65 64 65 65 58 53 54 59 60 61 63 69 73 72 70 74 80 83 87 90 91 91 91 91 90 90 93 98 99 100 103 105 104 102 98 90 80 72 69 66 64 62
62 61 61 57 50 48 53 57 60 63 68 72 74 73 76 82 85 87 90 92 92 92 93 92 90 91 95 99 100 101 104 105 104 104 100 92 82 75 73 72 70 69
63 59 54 48 48 53 57 60 64 69 72 75 76 78 82 87 89 91 92 92 92 92 91 90 90 91 97 101 101 102 104 105 104 104 101 93 82 75 74 74 73 73
56 52 50 49 51 55 59 63 69 73 75 77 79 82 87 91 92 93 92 91 91 91 90 90 91 94 99 101 101 102 105 105 105 104 100 91 81 76 76 76 75 74
50 51 53 54 55 57 60 66 71 75 77 79 82 86 91 93 93 91 89 89 88 88 89 91 94 99 101 101 101 104 106 106 105 104 98 89 82 79 79 78 77 75
55 57 59 62 65 68 69 72 75 79 81 83 86 89 91 92 90 88 86 85 85 87 91 95 98 101 101 101 103 106 107 107 106 103 97 89 84 83 83 81 79 76
60 65 68 72 75 75 75 76 78 80 82 84 86 89 90 89 87 84 83 83 86 92 97 99 100 101 101 101 105 108 109 108 105 101 95 89 86 87 86 83 79 76
68 72 74 75 75 74 76 77 78 80 83 85 87 88 88 87 84 82 82 84 90 97 100 100 101 102 102 103 107 110 109 107 105 100 93 89 88 89 88 84 79 75
73 76 77 77 77 77 78 79 80 82 85 86 87 87 87 85 82 82 85 90 96 100 101 101 103 104 103 105 110 111 109 107 103 98 93 91 90 90 89 85 79 74
76 80 81 81 80 80 80 81 81 82 83 84 86 87 86 83 83 87 92 97 100 102 103 105 107 105 105 108 112 111 109 107 102 96 93 92 91 91 89 84 78 73

ECMWFNIL_250_spd_021.txt.gz
Wind_Speed
43 43 43 44 43 43 45 46 47 47 48 47 47 49 47 43 44 50 56 58 56 53 52 54 55 55 54 55 56 59 63 64 65 67 69 70 72 77 80 80 76 69
45 45 45 44 44 45 46 47 48 48 48 48 49 49 46 45 50 57 60 60 57 55 56 58 59 58 57 56 57 60 63 65 66 68 71 73 73 75 80 82 80 75
47 47 47 46 46 47 46 47 48 47 47 48 50 50 49 51 56 61 62 61 59 59 60 61 61 61 59 59 58 61 65 67 68 71 73 75 75 75 79 82 82 79
49 49 49 49 50 49 45 45 46 46 48 50 51 52 53 56 59 61 63 63 62 62 62 63 62 62 62 60 59 62 67 69 70 73 75 76 76 76 79 83 84 82
50 50 50 52 53 48 43 44 45 46 48 51 52 54 56 58 59 62 64 65 64 63 63 63 63 63 63 61 60 63 68 70 72 75 77 77 77 76 79 84 85 84
52 52 52 53 52 46 44 46 46 46 48 52 55 56 57 59 61 63 66 66 64 63 63 63 63 63 63 62 61 65 70 73 75 77 79 79 77 77 80 84 87 87
53 55 54 52 49 46 46 49 50 48 50 55 59 59 58 60 62 65 66 64 63 63 63 64 63 63 64 63 63 68 73 76 78 79 81 80 78 77 81 85 88 89
57 59 55 50 48 48 49 53 55 54 55 61 64 61 59 60 63 65 65 63 63 63 64 64 64 64 65 65 66 70 75 79 81 82 82 80 78 78 82 86 89 91
58 58 54 50 50 51 52 56 59 58 60 66 67 63 62 64 65 65 65 64 64 65 66 66 66 66 66 67 69 73 78 82 84 84 83 80 78 79 83 87 90 92
56 54 51 51 52 52 53 57 60 61 65 70 70 67 67 67 66 66 67 66 66 66 68 68 67 67 67 69 74 78 81 84 86 85 83 80 78 80 85 89 91 94
53 52 51 52 53 54 56 59 61 63 69 73 72 70 69 68 67 68 68 68 67 68 69 69 68 67 69 74 80 82 84 87 89 86 82 80 79 82 87 91 94 96
53 52 51 51 54 56 58 61 66 71 75 74 71 70 70 70 70 69 68 68 68 69 69 68 67 68 73 79 83 85 87 90 89 84 81 80 81 84 88 93 96 99
53 54 52 54 59 63 65 69 73 74 72 69 68 70 72 73 70 68 67 68 68 68 67 67 68 71 76 81 84 86 89 90 87 82 82 82 83 86 90 94 98 101
57 61 61 62 66 68 70 72 71 69 67 68 70 72 73 71 67 65 67 67 66 66 66 67 69 73 78 82 85 89 90 88 85 84 84 84 85 88 92 96 100 102
61 65 65 65 67 69 70 71 69 66 65 67 69 69 67 65 64 65 66 66 66 67 69 71 75 79 82 85 88 89 88 87 87 87 87 86 87 91 95 98 101 104
57 59 62 63 65 66 66 67 64 60 58 60 62 62 61 61 63 64 65 67 69 72 74 78 81 82 83 85 86 86 86 87 87 88 88 88 89 93 97 101 103 106
48 53 60 63 62 60 61 62 58 53 55 59 60 59 59 59 63 66 68 69 70 72 75 79 80 81 82 83 84 85 85 87 87 88 89 90 92 96 100 103 106 109
45 49 56 60 60 59 60 60 55 53 56 58 56 57 57 61 67 70 70 69 71 74 79 82 83 84 84 85 85 86 87 87 88 88 89 91 95 99 102 105 109 112
48 51 57 60 60 61 62 61 59 58 57 55 55 57 60 66 72 73 73 75 78 81 84 86 86 86 86 86 86 87 88 87 88 88 90 93 97 101 104 107 111 113
51 54 58 58 57 59 61 62 62 62 62 60 60 61 65 71 75 77 80 83 84 85 86 88 88 87 86 86 86 87 87 87 88 89 92 96 100 103 105 109 112 112
56 58 61 61 60 60 60 62 65 68 69 68 69 71 74 77 81 82 85 86 87 89 89 89 88 86 86 86 87 87 88 89 91 93 96 100 103 105 108 111 113 111
56 58 60 61 62 62 63 66 70 73 74 74 75 77 78 80 83 86 88 90 91 90 88 87 86 85 85 87 88 89 92 94 95 97 99 103 106 109 111 113 113 112
53 53 56 57 59 62 65 69 72 73 74 75 76 77 79 82 86 89 91 92 91 90 88 87 87 87 87 88 91 94 96 96 96 98 102 106 109 111 112 113 113 112
51 53 58 60 63 66 68 70 73 74 74 76 77 80 83 86 89 91 93 93 91 90 89 89 89 89 91 93 96 96 95 94 98 103 108 110 110 111 113 114 113 111
57 60 64 65 67 70 73 74 75 75 76 78 81 84 87 89 91 93 93 92 91 90 90 90 90 92 95 97 95 93 94 99 105 109 110 111 112 113 114 114 112 107
61 64 66 68 69 71 73 74 75 77 80 83 85 87 89 90 91 91 91 91 91 91 91 90 90 93 95 94 92 94 100 107 111 112 112 113 114 115 114 112 107 100

ECMWFNIL_250_spd_024.txt.gz
Wind_Speed
38 39 39 40 42 44 46 47 44 43 44 42 38 38 41 43 43 44 45 46 48 50 52 53 53 53 52 51 51 52 53 54 54 55 55 55 55 54 55 61 66 67
40 41 42 42 43 45 47 46 43 42 42 40 39 41 44 45 46 47 49 50 51 52 55 58 57 54 53 52 53 53 53 54 55 56 57 57 56 55 57 62 66 67
43 44 44 44 44 46 45 42 39 38 38 38 40 42 44 47 49 50 50 51 51 53 58 61 59 55 54 55 54 54 54 54 56 57 57 57 56 56 58 62 66 68
45 45 46 46 46 46 43 39 37 36 36 37 39 43 46 48 48 49 50 49 50 55 61 63 60 56 57 57 55 54 54 55 56 57 57 57 57 57 59 63 68 71
46 47 48 49 49 47 44 41 39 36 34 36 39 44 48 49 50 51 50 48 51 58 62 62 60 59 61 59 55 54 55 56 57 58 57 57 58 59 61 66 71 72
47 47 49 50 51 50 48 45 40 36 36 39 43 46 49 52 52 51 50 51 56 61 63 62 63 64 63 58 54 55 58 58 58 59 58 59 60 61 65 70 72 71
48 48 49 50 52 53 52 48 42 40 42 45 46 48 52 53 53 52 54 57 60 63 63 63 63 63 60 55 54 57 60 60 60 60 59 60 62 65 69 71 71 70
49 49 49 51 54 55 52 47 43 43 47 49 51 53 54 54 55 56 59 61 62 63 61 58 60 60 57 54 56 60 61 62 61 60 61 62 65 67 70 71 71 72
49 48 49 51 54 53 50 46 45 48 52 55 56 55 55 55 56 57 59 60 60 58 57 58 62 62 58 56 59 62 63 63 61 60 62 65 66 68 70 71 73 74
49 49 49 50 50 48 45 46 49 52 55 57 55 53 54 55 55 57 59 59 58 56 59 63 64 61 58 60 64 66 66 64 61 61 64 66 68 70 72 73 75 75
48 49 48 48 47 46 45 46 50 53 53 54 52 52 54 56 57 59 61 61 60 60 61 63 62 60 60 63 66 66 65 63 62 64 68 70 72 74 75 75 76 77
48 49 47 45 45 45 45 46 49 50 52 53 52 52 54 57 60 62 65 67 66 61 59 59 60 60 61 63 64 65 65 66 68 71 73 75 77 77 77 78 79 80
47 47 47 44 41 42 46 50 52 53 54 55 53 53 56 60 62 64 67 68 64 59 57 58 59 60 60 61 63 66 69 72 75 77 79 80 80 79 80 82 83 82
47 49 50 49 47 48 51 55 58 58 57 57 56 56 57 61 64 64 65 64 59 56 57 58 60 61 60 62 66 71 74 78 79 81 82 83 83 83 85 86 86 85
51 53 53 53 55 56 56 58 60 59 57 58 59 59 61 64 66 65 64 63 60 58 59 61 62 63 64 68 73 77 79 81 82 83 85 86 87 88 90 90 89 87
53 54 55 55 56 58 59 61 61 60 62 64 64 65 66 68 68 67 65 63 62 62 63 63 64 67 71 75 78 80 81 82 83 86 88 90 92 93 93 92 90 88
54 52 51 50 50 53 57 61 63 65 68 68 68 69 68 66 65 64 62 62 64 66 66 65 68 71 74 77 79 80 82 84 87 90 92 93 94 94 92 91 89 87
53 49 45 44 46 48 54 60 63 64 65 65 65 65 64 63 61 61 62 65 67 68 67 68 69 71 74 78 80 82 84 87 90 92 94 94 94 93 91 89 87 86
51 45 41 44 46 46 51 56 57 58 62 63 61 60 61 62 63 64 67 70 71 72 73 74 76 78 80 82 83 85 88 90 92 93 94 94 94 92 89 87 85 86
49 41 38 44 50 50 54 56 54 56 59 58 56 58 62 64 66 68 71 74 75 77 79 81 83 84 84 85 86 89 91 93 94 94 94 93 92 90 88 87 88 92
48 39 37 45 54 57 58 58 56 54 51 49 53 60 65 66 67 69 73 76 79 80 81 83 84 85 85 87 90 92 94 95 95 95 94 93 92 90 90 91 94 99
48 40 40 48 55 59 60 60 59 54 49 50 55 61 64 67 69 71 74 77 79 80 81 82 84 86 87 90 92 94 95 96 96 95 94 93 92 93 94 96 100 104
50 44 46 52 55 59 61 60 59 59 58 59 60 62 64 68 71 73 75 78 79 81 82 84 86 89 91 93 94 95 96 97 96 94 92 93 94 96 97 100 104 106
54 49 51 54 57 61 63 62 61 62 64 66 67 68 70 73 75 77 78 79 81 83 85 87 89 91 93 95 95 97 98 97 94 92 92 93 95 97 100 103 106 108
59 55 56 58 60 64 68 69 70 70 70 72 73 74 76 78 79 80 82 84 85 86 87 88 89 91 93 95 96 98 98 96 94 93 92 94 98 102 105 108 109 110
63 61 61 61 63 65 69 72 74 75 76 76 77 78 79 81 82 84 86 88 89 89 89 90 90 91 93 95 96 96 96 95 94 91 92 97 104 107 109 110 111 109

ECMWFNIL_250_spd_027.txt.gz
Wind_Speed
38 38 39 39 39 39 40 40 40 40 40 41 41 41 41 40 39 39 39 38 39 42 44 44 42 42 43 44 46 46 44 43 45 47 47 47 47 47 50 52 56 58
39 40 40 40 40 40 39 39 39 39 39 40 41 40 39 38 38 38 39 41 43 45 44 42 41 42 43 44 45 44 42 43 47 48 48 47 47 48 51 54 56 58
41 41 41 41 40 40 40 39 38 38 39 40 41 40 39 38 38 39 42 44 46 45 42 42 41 42 43 44 44 42 43 47 49 49 48 47 46 48 52 54 55 57
42 42 42 41 41 41 41 40 39 40 41 42 42 42 42 41 41 43 44 45 43 41 41 42 42 42 43 44 43 45 48 50 50 49 48 46 47 49 52 53 55 55
43 43 43 42 42 42 42 41 42 44 45 45 46 46 44 42 41 42 41 41 41 41 42 44 44 44 44 45 47 50 50 50 50 49 47 47 49 51 53 54 54 52
44 44 44 44 44 44 44 45 46 46 47 48 48 47 44 40 39 39 40 41 43 44 43 44 46 47 47 49 52 53 51 50 50 50 49 50 52 53 54 54 53 52
45 45 45 46 46 47 48 49 49 48 48 49 48 46 44 41 40 40 41 44 46 45 45 47 50 51 52 54 56 55 52 51 52 51 52 54 55 55 55 54 54 57
46 47 48 49 50 50 51 51 50 49 49 49 47 46 46 44 42 43 45 47 48 48 49 51 53 54 55 57 57 56 54 53 53 53 55 57 56 54 55 56 59 63
48 49 50 51 51 52 53 51 50 49 48 48 47 47 47 45 45 47 48 48 48 49 52 54 55 56 58 58 56 54 54 53 54 56 58 57 54 53 57 61 63 66
51 52 53 52 52 53 52 50 50 49 47 47 47 48 48 47 48 48 47 48 49 52 54 55 57 59 58 55 53 53 54 56 57 57 56 55 55 58 62 64 66 68
53 54 54 54 55 55 52 49 50 50 50 50 49 48 48 48 48 47 46 49 51 51 52 54 57 58 54 52 53 54 55 56 56 54 53 56 60 62 64 66 68 70
54 54 54 55 56 55 52 50 51 51 51 51 49 48 49 47 44 43 46 50 49 48 52 55 54 52 52 53 53 52 53 54 53 54 56 60 62 63 66 68 71 74
55 55 55 56 55 53 52 53 54 53 52 50 48 48 49 47 43 43 48 50 48 49 54 55 51 51 53 52 48 50 54 57 58 59 61 62 63 67 70 73 75 78
55 54 55 54 52 52 54 55 56 55 54 53 50 49 50 49 45 45 49 51 50 51 54 52 49 51 52 49 48 54 59 60 62 62 62 64 69 73 76 77 79 81
55 53 53 53 53 55 55 55 55 55 54 51 49 47 47 46 45 48 53 53 52 52 52 51 52 53 53 52 55 59 60 61 63 64 66 70 74 77 79 81 82 83
54 53 52 51 52 52 52 53 53 51 50 50 49 48 46 45 48 52 55 56 56 55 54 55 57 57 56 58 61 62 62 63 65 67 71 74 77 79 81 83 84 86
55 54 52 50 49 47 47 50 50 49 51 54 53 51 48 50 53 56 58 60 61 59 58 59 60 61 61 62 63 65 67 69 71 74 75 77 79 81 83 85 86 87
55 55 54 51 49 47 48 51 51 51 55 57 57 54 53 53 55 57 58 60 59 59 60 61 62 64 65 66 67 69 71 74 76 78 80 81 84 85 86 87 87 87
55 55 55 54 52 51 53 53 53 54 56 58 59 59 60 60 59 57 56 56 57 59 62 64 65 67 69 71 72 74 76 79 81 83 85 87 88 89 89 88 86 85
56 57 58 57 55 55 57 56 55 55 56 57 57 57 61 65 65 63 63 62 63 63 64 65 67 69 71 74 77 79 81 83 86 87 89 90 90 90 88 86 84 82
58 59 61 61 60 60 61 60 59 58 58 58 58 59 63 67 67 68 70 71 71 70 70 70 72 73 76 79 82 84 86 87 88 88 88 88 88 86 84 82 80 78
62 62 63 64 65 65 64 64 64 64 62 61 60 62 65 68 70 72 74 76 77 77 77 77 78 80 82 84 86 87 87 86 85 83 82 82 81 80 78 77 77 78
65 65 66 68 70 70 69 68 68 67 66 65 65 65 67 69 71 73 76 78 80 80 81 81 82 83 85 86 87 88 86 83 79 77 77 76 76 76 76 77 79 81
68 68 70 71 72 72 71 70 70 69 69 68 67 67 68 68 70 72 75 77 79 80 81 81 82 84 85 86 86 84 81 78 75 74 74 74 74 75 77 79 82 85
70 70 70 70 71 72 72 71 71 69 68 66 65 65 66 67 68 70 72 74 76 77 78 79 82 83 84 84 82 78 75 74 74 74 75 75 76 77 79 82 85 89
71 70 70 71 71 72 72 70 68 66 64 64 64 64 65 65 66 67 68 70 72 73 76 78 78 77 76 74 71 68 69 72 75 76 75 75 77 80 83 87 89 91

ECMWFNIL_250_spd_030.txt.gz
Wind_Speed
34 35 35 36 36 36 37 37 38 38 38 39 39 39 39 39 40 41 40 39 38 36 35 34 34 34 36 37 40 43 43 43 43 42 42 44 47 49 47 45 43 42
35 36 36 37 37 37 38 38 38 39 39 39 39 39 39 40 41 41 40 39 38 37 36 36 37 39 41 41 43 44 43 42 43 43 44 47 49 49 47 44 43 43
37 37 37 38 38 39 39 39 39 39 40 39 39 40 40 41 42 42 41 41 41 40 39 40 41 43 44 44 45 45 43 42 43 44 46 48 50 49 46 44 44 45
38 38 39 39 40 40 40 40 41 41 41 42 42 42 42 43 43 43 43 43 42 42 42 42 44 44 45 46 46 44 43 43 44 44 46 49 50 48 45 45 47 48
39 40 41 40 41 41 41 42 43 43 44 45 45 45 46 46 45 44 44 43 42 41 42 43 44 45 45 47 46 44 43 44 43 43 46 48 48 47 47 48 48 48
42 42 43 42 42 43 44 45 45 46 47 47 47 47 48 48 46 45 45 43 41 40 41 42 43 44 45 46 45 43 43 43 43 44 46 47 47 48 49 50 50 48
44 45 44 44 44 45 47 48 48 48 49 49 49 49 50 49 48 47 46 44 43 42 43 43 43 44 43 43 44 45 44 44 44 45 46 46 48 50 52 52 52 49
46 46 46 46 47 48 50 51 51 50 50 50 50 49 49 49 49 51 49 46 44 44 46 47 46 44 42 43 45 46 46 47 48 47 47 49 51 51 50 50 49 48
48 48 48 49 50 52 53 52 51 51 52 52 51 51 51 51 53 54 52 47 44 45 48 50 50 47 43 43 46 47 48 51 51 50 50 51 48 45 45 47 49 51
49 50 50 52 53 55 55 53 53 54 53 53 52 53 52 51 52 52 50 47 45 45 48 51 51 47 43 45 48 49 51 54 54 53 52 49 45 44 47 50 52 55
51 52 53 54 56 57 57 57 57 57 54 53 52 51 50 48 49 50 49 47 45 44 45 48 49 47 47 50 51 51 54 55 55 51 47 45 45 47 50 53 55 59
54 54 55 56 57 58 59 60 59 58 56 53 51 50 48 47 49 50 49 48 46 44 45 47 48 50 52 53 53 54 55 53 50 47 46 47 50 52 54 57 60 63
56 57 57 58 58 59 61 60 59 58 57 54 52 51 50 50 51 51 49 48 47 46 48 49 50 52 52 52 54 57 58 56 56 56 57 58 58 58 60 62 64 66
57 58 59 58 58 60 62 60 58 57 56 55 53 52 51 52 52 51 49 49 50 51 50 48 48 50 51 53 56 60 61 62 63 63 63 62 62 63 64 66 68 70
58 59 59 59 58 59 61 60 57 56 56 55 54 53 53 53 53 52 51 51 52 53 51 49 49 50 52 55 58 60 62 63 64 63 63 63 65 66 68 70 73 76
59 59 59 59 58 58 58 57 56 56 55 54 54 55 55 55 55 56 56 56 56 56 56 56 55 55 55 58 60 61 62 63 63 63 64 65 68 71 74 78 81 83
61 60 60 60 58 57 56 55 54 55 55 55 56 56 58 59 59 60 60 60 59 59 60 60 60 59 59 61 62 63 64 66 67 69 71 74 77 80 83 84 85 84
62 60 60 60 58 57 56 54 55 55 55 56 57 59 60 62 62 63 63 61 61 61 61 61 61 62 61 63 66 68 71 73 75 77 79 81 82 84 85 85 83 81
62 60 60 59 59 57 56 56 57 57 58 58 59 61 62 63 64 65 63 60 60 61 61 62 61 61 62 65 68 71 74 76 78 79 81 82 83 84 84 82 80 77
62 61 59 59 58 57 56 57 58 59 60 61 62 63 64 64 64 62 59 59 60 61 63 63 60 60 63 66 68 71 73 76 78 79 80 82 82 81 79 77 74 72
63 61 60 59 58 58 58 59 60 61 62 63 64 65 65 64 61 58 59 63 65 65 65 62 60 62 65 66 68 70 72 74 76 77 78 78 76 74 72 70 69 70
63 61 60 59 58 59 59 60 61 62 63 64 65 66 66 66 63 62 63 64 64 64 63 61 63 65 66 67 68 70 71 72 73 73 73 72 70 68 67 68 71 74
64 62 61 60 60 61 62 62 63 65 66 66 67 67 67 65 64 66 67 65 63 63 62 64 66 67 67 68 69 69 69 70 70 69 69 68 68 68 68 71 75 77
64 63 62 62 62 63 64 65 66 67 68 69 69 69 68 66 65 67 68 66 64 64 64 66 67 66 67 67 67 68 68 68 69 69 68 69 70 71 73 75 78 80
65 64 64 64 65 65 66 68 69 70 71 71 70 69 69 69 68 69 68 66 65 65 65 66 65 64 65 66 66 68 69 69 70 70 70 72 73 73 74 76 77 78
67 66 66 66 67 67 68 70 71 72 72 71 70 70 70 70 70 69 67 66 65 65 65 64 63 64 65 67 69 71 72 72 72 73 73 73 71 70 72 74 76 76

ECMWFNIL_250_spd_036.txt.gz
Wind_Speed
25 25 26 27 27 28 29 30 31 32 32 33 34 35 36 37 38 39 40 41 42 42 42 42 41 40 39 37 36 36 35 35 36 37 37 37 37 37 39 40 40 41
26 27 28 28 29 29 30 32 33 34 34 35 35 36 38 39 40 41 42 43 44 45 44 44 43 41 40 39 37 36 36 37 38 39 39 39 39 39 40 40 41 41
28 29 30 30 31 31 32 33 34 35 36 36 37 38 39 41 42 43 45 46 47 46 46 45 45 43 41 40 39 38 38 39 40 41 42 42 42 42 43 43 42 42
30 31 32 32 33 33 34 35 35 37 37 38 39 40 41 42 43 45 46 48 49 48 47 46 46 44 42 41 41 41 41 41 42 42 43 45 46 45 47 47 45 44
32 33 34 34 34 35 35 36 37 38 39 39 40 41 43 44 45 46 48 49 50 50 49 48 47 45 43 42 42 42 43 44 44 43 43 46 48 48 49 49 48 45
35 35 35 36 36 37 37 37 38 39 40 41 42 43 44 45 46 48 49 50 51 51 50 49 48 47 46 44 43 44 45 45 45 43 44 48 49 49 50 50 48 46
38 38 37 38 38 39 39 39 40 40 41 42 43 44 46 47 48 49 50 51 52 52 51 50 49 48 48 47 46 46 46 45 45 45 47 51 51 51 51 50 48 46
40 40 40 40 41 41 41 41 41 42 42 44 45 46 47 48 49 50 52 52 53 53 52 51 50 49 49 49 49 48 47 46 46 47 50 54 54 52 52 50 48 47
43 42 42 42 43 43 43 43 44 44 44 45 47 48 49 49 50 51 53 53 54 54 53 52 51 50 49 49 49 50 49 47 46 48 52 55 55 53 52 49 47 48
45 45 45 44 45 45 45 45 46 46 46 46 48 50 51 51 52 53 54 55 55 55 55 54 53 52 51 50 50 52 51 49 49 51 54 56 55 55 52 47 46 48
48 48 47 47 47 47 47 48 48 48 48 48 49 50 52 53 54 54 55 55 56 56 56 55 54 53 52 51 52 53 53 51 51 54 56 56 56 57 53 48 48 50
50 50 49 49 49 49 50 49 50 50 51 51 51 51 52 54 56 56 57 57 56 57 57 56 55 54 53 52 53 54 54 52 52 55 57 58 58 58 55 51 50 51
53 52 52 51 51 52 52 51 51 52 53 53 53 53 54 55 57 58 59 59 58 58 58 57 56 54 54 54 54 54 54 52 53 57 61 60 59 58 53 50 50 52
55 54 53 53 54 54 54 54 54 54 54 55 56 56 56 57 59 60 60 60 60 60 59 59 57 56 55 54 53 53 55 54 56 61 63 60 59 56 51 50 53 57
57 56 56 56 56 56 56 56 56 56 56 57 57 58 59 59 60 62 62 62 61 61 60 60 59 57 56 54 53 53 56 58 60 63 63 60 58 55 52 56 61 62
59 58 58 59 59 59 59 58 58 58 58 58 58 59 60 60 61 62 64 64 63 62 61 61 60 58 57 56 55 56 59 60 62 64 64 60 55 54 56 62 64 63
61 60 60 61 61 61 61 61 61 61 61 60 60 61 61 62 61 62 63 64 64 63 61 61 61 59 58 54 53 57 61 62 63 65 64 58 55 56 59 59 61 64
62 62 62 63 63 63 63 63 63 63 63 63 62 62 63 63 63 63 63 63 64 64 63 62 61 61 60 55 52 56 62 63 65 66 64 59 59 62 60 56 60 66
64 64 64 65 65 65 65 65 65 66 66 66 65 64 65 65 64 64 64 64 64 65 64 62 62 63 62 60 58 59 63 65 66 65 63 62 65 66 63 60 63 67
66 66 67 67 67 67 67 67 67 68 68 68 67 66 66 67 67 66 66 65 64 65 65 63 63 64 64 63 63 63 65 67 66 64 64 68 69 66 64 64 67 68
69 69 69 69 69 70 69 69 70 70 70 69 69 68 68 68 69 68 68 67 66 65 65 64 64 65 65 65 65 66 67 66 65 64 67 71 70 65 65 68 69 69
70 71 71 71 71 72 72 72 72 73 72 71 70 70 69 70 70 70 70 69 68 66 65 65 65 66 67 67 68 68 69 67 66 68 71 73 71 68 69 70 70 70
71 73 73 73 73 74 75 75 75 75 75 74 72 71 71 71 71 70 70 70 69 68 67 66 66 67 68 70 70 71 71 70 70 72 74 74 74 73 73 72 71 72
72 73 74 75 75 77 78 78 78 78 77 75 74 73 72 72 72 71 70 70 70 69 69 68 68 69 71 72 72 72 72 72 73 75 76 77 77 76 75 75 74 74
74 74 75 77 78 79 80 81 81 80 78 77 76 75 74 74 73 71 71 71 70 70 69 70 70 71 73 74 75 74 74 74 75 76 77 78 77 77 76 76 75 74
76 76 77 78 80 81 83 83 82 81 80 79 77 76 76 74 73 72 71 71 70 70 71 72 73 73 73 75 77 76 76 76 77 77 78 78 77 77 76 76 76 74

ECMWFNIL_250_spd_039.txt.gz
Wind_Speed
24 23 23 24 24 24 25 26 27 28 28 29 31 32 33 34 34 35 36 37 37 38 39 40 41 42 43 44 43 43 42 41 39 38 37 38 38 38 37 36 36 38
25 25 25 25 26 26 27 28 29 29 30 31 32 34 35 35 36 36 37 38 39 39 40 41 42 43 43 44 44 44 43 42 41 40 39 40 40 40 38 37 37 39
26 27 27 27 27 28 28 29 30 31 32 32 34 35 36 37 38 38 39 39 40 41 41 42 43 44 44 45 45 45 44 43 42 41 41 41 41 41 39 38 39 42
28 28 29 29 29 29 30 31 32 32 33 34 35 36 37 39 40 41 41 41 42 43 43 44 45 46 46 46 46 46 45 44 43 42 42 43 43 42 41 41 42 44
30 30 31 31 31 31 32 33 33 34 35 36 37 38 38 40 41 42 43 43 44 44 45 46 46 47 48 48 48 47 46 45 44 44 44 44 45 44 44 43 42 44
32 32 33 33 33 33 34 35 35 36 37 38 39 40 40 41 42 43 44 45 46 46 47 48 48 49 50 50 50 48 47 46 45 45 45 46 46 46 45 44 43 46
34 34 35 35 35 36 36 37 37 37 38 40 41 42 42 43 44 44 45 46 47 48 49 50 50 51 51 52 51 50 49 49 47 47 46 47 47 45 44 44 46 49
37 37 37 37 38 38 38 39 39 39 40 41 43 44 44 45 46 46 47 47 48 49 50 51 52 53 53 52 52 52 51 51 49 47 47 47 48 47 46 46 49 50
39 39 39 40 40 40 40 41 41 41 42 43 44 45 46 47 47 48 49 49 50 51 51 52 53 54 54 54 54 54 53 51 50 49 48 49 49 48 48 49 51 51
42 42 42 42 42 42 42 43 43 43 44 45 46 47 48 48 49 50 51 51 52 52 52 53 54 55 55 55 55 55 53 52 51 51 51 50 50 49 50 51 52 53
45 45 45 45 44 44 44 45 45 45 46 47 48 49 49 50 51 52 52 53 53 53 54 55 55 55 55 56 58 57 54 53 54 55 54 53 52 51 52 52 53 55
47 47 47 47 47 46 46 47 47 47 47 48 49 51 52 52 53 54 54 54 54 55 55 56 57 57 57 57 59 57 56 57 59 59 58 55 54 53 54 54 53 55
49 50 50 50 49 48 48 49 50 50 49 49 50 52 53 54 55 55 56 56 56 56 56 57 58 59 58 57 59 59 59 59 60 60 58 56 54 54 55 55 54 55
52 53 53 52 51 50 50 51 52 52 52 51 51 52 54 55 57 57 57 58 58 57 57 56 58 59 58 57 59 60 60 60 59 59 59 57 56 57 57 56 57 57
55 55 55 53 52 52 53 54 54 54 53 53 53 53 54 56 57 58 58 59 59 59 59 58 58 59 58 57 58 60 60 59 60 60 60 59 59 59 59 58 59 60
57 57 56 55 54 54 54 55 55 53 53 54 54 55 56 57 59 60 60 60 61 61 61 61 60 60 59 58 59 60 60 60 61 61 61 61 61 61 61 61 61 62
59 58 58 57 56 56 56 56 55 54 54 56 56 58 59 60 60 62 62 62 63 64 65 65 64 63 63 61 61 61 62 62 63 63 62 63 63 63 63 63 63 64
62 61 59 59 59 58 59 59 58 58 58 58 58 60 62 62 62 63 64 64 65 66 67 68 68 67 66 65 63 63 64 64 64 64 64 64 65 64 64 66 66 67
64 61 60 60 61 61 62 62 62 62 61 60 60 62 63 63 63 64 65 65 66 67 68 70 70 70 69 67 66 65 65 65 65 65 65 65 66 66 67 68 69 70
64 62 62 63 64 64 65 65 65 65 64 63 63 64 65 65 66 66 66 66 66 67 69 70 71 71 70 69 68 67 66 65 65 66 66 66 67 68 69 70 71 72
65 66 66 66 67 67 68 68 68 67 67 66 66 66 68 68 68 68 68 67 67 68 69 70 71 72 72 71 69 67 66 66 66 67 68 69 69 70 71 72 73 73
69 69 68 67 68 69 70 70 70 69 69 69 69 69 70 71 71 71 70 69 69 70 70 71 72 72 72 70 68 67 67 67 67 69 70 71 72 73 73 73 73 74
71 70 69 69 70 70 71 71 72 72 72 71 71 72 73 74 74 74 73 71 71 72 72 72 72 72 71 69 68 68 68 68 68 69 71 72 74 75 75 75 75 75
73 72 71 71 71 71 71 71 73 74 73 72 72 74 76 76 76 76 75 73 74 74 73 73 72 72 71 70 70 70 69 69 69 70 72 74 75 76 76 76 76 76
76 74 74 74 73 72 71 72 73 72 71 72 75 78 78 78 78 78 77 76 76 76 75 74 73 72 71 70 71 71 70 69 70 72 74 76 76 76 76 75 75 75
78 77 76 76 75 74 73 73 72 71 72 75 79 80 79 79 80 80 80 79 77 76 75 74 73 72 71 70 70 70 70 70 72 74 75 76 76 75 74 73 73 74

ECMWFNIL_250_spd_042.txt.gz
Wind_Speed
18 19 21 21 21 21 21 22 23 23 24 25 26 27 28 29 30 30 32 33 35 36 37 38 38 38 38 39 39 40 41 42 43 43 43 43 42 41 40 38 38 39
19 20 21 22 23 23 23 24 24 25 26 27 28 29 30 30 31 32 33 34 35 37 39 40 40 40 40 40 40 41 42 43 43 43 44 44 44 43 42 41 40 40
20 21 22 24 24 25 25 26 26 27 28 29 30 31 31 32 33 34 34 35 36 38 39 41 42 42 42 42 42 42 42 43 44 44 45 45 46 45 44 42 41 41
22 22 23 24 26 27 27 28 29 29 29 31 32 33 33 34 34 35 36 37 38 39 40 42 43 44 44 44 43 43 43 44 45 45 45 46 46 46 45 44 43 43
24 23 24 25 27 28 30 31 31 31 31 33 34 35 35 35 36 36 37 38 39 40 41 43 44 45 45 45 45 45 44 45 45 46 46 46 47 47 47 46 45 45
26 25 25 27 28 30 32 33 34 34 34 34 36 37 37 37 38 38 39 39 41 41 43 44 45 46 46 47 47 46 46 46 47 47 47 47 48 49 49 48 47 47
28 27 27 28 30 32 33 34 36 36 36 36 38 39 39 40 40 40 41 41 42 43 44 45 46 47 47 47 48 48 48 48 48 48 49 49 50 50 50 50 50 50
30 30 29 30 31 33 35 36 37 38 38 38 39 41 42 42 42 43 43 44 44 44 44 45 47 48 48 48 48 48 49 49 50 50 50 51 52 52 52 52 51 51
34 33 33 33 34 35 37 38 39 40 40 40 41 42 43 44 44 46 46 45 45 44 44 45 47 49 49 50 49 49 50 51 52 52 52 53 53 54 54 54 53 52
37 37 37 37 37 38 39 40 40 41 42 42 43 44 45 45 46 47 47 46 44 45 46 47 49 50 51 52 52 51 52 53 53 54 54 55 55 55 55 55 54 53
39 39 40 40 40 41 41 41 42 43 44 45 46 46 47 47 47 48 48 47 46 48 49 49 51 52 52 53 54 54 54 55 56 56 56 57 58 57 56 56 55 54
40 41 42 43 43 43 43 43 43 44 46 47 47 48 48 49 49 50 50 50 50 51 51 51 53 53 53 53 55 56 57 57 58 58 59 60 57 54 55 57 57 56
43 43 44 45 45 45 44 44 45 46 47 48 49 50 50 50 51 52 52 53 53 52 52 53 54 55 55 54 55 57 58 58 58 59 59 57 51 50 55 60 59 58
45 45 46 47 47 46 46 46 47 48 49 51 51 52 51 51 52 54 54 55 55 55 54 55 56 57 57 56 56 58 59 60 59 58 56 52 49 53 59 61 61 62
47 47 48 48 48 48 48 48 48 49 51 52 53 53 52 51 54 56 56 56 57 57 57 58 59 59 59 58 58 60 61 61 60 59 56 53 54 58 60 61 64 64
49 49 50 50 50 50 49 49 50 51 52 52 53 53 52 54 57 58 57 58 59 59 60 60 61 62 60 60 61 62 62 62 63 62 60 59 60 61 62 64 65 65
50 51 52 53 52 51 51 50 51 51 52 53 53 53 54 57 59 59 59 59 60 61 62 62 63 63 61 61 63 63 62 63 66 66 65 64 64 65 65 66 65 66
52 53 54 53 52 51 51 50 51 52 54 55 56 56 57 59 60 60 60 61 62 63 64 64 65 63 61 63 65 64 64 65 67 68 68 67 67 67 67 66 66 66
55 55 55 54 53 53 52 52 54 56 57 59 59 60 60 60 61 61 62 63 64 65 65 66 65 63 62 65 67 65 65 66 68 69 69 69 69 69 68 67 67 66
56 56 57 56 56 57 56 57 59 60 61 62 62 62 62 62 62 63 64 65 66 66 67 67 66 65 66 68 68 67 67 68 68 69 70 70 70 70 69 68 67 66
58 59 60 60 61 61 61 62 63 63 64 64 64 64 64 64 64 65 66 67 68 68 68 68 68 68 69 70 70 69 69 70 69 69 70 71 70 70 69 68 67 67
62 63 63 64 64 64 65 65 66 66 66 67 66 66 66 66 66 66 67 69 70 70 70 70 71 71 71 71 71 71 71 71 70 70 70 70 70 70 68 67 67 66
66 66 67 68 68 68 69 69 69 69 70 69 68 69 69 69 68 67 68 70 72 72 71 72 72 72 72 72 72 73 73 73 72 71 70 70 70 69 68 67 66 63
69 70 71 71 71 72 72 72 73 73 73 72 71 71 72 71 69 68 70 72 73 73 72 72 71 72 73 73 74 74 74 74 73 71 70 70 70 68 67 66 63 60
73 73 74 75 75 74 75 75 76 76 75 74 73 73 74 72 70 70 72 74 74 73 72 70 71 73 74 74 74 75 74 74 72 70 71 70 68 66 66 63 60 59
77 76 76 77 77 77 77 78 79 79 78 77 76 75 75 72 70 70 72 72 73 73 71 70 71 74 75 74 74 74 73 72 71 71 71 69 66 65 63 61 59 59

ECMWFNIL_250_spd_045.txt.gz
Wind_Speed
16 15 15 15 15 14 13 13 15 17 18 19 20 22 23 24 25 26 27 28 29 30 31 32 33 33 33 33 33 34 35 36 37 38 39 40 40 40 40 40 39 38
17 17 18 18 18 17 16 15 16 18 19 20 22 23 24 25 27 27 28 30 31 32 33 34 35 34 34 33 33 35 36 37 39 40 40 41 41 41 42 42 41 41
18 19 19 20 20 20 20 18 18 19 20 21 23 24 26 27 28 29 30 32 33 33 34 36 36 35 34 34 35 37 38 39 40 41 42 42 42 43 43 43 44 44
21 21 20 21 22 22 22 21 20 21 22 23 24 26 27 28 29 30 31 33 34 35 36 37 37 36 36 36 38 39 40 41 41 42 43 43 43 44 45 45 47 47
23 23 22 22 23 24 24 24 23 24 24 24 25 27 28 29 30 31 32 34 36 36 37 37 38 38 38 39 40 41 41 42 43 44 44 45 45 46 48 48 48 47
26 26 25 25 25 26 26 26 27 27 27 27 28 29 30 31 32 32 33 35 37 38 38 38 39 39 40 40 42 43 43 44 45 45 46 46 47 49 50 50 49 49
28 29 29 28 28 28 29 29 30 31 31 31 30 31 32 33 34 34 35 36 38 39 40 40 39 40 41 42 43 44 45 46 46 47 47 47 48 51 52 51 51 52
30 31 31 30 31 31 31 32 33 34 34 33 33 33 34 35 35 36 36 38 39 40 42 42 41 41 42 44 45 46 47 48 48 49 50 49 49 52 53 53 53 54
32 32 32 32 32 33 33 34 35 36 36 35 35 35 36 36 37 37 37 39 41 42 43 43 41 42 44 46 47 48 49 49 50 51 52 51 50 52 54 54 55 56
33 33 33 34 34 34 35 35 37 37 37 36 37 37 38 38 38 38 38 40 41 43 43 43 42 43 46 47 48 50 51 51 52 53 54 53 52 53 55 56 56 57
35 35 36 36 36 37 37 37 38 38 38 38 38 39 39 40 40 40 40 41 42 43 43 44 43 44 47 48 50 51 52 53 54 55 55 54 53 54 57 58 58 58
37 38 38 38 38 39 39 39 40 40 40 40 40 41 41 42 42 42 42 42 42 43 44 45 45 46 48 49 50 52 54 55 55 56 57 56 55 56 58 59 59 59
40 40 40 40 41 41 41 42 42 42 41 41 42 43 44 44 44 44 43 43 44 44 46 47 48 48 49 49 50 52 54 56 57 58 58 58 58 59 59 59 59 59
42 42 43 43 43 44 44 45 44 44 44 43 43 44 46 46 45 45 45 45 45 46 48 49 50 50 51 51 51 53 55 57 58 60 61 60 60 60 59 59 59 60
45 45 45 46 46 46 46 47 46 46 45 44 45 47 48 47 46 46 46 46 47 49 51 52 52 53 53 53 53 54 56 57 60 62 63 63 61 60 59 60 60 61
47 47 47 48 48 49 49 48 47 46 46 46 48 50 49 49 48 48 49 50 51 52 54 54 55 55 55 55 56 56 57 59 61 63 65 64 63 61 60 61 62 63
49 49 49 50 50 50 50 50 48 48 48 49 51 53 52 52 51 52 53 54 54 55 56 57 57 57 58 58 58 59 60 61 62 64 66 65 63 63 63 64 65 65
51 51 52 52 53 52 52 51 50 50 51 53 54 55 56 55 54 56 57 57 57 58 58 59 60 60 60 60 61 61 61 62 64 66 66 64 63 64 66 67 67 67
54 53 54 54 55 55 54 53 52 53 54 56 58 58 58 58 58 59 59 59 60 61 61 61 62 62 62 63 63 63 62 63 66 66 65 65 65 66 68 69 69 69
56 56 56 57 57 57 56 55 55 56 58 59 61 62 62 62 62 62 62 62 63 64 64 64 64 64 65 65 65 64 63 63 65 67 66 65 66 68 71 71 70 70
59 59 59 60 60 59 58 58 58 60 62 63 65 65 65 65 65 65 65 65 66 66 66 66 66 66 67 67 66 66 64 63 66 66 64 64 69 72 71 68 67 67
63 63 63 63 62 61 61 61 62 64 66 67 68 68 67 67 67 68 68 69 69 68 68 68 68 68 69 68 68 66 65 64 65 64 63 67 70 66 60 59 63 66
67 67 67 66 65 65 64 64 66 68 69 70 70 70 69 69 70 70 71 71 71 70 70 70 70 70 70 70 69 67 65 65 64 63 63 63 60 54 52 56 62 66
72 71 70 69 68 68 67 67 69 71 72 73 73 72 72 72 72 72 73 73 73 73 73 72 71 71 71 71 70 68 65 65 64 62 60 56 53 55 57 57 61 66
76 75 73 72 71 71 71 71 72 74 75 75 75 75 75 75 74 74 75 76 76 76 75 74 73 72 73 73 71 68 66 66 63 62 62 58 55 56 57 57 62 66
79 78 77 75 74 74 74 74 76 77 77 77 77 77 77 77 77 76 77 79 80 79 78 76 74 74 74 74 71 68 67 66 65 65 65 60 56 58 60 61 62 61

ECMWFNIL_250_spd_048.txt.gz
Wind_Speed
14 12 12 12 12 12 13 14 15 15 15 16 16 16 17 17 18 18 19 19 20 21 22 23 24 25 26 27 29 30 31 33 35 36 37 38 39 40 41 42 41 40
16 15 14 14 14 14 14 15 16 16 17 17 18 19 19 20 20 21 21 21 22 23 24 24 25 26 27 29 30 31 32 34 37 38 39 39 40 42 43 44 44 42
18 17 16 16 17 16 15 16 17 17 18 19 20 21 22 22 23 23 23 24 24 25 25 26 26 27 29 30 31 31 33 35 38 39 40 41 42 44 45 46 46 46
20 20 19 19 18 18 18 18 18 19 20 20 21 23 24 25 26 26 26 26 26 27 27 28 28 29 30 31 31 32 34 36 39 41 41 42 43 45 47 49 49 49
23 22 22 21 20 20 20 21 20 21 22 23 24 25 27 28 28 28 27 27 28 28 29 29 30 30 31 31 32 33 35 37 40 42 42 43 45 47 49 50 52 52
26 25 24 23 23 23 23 23 22 23 24 25 26 27 29 30 30 30 29 29 30 30 30 31 31 32 32 32 33 34 36 39 41 43 44 45 47 49 51 52 54 55
28 28 27 26 26 26 26 26 25 24 26 27 28 28 30 31 31 31 31 31 31 32 32 33 33 34 34 33 34 35 38 40 43 44 45 47 49 51 52 53 55 57
30 30 30 30 29 29 29 28 27 26 27 29 29 29 30 31 32 32 33 33 34 34 34 35 36 36 36 35 35 36 40 42 44 45 46 49 51 53 54 55 56 58
32 32 32 32 32 32 31 30 29 29 29 31 31 30 31 32 33 34 35 35 36 36 37 37 38 38 38 36 36 38 41 44 45 46 47 50 52 54 55 56 57 59
35 34 33 33 33 33 32 31 31 31 32 33 32 32 32 33 34 36 36 36 37 38 39 39 40 40 39 37 38 39 42 45 46 47 49 51 53 55 56 57 59 60
36 35 35 34 34 34 33 33 33 34 35 35 34 33 34 35 36 37 38 38 39 40 40 40 41 41 40 39 40 42 44 46 47 48 50 52 53 55 57 59 60 61
37 37 36 35 35 35 35 35 35 36 37 37 36 35 36 37 38 38 39 39 40 41 41 41 42 42 41 42 43 45 47 47 48 49 51 52 54 55 57 59 61 62
39 39 38 38 38 37 38 38 38 39 39 39 39 38 38 39 39 40 40 41 42 42 42 43 44 44 44 45 45 47 48 48 49 51 51 53 54 56 58 60 61 62
41 41 41 41 41 41 41 41 41 41 42 42 41 41 40 40 41 42 42 43 44 44 44 45 46 46 46 47 47 48 49 51 51 51 52 53 54 56 59 60 62 64
43 43 44 44 44 44 44 44 44 44 44 43 43 43 42 42 43 44 45 46 46 46 45 46 47 47 48 49 50 50 51 52 53 52 53 53 55 57 59 62 64 62
46 47 47 47 47 47 47 47 46 46 46 45 44 45 45 45 46 47 48 49 49 48 47 48 49 49 50 51 52 52 52 53 54 54 53 54 55 57 59 62 62 54
49 49 49 49 49 49 49 49 49 48 48 47 46 47 47 47 48 50 51 52 51 50 50 51 51 51 52 54 54 54 54 55 55 55 54 55 55 56 58 60 54 43
52 52 51 51 51 51 51 51 51 51 51 50 50 50 49 49 51 52 54 54 54 53 53 54 54 53 55 56 56 57 57 56 56 56 55 55 56 56 56 54 44 34
55 54 54 54 54 53 53 52 53 53 54 54 54 53 52 52 53 55 56 57 57 56 56 56 56 56 57 58 59 60 60 58 58 58 57 56 57 56 55 51 42 37
58 57 58 58 57 56 55 55 55 56 57 57 57 57 56 55 56 57 58 60 60 60 59 59 59 59 60 60 61 63 64 61 60 60 59 58 58 58 57 52 46 43
61 61 62 61 61 59 57 58 58 59 60 60 60 60 60 59 59 59 61 63 63 62 62 62 62 62 62 62 63 65 66 66 64 62 61 60 60 61 60 56 51 48
66 66 66 65 64 62 60 60 61 63 64 64 63 63 63 63 63 63 65 66 66 65 65 65 65 65 65 65 66 67 68 69 68 65 64 63 62 62 62 59 55 54
70 70 69 68 67 66 64 64 65 66 67 67 66 66 66 66 67 67 68 69 68 68 68 69 69 68 67 68 68 69 70 72 72 69 67 67 65 64 65 62 57 55
74 72 71 71 70 70 69 69 70 70 70 70 69 69 69 70 70 71 71 71 72 72 72 72 71 70 70 70 71 71 72 73 73 71 70 69 67 66 68 64 55 52
77 75 74 73 73 73 73 74 74 74 74 73 72 72 72 73 73 73 74 74 75 75 75 74 74 73 73 73 73 73 74 75 75 73 72 71 69 68 67 62 54 51
79 79 78 77 77 77 77 77 78 78 78 77 76 74 73 74 75 75 76 77 78 78 77 77 77 76 76 75 75 76 77 76 76 75 73 71 70 67 64 59 53 49

ECMWFNIL_250_spd_051.txt.gz
Wind_Speed
17 15 15 14 14 12 12 11 11 10 11 11 11 11 11 11 13 15 17 18 18 19 19 19 20 21 22 23 24 25 25 26 26 28 30 32 33 34 35 37 38 40
20 18 17 16 16 15 15 14 12 12 12 13 13 14 13 14 15 17 18 19 20 20 21 21 22 22 23 24 25 26 27 27 28 29 31 33 35 35 36 38 39 41
22 21 19 18 18 18 18 16 14 14 14 15 15 16 17 17 18 19 20 21 21 22 22 23 23 24 25 25 27 28 28 28 29 30 32 35 36 37 38 39 41 43
23 22 22 21 20 20 20 19 17 16 16 17 17 18 19 19 19 20 21 22 23 22 23 24 25 26 26 27 28 29 29 29 29 30 33 36 38 39 40 42 43 45
25 25 24 23 23 23 22 22 20 20 19 19 19 20 21 21 21 21 22 23 23 23 24 25 27 28 28 28 29 30 31 30 30 31 34 37 39 40 42 44 45 47
26 26 26 25 25 25 25 24 23 23 22 22 22 23 24 23 22 23 24 24 24 24 25 27 28 29 29 29 30 31 31 31 31 33 35 38 40 42 44 46 47 50
27 27 28 28 28 28 28 27 25 25 25 25 25 26 26 25 24 24 25 26 26 26 27 28 29 30 31 31 31 31 32 32 33 34 37 39 41 43 45 47 49 51
28 29 29 29 29 30 30 29 28 28 28 28 28 28 28 27 26 26 26 27 27 28 28 29 31 32 32 32 32 33 33 34 35 36 38 40 42 44 46 48 50 52
31 31 31 31 31 31 30 30 29 29 30 31 31 30 29 29 28 28 28 28 29 29 30 31 32 33 34 34 34 35 35 35 36 37 38 40 42 45 46 48 50 52
33 33 33 33 32 31 31 30 30 31 31 32 32 31 31 30 29 30 30 30 30 31 32 33 34 34 35 36 37 37 37 37 37 38 39 41 43 45 47 49 50 51
35 34 34 34 33 33 32 32 32 32 32 32 33 32 32 31 30 31 32 32 32 33 35 35 35 36 37 38 39 40 40 40 40 41 41 42 44 45 47 49 50 51
37 37 36 36 35 35 34 34 33 33 33 34 34 34 34 34 32 32 34 34 34 35 37 37 37 37 38 40 41 42 43 43 43 43 44 44 45 46 47 49 51 52
39 38 38 37 37 37 36 36 35 35 35 35 36 36 36 36 35 34 35 36 37 37 38 38 38 39 40 41 43 44 45 45 46 46 47 47 47 47 48 49 52 54
39 39 38 38 38 38 38 38 37 37 37 38 38 38 39 38 38 37 37 38 39 38 38 39 40 41 41 42 44 46 47 47 48 49 50 50 50 49 48 50 52 54
40 40 40 40 40 40 40 40 40 40 40 40 40 41 41 41 40 39 39 40 40 39 39 41 42 43 43 43 45 48 49 50 50 51 52 53 53 52 51 52 53 53
43 43 43 43 43 43 44 43 43 43 43 43 43 43 43 43 41 41 41 41 41 41 42 43 45 46 45 45 47 49 51 51 52 53 54 55 56 56 56 56 54 53
45 45 45 46 46 46 46 46 46 46 46 46 46 46 45 44 43 43 43 43 43 44 44 46 47 48 48 48 49 51 53 54 54 55 56 57 58 59 60 60 57 54
48 48 48 48 48 48 47 47 47 48 49 49 49 48 47 46 46 45 45 45 46 46 47 48 49 50 51 51 52 54 55 56 56 57 57 58 60 62 63 63 60 56
52 51 51 51 51 50 50 49 50 51 52 52 51 51 50 49 49 48 48 48 49 49 50 50 51 53 54 55 56 57 58 58 58 59 59 60 62 64 65 65 63 59
55 55 55 54 54 53 52 52 53 54 54 54 54 53 52 53 52 51 51 52 52 52 52 53 54 56 57 58 59 60 60 60 60 60 61 62 64 66 67 67 65 61
59 59 59 58 57 56 55 55 56 57 57 57 57 56 55 56 55 55 55 55 55 55 55 56 58 59 60 61 62 63 63 63 62 63 63 65 66 67 68 68 66 63
64 63 62 62 61 59 59 59 60 60 60 60 60 59 59 59 59 59 59 59 59 59 59 60 61 62 63 64 65 66 66 66 65 65 66 67 68 69 69 68 67 65
68 67 66 65 65 64 64 64 64 64 64 63 62 62 62 63 63 64 63 62 62 63 63 64 65 66 67 67 68 69 69 69 69 68 68 68 69 70 70 69 68 65
71 70 69 69 69 69 69 69 69 68 67 67 66 66 67 68 68 68 67 67 67 67 67 68 68 69 70 70 71 71 71 72 71 70 70 70 70 71 71 69 68 66
69 71 71 71 72 73 73 73 72 71 71 71 70 69 71 72 72 72 72 72 71 70 71 71 71 72 72 72 73 73 73 74 73 73 72 72 72 71 69 68 67 65
65 68 69 70 72 74 75 74 74 74 74 74 73 73 74 74 75 75 74 74 74 74 74 73 74 75 75 75 75 75 74 74 73 74 74 73 72 69 66 67 66 63

ECMWFNIL_250_spd_054.txt.gz
Wind_Speed
17 16 15 15 14 12 11 11 10 9 7 7 7 7 6 7 8 9 11 12 14 14 15 16 15 15 15 16 17 19 20 21 23 24 24 25 27 28 30 33 35 37
20 19 18 17 16 15 14 14 13 12 11 10 10 10 10 10 10 11 13 14 16 17 17 17 17 17 16 17 18 19 20 21 22 24 26 27 28 29 31 33 34 36
23 21 20 19 19 18 17 17 16 15 14 14 14 14 13 13 14 14 15 16 18 18 18 19 19 19 18 18 19 20 21 22 22 24 26 28 29 30 31 33 35 36
25 23 22 22 22 21 20 19 18 17 17 17 17 18 17 17 18 18 18 19 20 21 20 21 21 21 21 20 20 21 22 23 23 24 26 28 29 31 32 34 36 36
26 25 25 24 24 24 24 22 21 20 20 20 20 21 21 21 21 22 22 22 22 23 23 23 23 23 23 22 22 22 23 23 24 25 26 28 30 31 33 35 37 38
27 27 26 26 26 26 26 25 23 23 22 22 23 23 24 24 24 25 26 25 25 25 25 25 25 25 26 25 24 24 24 24 25 26 27 28 30 32 34 36 38 39
28 28 28 27 27 27 26 25 25 25 24 24 25 26 26 27 27 28 29 29 28 27 27 27 26 27 28 27 26 26 26 26 26 27 28 29 31 33 35 37 38 39
29 29 29 29 28 27 26 26 25 26 26 26 27 28 29 29 29 30 31 30 29 29 29 29 28 29 29 29 29 28 28 28 28 29 29 30 32 33 36 38 40 40
29 30 30 30 29 29 28 27 26 27 27 28 29 29 30 31 30 31 31 31 30 30 31 31 31 31 31 31 31 30 30 30 30 30 31 31 33 35 37 40 42 42
30 30 31 31 31 30 29 29 29 29 30 30 30 30 31 31 31 32 31 31 30 30 32 33 33 33 33 33 33 33 32 32 33 33 33 33 34 36 38 41 44 45
32 32 32 32 32 32 31 31 31 31 31 32 32 32 32 32 32 32 32 31 31 32 34 35 36 36 35 35 35 35 34 34 35 35 35 35 36 37 39 42 45 46
34 34 34 33 33 33 34 34 34 33 33 33 33 33 34 34 33 33 33 33 33 34 35 36 37 38 38 37 37 37 37 36 37 37 37 38 39 40 41 43 46 48
36 36 35 34 35 36 36 36 36 35 34 34 34 35 35 35 35 34 34 34 35 36 37 37 39 40 40 39 38 39 39 39 39 39 39 40 41 42 43 45 47 49
39 38 37 37 37 38 38 38 37 36 36 36 36 36 36 36 36 36 36 36 37 38 38 39 40 41 42 41 40 40 41 42 42 42 41 42 43 44 45 46 48 50
40 40 40 40 40 40 39 39 38 38 38 37 37 37 37 37 37 38 38 39 40 40 41 41 42 43 43 42 42 42 43 44 45 45 44 45 46 47 48 49 50 52
41 40 41 41 41 41 40 40 39 39 39 39 39 39 39 39 40 41 41 42 42 42 43 43 44 44 45 44 44 44 45 46 47 48 48 48 49 51 52 53 53 54
42 42 43 43 43 42 42 42 42 42 42 42 42 42 42 42 43 43 43 43 44 44 44 45 46 46 47 47 47 48 48 48 49 51 51 52 53 54 55 57 57 57
45 45 46 46 45 45 44 44 44 45 45 45 45 44 44 44 45 45 45 45 46 46 46 47 48 49 49 49 49 51 51 51 51 53 54 55 56 58 59 60 61 61
48 48 48 48 48 47 46 46 46 47 48 47 47 46 46 47 47 46 47 47 48 49 49 50 51 52 52 52 52 54 54 53 54 55 57 58 60 61 62 63 64 64
50 51 51 51 50 50 49 49 49 50 50 50 50 49 49 50 49 49 50 50 51 52 52 53 54 55 56 56 56 57 57 57 57 58 59 61 62 64 64 65 67 66
55 55 55 54 53 53 52 52 53 53 54 53 53 53 53 53 53 54 54 54 54 55 56 57 58 59 60 60 60 60 60 60 61 62 63 64 65 65 66 67 68 69
59 59 58 58 57 56 56 57 57 57 57 57 56 56 57 57 57 58 58 58 58 58 59 61 62 63 63 64 64 64 64 64 63 64 65 66 67 67 68 69 70 70
62 61 61 61 60 60 60 61 61 61 61 61 61 60 61 61 61 61 62 62 62 63 63 64 65 66 66 67 67 67 67 67 66 67 68 68 68 69 69 70 71 71
60 60 61 61 61 62 63 63 63 63 63 63 63 64 64 64 65 65 64 64 65 66 66 66 67 67 68 69 69 69 69 68 68 68 68 67 68 69 70 70 70 70
54 55 57 58 59 60 61 61 62 62 62 62 63 63 63 64 64 64 64 64 64 64 65 65 66 66 66 67 67 68 68 68 67 66 66 65 64 65 66 65 65 65
48 50 50 51 52 53 54 54 55 56 56 56 57 57 57 58 58 58 59 59 60 60 60 60 61 62 61 62 63 64 64 64 63 62 62 60 59 59 59 58 58 58

ECMWFNIL_250_spd_057.txt.gz
Wind_Speed
15 14 14 12 11 10 10 10 9 8 7 6 6 6 6 7 7 7 9 11 12 13 14 15 15 14 14 15 16 17 18 18 20 20 21 22 23 24 25 25 26 27
18 18 17 16 14 13 13 13 12 11 11 10 10 9 9 9 9 10 11 13 14 16 16 17 17 17 17 17 17 18 18 19 20 20 21 23 24 25 26 26 26 27
20 20 20 19 18 17 16 16 15 15 15 15 14 14 14 13 13 14 14 15 16 18 19 19 19 20 19 19 18 19 19 20 20 21 22 23 25 26 27 27 27 27
23 22 21 21 20 20 19 19 18 17 18 18 19 18 18 18 18 18 18 18 19 20 21 21 21 22 21 21 20 20 20 21 21 22 23 24 26 27 28 28 28 28
24 23 23 22 22 22 22 22 21 20 20 20 21 21 21 21 21 22 22 22 22 22 23 24 24 24 23 22 22 21 21 22 23 24 24 25 27 28 29 30 30 29
24 24 24 23 24 24 25 24 23 23 23 22 23 23 23 23 24 24 25 25 25 25 25 25 26 25 25 24 24 23 23 23 24 25 26 26 27 29 30 31 31 32
25 25 24 24 25 25 26 25 25 24 24 24 25 25 24 25 25 25 26 27 27 26 26 26 27 27 26 25 25 25 24 24 25 27 28 28 29 30 32 33 33 34
26 26 26 26 26 26 26 26 25 25 25 26 26 26 26 26 26 26 27 28 28 28 27 27 28 28 27 27 27 27 27 26 27 28 29 30 31 32 33 35 35 35
28 28 28 28 28 28 27 27 26 26 27 28 28 27 27 27 27 28 28 29 29 29 29 28 29 29 29 28 28 29 29 28 28 29 30 31 32 34 35 36 38 38
30 30 30 30 30 30 28 27 26 27 28 29 29 29 29 29 29 29 30 30 30 30 30 30 30 30 31 31 30 31 32 31 30 30 31 32 34 35 36 38 40 41
32 32 32 32 32 31 29 28 28 29 30 30 30 30 30 31 31 31 32 32 32 32 32 32 31 31 32 33 33 32 33 33 33 32 33 34 35 36 38 40 41 43
34 34 34 33 32 31 30 30 30 31 31 31 31 31 31 32 32 33 33 34 33 34 34 33 33 33 34 35 34 34 34 35 36 36 35 36 37 38 40 41 43 45
36 35 35 34 33 32 32 32 33 33 33 32 32 33 34 34 35 35 36 36 36 36 36 35 34 34 35 36 36 36 36 36 38 39 39 39 39 41 42 44 45 47
37 35 34 34 33 33 34 34 34 34 34 34 34 35 36 37 37 37 38 38 38 37 37 36 36 37 37 38 38 37 37 37 39 40 41 42 42 43 45 46 48 49
37 35 35 34 34 35 35 35 35 36 36 37 37 37 38 39 39 39 40 39 39 38 38 39 39 40 40 39 39 39 39 39 40 42 43 44 45 46 48 49 50 52
37 36 36 36 36 37 37 36 37 37 38 38 38 39 39 39 40 40 40 40 40 40 41 41 42 42 41 41 41 41 41 42 43 44 45 47 48 50 51 52 53 54
38 38 37 37 38 38 38 38 38 38 38 39 39 39 39 40 41 41 42 42 42 43 43 43 43 43 43 43 43 43 44 45 46 46 48 49 51 53 54 55 56 57
40 39 39 39 39 39 39 39 39 40 41 41 41 41 41 42 43 43 43 44 44 44 45 45 45 45 45 45 46 46 47 48 49 50 51 52 54 55 57 58 59 60
42 41 42 43 42 42 42 42 42 43 44 44 44 44 44 45 45 45 45 46 46 47 47 47 48 48 49 49 49 49 49 50 52 53 55 56 57 58 60 61 62 62
45 45 45 46 45 45 45 45 46 46 46 46 46 46 47 47 47 47 48 48 49 49 50 50 51 51 52 52 53 53 53 54 55 56 58 60 61 61 62 62 63 63
48 47 48 48 47 47 48 48 48 49 49 49 48 48 49 50 50 51 51 52 52 53 53 54 55 55 55 56 56 57 57 58 58 59 60 61 62 62 62 62 62 61
51 50 50 51 51 51 51 52 52 52 52 52 52 52 53 53 54 55 55 55 56 57 57 58 58 58 59 60 60 60 60 60 60 59 59 60 60 60 59 58 58 57
54 54 54 55 55 56 56 57 56 56 56 56 56 56 57 58 58 58 59 59 60 60 60 60 60 59 60 60 61 60 59 57 56 55 54 54 54 54 53 52 51 50
57 57 57 58 58 59 59 59 58 57 57 57 57 58 58 59 59 58 58 58 58 58 58 57 56 56 56 56 55 55 53 51 50 48 47 47 48 48 48 47 46 45
55 55 55 55 56 56 55 54 54 53 53 53 53 53 53 53 53 52 52 52 52 52 51 50 50 49 49 49 49 49 48 48 46 45 44 44 44 44 44 44 44 44
48 48 48 48 48 48 48 47 47 47 46 46 46 46 46 46 46 46 46 47 47 46 45 45 44 44 43 44 45 45 46 47 45 44 44 44 44 43 43 43 43 43

ECMWFNIL_250_spd_063.txt.gz
Wind_Speed
19 18 17 17 16 15 14 13 12 10 9 8 7 6 6 5 5 5 5 5 7 8 8 9 10 11 12 13 15 16 17 16 16 16 16 17 18 20 20 21 21 22
22 21 19 18 17 17 15 14 13 11 10 9 9 9 8 8 8 8 8 9 10 10 11 11 11 12 12 14 16 17 17 18 18 17 17 18 19 20 21 22 23 24
24 22 21 19 18 18 17 15 14 12 12 11 11 11 11 11 11 11 11 12 12 12 13 13 13 13 14 15 16 17 18 19 19 19 19 19 20 21 22 23 25 25
25 23 22 21 20 19 17 16 15 14 14 14 14 14 13 13 13 14 14 14 15 14 14 14 15 15 15 16 17 17 18 19 21 21 22 22 22 23 23 24 26 27
26 24 23 23 22 20 19 18 17 17 17 17 17 16 15 15 15 16 16 16 16 16 16 16 16 16 16 17 18 18 19 20 21 23 24 24 24 24 25 26 27 28
27 26 25 24 23 22 22 21 21 21 20 20 19 18 18 18 18 18 18 18 18 18 18 18 17 18 18 18 19 20 21 21 22 24 25 26 27 26 26 27 28 30
30 28 27 26 25 25 25 24 23 22 22 21 21 20 20 20 20 20 20 20 20 20 20 19 19 19 20 20 21 22 22 23 24 25 26 27 28 28 28 29 30 31
32 31 30 29 28 28 26 25 24 23 23 22 22 22 22 22 22 21 22 22 22 22 22 21 21 22 22 23 23 23 24 25 26 26 27 27 28 29 30 31 32 33
35 33 31 30 29 27 26 25 24 24 24 24 23 24 24 24 23 23 23 23 24 24 23 23 23 24 24 24 24 25 26 27 28 28 28 28 28 29 31 33 34 35
36 34 32 30 28 27 26 25 25 25 25 25 25 25 24 24 24 24 24 24 25 25 25 25 24 25 26 25 26 27 28 29 30 30 29 29 30 31 33 34 35 36
36 35 32 30 29 28 27 26 26 26 26 26 26 25 25 25 25 25 26 26 26 25 25 26 26 26 26 27 27 28 29 30 31 32 32 31 33 34 35 36 37 37
36 35 33 31 30 28 27 27 27 28 28 27 27 27 27 27 27 27 27 27 27 26 26 26 27 27 27 28 29 30 31 32 33 34 35 35 36 37 38 38 39 40
36 34 32 31 30 28 28 28 29 29 28 28 28 28 28 28 28 28 28 27 27 27 27 27 28 28 29 29 31 32 33 34 35 36 37 38 38 39 40 41 42 43
35 34 33 32 30 29 29 29 30 29 29 28 28 29 30 30 29 29 29 28 28 28 29 29 29 30 31 31 32 33 34 35 36 37 39 40 41 41 42 44 45 46
37 36 34 33 32 31 31 31 31 30 30 29 29 30 30 31 31 30 29 29 29 29 29 30 31 31 32 32 33 34 36 37 38 39 41 42 43 44 45 46 48 49
39 38 36 35 33 33 32 32 32 31 31 31 30 30 30 31 32 31 30 29 29 30 30 31 32 32 33 34 35 36 37 39 40 41 42 44 45 46 48 50 51 53
40 39 38 36 35 34 34 34 33 33 33 32 31 30 30 31 32 32 31 30 30 31 32 33 34 34 35 36 36 37 39 40 42 43 45 47 48 49 51 52 54 56
41 39 38 37 36 35 35 34 34 35 35 34 33 32 31 32 32 32 32 33 33 33 34 35 35 36 36 37 38 39 40 42 45 47 48 50 52 53 54 55 56 57
41 39 39 38 37 36 35 35 36 36 36 35 34 33 34 33 33 33 34 35 36 35 35 36 37 38 38 39 40 41 43 46 48 50 52 53 55 56 57 57 56 55
41 40 39 38 37 37 36 36 37 37 36 36 36 35 36 35 35 35 36 36 38 38 38 38 39 40 40 41 43 44 47 49 52 53 55 56 57 56 55 54 51 49
41 41 40 39 38 38 37 38 38 38 37 37 37 36 36 36 36 37 37 38 39 41 41 41 41 42 44 45 47 48 50 52 54 55 56 56 55 52 50 47 45 44
41 41 40 40 39 39 39 39 39 38 38 38 38 38 38 38 38 39 39 40 41 42 44 44 45 46 47 49 50 51 52 53 53 53 52 51 49 46 43 42 42 42
43 42 42 41 41 41 41 40 39 39 38 38 39 39 39 39 40 41 41 42 43 45 46 47 48 50 51 52 52 52 52 50 48 47 46 44 42 40 39 40 41 41
43 43 43 42 41 41 41 40 39 39 39 39 40 41 41 41 41 42 44 45 46 48 49 50 51 52 52 52 50 48 46 43 41 40 39 39 37 36 37 39 40 40
43 43 43 42 41 41 41 41 40 40 40 40 41 42 43 43 44 45 47 48 49 50 52 52 52 51 49 47 44 41 39 37 36 35 34 33 33 33 35 37 37 38
45 45 44 43 43 42 42 42 41 41 42 42 43 44 45 46 47 49 50 51 51 51 51 49 47 44 42 39 37 36 34 33 32 31 30 30 32 33 34 35 36 37

ECMWFNIL_250_spd_066.txt.gz
Wind_Speed
22 22 21 21 20 20 20 19 17 16 15 14 13 13 13 12 11 11 10 9 8 7 7 7 8 9 11 12 13 15 15 16 16 17 18 19 21 22 23 23 24 24
24 23 23 22 21 21 20 19 17 16 15 15 14 14 14 13 12 12 11 11 11 10 10 10 10 11 12 13 14 15 16 16 16 18 19 20 22 23 24 24 24 25
25 25 24 23 22 22 21 19 17 16 16 16 16 15 15 14 13 13 13 13 13 12 12 12 13 13 13 14 15 15 16 17 18 18 19 21 22 23 24 24 24 25
27 26 25 24 24 23 22 20 19 18 18 18 17 17 16 16 15 15 15 15 15 15 15 15 15 15 15 15 15 16 16 17 19 19 20 21 22 23 24 24 25 25
29 27 27 26 25 24 23 21 21 21 20 19 19 18 18 18 18 17 17 16 16 17 17 17 17 17 16 16 16 16 17 18 19 20 21 22 23 24 24 25 26 27
31 30 29 27 26 25 24 23 23 23 22 22 21 20 20 19 19 19 19 18 18 18 19 19 19 18 18 17 17 16 17 18 19 20 22 23 24 25 25 26 27 28
32 31 30 29 28 27 26 26 25 25 24 24 23 22 21 21 21 21 20 20 20 20 21 21 21 20 19 19 18 18 18 18 19 20 22 24 26 27 28 29 29 30
33 32 32 31 31 30 29 28 28 27 26 25 24 24 23 23 23 23 22 22 22 22 22 22 22 22 21 21 20 20 20 20 20 22 24 26 27 28 30 30 31 31
36 35 34 34 34 33 32 31 29 29 28 27 26 26 26 26 26 25 24 24 24 23 23 23 23 23 23 23 22 22 22 22 22 23 25 27 28 29 31 31 32 33
39 38 37 37 36 35 34 33 31 31 30 29 29 29 28 28 27 26 25 25 25 25 24 24 24 24 24 24 24 23 23 24 25 26 27 28 29 30 31 32 33 35
41 41 40 39 38 37 36 34 34 33 32 31 31 30 29 29 28 27 26 26 26 26 25 25 25 25 25 25 25 25 25 26 27 28 28 29 30 31 32 33 35 36
42 42 42 41 40 39 38 37 36 36 35 33 32 31 30 30 29 28 27 26 26 27 27 26 26 25 25 26 26 27 27 27 28 29 29 30 31 32 34 35 36 37
42 42 41 41 42 41 40 40 39 38 36 35 33 32 31 30 29 28 28 27 27 27 27 27 26 25 26 26 27 27 28 28 29 30 31 32 33 34 36 37 38 40
42 41 41 41 41 42 43 42 41 39 37 35 34 32 31 30 29 29 29 28 28 27 27 27 26 26 26 27 27 28 29 30 31 32 33 34 35 36 37 39 41 43
43 42 41 40 40 42 43 42 41 39 37 35 33 32 30 30 30 29 29 28 28 28 27 26 26 26 27 28 28 29 30 32 33 34 34 36 37 38 40 42 44 47
45 44 43 41 40 40 40 40 39 38 36 34 32 31 30 30 30 29 28 28 28 28 28 27 27 27 28 29 30 30 31 32 33 35 36 37 39 41 43 45 47 49
46 46 44 42 40 39 39 38 37 37 35 34 32 31 30 30 30 29 28 28 28 28 29 29 29 29 29 29 30 31 32 33 34 36 37 39 41 44 46 48 49 50
46 46 45 44 41 39 38 38 37 37 36 34 33 31 31 32 31 30 29 29 29 30 30 31 30 30 30 30 31 32 34 35 36 37 39 42 44 46 48 49 50 49
45 46 46 45 42 40 39 38 38 38 37 35 34 33 33 33 33 32 32 31 31 31 32 32 32 31 31 31 32 33 35 37 38 40 42 44 46 48 49 49 47 43
44 45 45 44 42 41 40 40 40 39 38 37 36 35 35 34 34 34 34 34 32 32 32 32 32 32 32 32 33 35 37 39 41 43 45 47 48 48 46 44 41 37
42 43 43 43 42 41 40 40 40 40 39 38 37 37 36 35 35 36 36 35 35 35 34 32 32 33 33 34 35 37 39 41 44 46 47 47 46 44 41 38 35 32
41 41 42 42 42 42 41 41 41 40 39 38 38 38 38 37 37 36 36 37 37 37 35 33 33 34 35 35 36 39 42 44 46 47 47 45 41 38 35 33 30 28
39 41 42 42 42 42 42 41 41 40 39 39 39 39 39 38 38 37 38 38 38 37 36 34 35 36 36 37 39 41 44 46 47 46 43 39 35 33 31 29 27 27
39 40 41 42 42 42 42 41 41 40 39 39 39 39 39 39 39 39 39 39 38 38 38 37 36 37 38 39 41 44 45 45 44 41 37 33 31 30 29 27 27 28
39 40 41 42 42 42 42 42 41 41 40 40 40 41 41 41 40 39 39 39 38 39 39 39 38 39 40 42 43 44 43 41 38 35 31 29 29 28 28 29 29 30
40 41 41 42 43 43 43 42 42 42 42 42 42 42 42 41 40 40 40 40 40 40 40 40 40 41 42 43 42 40 37 34 32 30 27 26 27 27 28 29 29 30

ECMWFNIL_250_spd_069.txt.gz
Wind_Speed
22 21 20 19 18 17 17 17 17 17 16 16 15 15 14 13 13 12 11 10 9 8 7 7 8 9 10 12 13 14 15 15 16 16 17 18 20 21 22 23 24 25
23 23 22 21 20 19 19 18 18 18 17 17 16 16 16 14 14 13 13 12 10 10 10 10 11 11 12 13 14 14 15 15 15 16 17 19 20 22 23 24 25 26
25 24 24 22 21 21 21 20 19 19 19 18 18 18 17 16 15 14 14 13 12 11 12 13 13 14 14 15 15 15 15 15 15 16 17 19 20 22 24 24 25 27
27 26 25 24 23 23 23 22 21 20 20 19 19 19 18 17 16 15 15 14 14 14 14 15 15 16 16 16 16 16 16 16 16 17 18 19 21 23 24 25 25 27
29 27 26 25 24 24 23 22 22 22 21 20 20 20 19 19 18 17 16 16 16 16 16 17 17 17 18 18 18 18 17 17 17 18 19 21 22 23 24 25 25 27
30 28 27 26 25 25 24 23 23 23 22 21 21 21 21 20 20 19 18 18 18 19 19 18 18 19 19 19 19 19 19 19 19 19 20 21 22 23 24 25 26 27
31 29 28 27 26 25 25 25 25 25 24 23 23 22 22 22 21 21 21 21 21 21 21 20 20 20 20 21 21 21 21 20 20 21 21 21 22 23 24 25 26 28
31 30 29 28 27 26 26 27 27 27 26 25 24 24 24 23 23 24 24 23 23 23 23 23 22 22 22 22 22 22 21 21 21 21 21 21 22 23 25 26 27 28
33 32 31 30 29 29 29 29 29 29 28 26 26 26 25 25 25 26 25 25 25 25 25 25 25 24 24 23 22 22 21 21 21 20 20 21 22 24 25 26 28 29
35 36 35 34 32 32 31 31 31 30 29 28 28 27 27 27 27 27 27 27 27 27 28 28 28 27 26 24 23 21 21 20 20 20 21 22 23 24 26 27 28 29
37 38 38 37 35 34 33 33 33 32 31 30 30 29 29 29 29 28 28 29 29 29 29 29 29 28 27 25 23 22 21 20 20 20 21 23 24 25 26 27 29 30
39 40 40 39 38 36 36 35 35 34 33 33 32 31 31 31 30 30 30 30 30 30 30 30 29 28 27 25 24 23 22 20 20 21 21 23 25 26 27 28 29 31
41 41 40 40 40 39 39 38 37 36 36 35 34 34 33 32 32 32 32 31 31 31 31 30 29 27 26 25 24 23 22 22 22 22 22 23 25 27 28 29 30 32
42 41 41 40 41 42 42 41 40 39 38 37 37 36 35 34 34 33 33 33 32 31 30 29 27 26 25 24 24 24 24 24 23 23 24 25 26 28 29 30 32 34
40 41 42 42 42 44 44 43 42 41 40 39 39 38 36 36 35 35 34 33 32 31 30 28 26 24 24 24 24 25 26 26 25 25 26 27 28 29 30 32 34 37
40 42 44 44 45 46 45 44 42 41 41 41 40 39 39 38 37 36 34 33 31 30 28 27 25 24 24 25 26 27 27 27 27 27 28 29 30 30 32 34 37 39
41 42 44 46 47 47 45 44 42 41 41 40 40 39 39 39 38 36 34 32 30 29 28 27 26 26 26 27 28 29 29 29 29 29 29 30 31 32 34 36 39 41
41 41 42 45 47 48 47 44 42 41 40 39 39 38 38 37 37 35 33 31 30 29 29 28 28 28 28 28 29 30 30 30 30 31 31 32 33 34 36 38 41 42
39 39 41 42 45 47 47 45 44 42 41 39 37 36 36 36 35 34 32 31 31 30 31 31 30 30 30 30 30 31 31 31 31 32 33 34 34 36 38 40 42 41
38 38 39 40 42 45 46 47 45 43 41 38 36 35 36 36 35 34 33 33 32 32 33 33 32 32 32 31 31 32 32 32 32 33 34 35 37 39 41 42 42 38
36 36 37 38 40 42 45 47 46 44 41 39 37 36 36 36 35 35 35 35 34 34 34 34 34 33 33 32 32 33 33 33 34 34 35 37 38 41 42 42 40 34
36 35 35 35 37 40 43 45 45 44 42 40 39 39 38 38 37 37 37 36 36 36 36 35 34 34 34 34 34 34 34 34 35 35 36 38 40 42 43 40 35 30
36 34 33 33 34 37 40 43 44 44 42 41 41 41 40 40 40 39 39 39 39 38 36 35 34 34 34 35 35 35 35 36 36 37 38 39 42 43 41 37 32 27
37 34 33 32 33 35 38 40 42 43 43 43 43 43 43 43 42 41 41 41 40 39 37 36 34 34 35 36 36 36 37 37 37 38 39 41 43 42 39 33 29 26
38 35 33 32 33 35 36 38 40 42 43 44 45 45 45 44 43 43 42 42 41 39 38 37 35 35 36 36 36 37 38 38 39 39 40 42 42 40 35 31 27 25
39 36 34 33 34 35 35 37 39 41 42 44 45 45 45 45 45 44 43 42 41 39 38 38 37 35 36 36 37 38 39 39 40 41 42 42 41 37 33 29 27 25

ECMWFNIL_250_spd_072.txt.gz
Wind_Speed
21 19 19 18 17 17 15 14 13 13 12 12 11 9 8 8 8 9 9 9 8 7 7 7 8 9 11 12 14 15 16 17 17 17 17 18 19 20 21 22 23 24
23 21 21 20 20 19 17 16 16 15 15 14 13 12 11 10 10 10 11 10 10 10 9 9 9 11 12 13 15 16 17 18 18 19 19 19 20 21 21 22 23 24
24 23 22 22 22 20 19 19 19 18 17 16 15 14 13 12 12 11 11 11 11 11 10 10 11 12 13 15 16 17 19 20 20 20 20 20 21 21 21 21 22 24
24 23 23 23 24 23 23 22 21 20 19 19 18 16 15 14 13 12 11 10 11 11 12 12 12 13 14 16 17 19 20 21 21 21 21 21 21 21 20 21 23 24
25 23 23 24 26 26 25 24 22 21 21 21 20 18 17 16 15 13 12 11 11 12 12 13 14 15 16 17 18 20 21 22 22 22 21 21 21 19 19 21 23 24
26 25 24 25 26 26 25 25 24 23 23 23 21 20 18 17 16 15 14 13 13 13 13 14 15 16 17 18 19 20 21 22 22 22 22 21 20 19 19 20 22 24
27 25 24 25 26 25 25 26 26 26 25 24 22 21 20 19 18 16 15 15 14 14 14 15 16 18 19 20 21 21 22 22 22 22 21 20 19 19 19 20 22 24
27 25 25 26 26 25 26 27 27 27 26 25 24 22 21 20 19 18 17 16 15 15 15 16 18 19 20 21 22 22 22 22 22 21 21 20 19 19 20 21 23 24
28 27 26 27 27 26 27 28 28 28 27 26 25 23 22 21 21 20 19 18 17 16 17 18 19 20 21 22 22 22 22 22 21 21 20 19 19 20 20 22 23 25
30 30 30 29 29 28 28 29 29 29 28 27 26 25 24 23 22 21 21 20 19 18 18 19 19 20 21 22 23 22 22 21 20 20 20 19 19 20 21 22 24 25
33 33 33 32 30 30 30 30 30 30 29 28 27 26 25 25 24 23 22 21 21 21 20 20 20 20 21 22 23 23 21 20 19 19 20 20 20 21 22 23 24 26
36 36 36 34 32 31 32 32 32 31 30 30 29 28 28 27 26 25 24 24 24 23 22 21 21 21 22 22 22 21 20 19 19 20 20 20 21 22 23 24 25 26
38 38 38 36 35 33 33 33 34 34 33 32 31 31 30 29 28 27 26 26 26 24 23 23 22 22 23 22 21 19 17 18 20 21 22 22 22 23 24 25 26 27
38 38 38 38 36 35 35 35 36 36 36 35 34 34 33 31 30 29 29 29 27 26 25 24 24 24 23 22 20 18 17 18 20 21 23 23 24 24 25 25 26 28
37 37 37 38 38 38 38 38 38 38 37 37 37 36 35 33 32 32 32 31 29 28 27 27 26 25 24 22 20 18 18 19 20 22 23 24 25 25 25 26 27 28
37 36 36 38 39 40 40 40 40 40 39 39 39 38 37 36 35 35 34 33 31 30 30 29 27 26 24 22 20 20 20 21 22 23 24 25 26 26 26 26 28 29
38 37 36 37 38 40 41 41 42 42 42 41 41 40 40 39 39 38 37 35 33 33 32 31 28 26 25 23 22 23 23 23 24 25 26 26 26 26 26 27 28 30
40 38 37 37 37 38 39 40 42 43 44 44 43 42 41 41 41 40 38 36 35 34 32 30 28 26 25 25 24 25 26 26 27 27 27 27 27 27 27 28 29 30
42 41 40 38 37 37 36 38 41 43 45 45 45 44 43 43 43 41 39 36 34 32 31 29 27 27 26 26 27 27 28 29 29 29 29 29 29 28 28 29 30 30
44 43 42 40 38 37 36 37 39 41 43 44 44 45 45 45 44 42 39 36 32 31 30 28 27 27 27 28 29 29 30 30 31 30 30 30 30 29 29 30 31 31
45 44 43 41 39 38 38 38 38 39 40 41 42 44 45 46 45 44 41 36 33 31 30 29 28 28 29 30 30 31 32 32 32 31 31 31 31 30 30 31 31 32
46 45 43 41 40 39 39 39 38 38 38 38 39 41 43 45 46 45 43 38 34 32 31 30 29 29 30 32 32 32 33 33 33 32 32 32 32 31 31 32 32 33
46 45 43 42 41 40 40 39 38 37 36 36 38 39 41 43 44 45 44 40 36 34 33 32 30 30 32 34 34 34 35 34 34 33 33 33 33 32 32 33 33 33
46 45 44 42 41 40 40 39 37 36 35 35 36 38 39 40 42 44 44 42 39 37 35 34 32 32 34 35 35 35 36 36 35 34 34 34 33 33 33 33 34 34
47 46 45 43 42 41 41 39 37 36 35 35 36 36 37 38 40 42 44 44 42 40 38 37 35 34 36 37 37 37 37 37 36 35 35 34 34 34 35 34 34 36
48 47 46 44 42 41 41 39 37 36 36 35 36 36 36 37 39 41 43 44 44 43 41 40 38 36 37 38 38 38 38 37 37 36 35 34 35 36 36 35 35 37

ECMWFNIL_250_spd_078.txt.gz
Wind_Speed
16 15 14 13 13 12 11 11 10 9 8 7 7 7 7 7 6 6 7 7 7 7 7 8 8 8 9 9 11 12 14 16 17 18 19 19 19 19 18 18 18 19
17 17 16 16 15 13 13 13 12 12 11 10 10 10 9 9 9 8 9 9 9 9 9 9 9 9 9 9 10 12 13 15 17 18 18 18 18 18 17 17 18 19
18 18 18 17 16 15 15 15 15 14 14 13 13 13 12 12 11 11 10 10 11 11 11 10 9 9 9 9 10 11 13 15 17 17 18 18 18 17 17 16 17 18
20 19 19 18 17 17 18 18 17 17 16 15 16 15 14 14 14 13 12 12 12 12 12 11 11 10 9 9 10 11 13 15 16 17 18 18 18 18 17 16 16 18
21 20 19 19 19 20 20 20 19 18 17 18 18 17 16 16 16 15 15 14 14 14 13 12 12 11 10 10 10 11 12 15 16 16 17 18 18 18 17 16 16 17
22 21 20 20 21 22 21 20 20 19 19 20 19 18 18 17 17 17 16 16 16 15 15 14 13 12 11 11 10 11 12 14 15 16 17 17 17 17 17 16 17 17
23 22 21 21 21 22 21 21 20 20 20 20 19 19 18 18 18 18 18 17 17 17 16 16 15 14 13 12 11 11 12 14 15 15 16 17 17 16 16 16 17 17
23 22 22 22 22 22 22 21 21 21 21 20 19 19 19 19 19 18 18 18 18 18 18 17 16 16 15 13 13 12 13 13 14 15 16 16 16 16 15 15 16 18
23 23 22 22 23 23 23 23 22 22 21 20 19 19 19 19 19 19 18 19 19 18 19 18 18 17 16 15 14 13 13 14 14 15 15 16 16 16 16 16 16 18
23 24 24 24 24 24 24 24 24 23 23 22 20 20 19 19 19 19 19 19 19 19 19 19 19 18 18 17 16 15 15 15 15 15 15 15 16 16 16 16 17 18
23 24 25 25 25 25 25 25 25 25 25 24 23 22 20 20 19 19 19 20 20 20 20 19 19 20 19 18 18 17 17 17 17 16 16 16 16 17 17 17 17 18
22 24 26 26 26 25 25 25 26 26 26 26 25 24 23 22 21 21 20 21 21 21 21 20 20 20 21 20 20 20 19 19 19 18 17 17 17 18 18 18 18 19
23 25 27 27 26 25 25 26 27 27 27 27 27 27 26 25 24 23 22 22 23 23 22 21 21 21 22 22 22 22 21 21 21 21 20 19 18 18 19 19 19 19
25 26 27 27 27 26 26 27 28 28 28 29 29 30 29 28 27 26 25 25 25 24 24 23 22 22 23 24 24 24 24 23 23 23 23 22 21 20 20 21 20 20
26 26 27 28 28 27 27 29 30 29 29 30 31 31 31 30 30 29 28 27 27 26 26 25 24 24 25 26 26 26 26 25 26 25 25 24 24 22 22 22 22 21
26 27 28 28 29 29 29 30 31 31 31 32 32 32 32 31 31 31 30 30 30 29 29 28 27 26 26 27 28 28 28 27 28 28 27 27 26 25 24 24 23 23
26 27 28 29 30 30 30 31 32 32 33 33 33 34 33 33 32 32 31 31 32 32 31 31 30 29 29 30 30 30 30 30 30 30 30 29 28 27 26 25 25 24
27 27 28 30 31 31 31 32 33 34 34 35 35 36 35 35 34 33 32 32 33 33 33 32 32 31 32 33 33 33 33 33 32 32 32 31 30 29 27 27 26 25
28 28 29 30 31 32 32 33 34 35 37 37 37 37 37 36 36 35 34 33 34 34 34 33 33 33 34 35 35 35 35 35 35 34 34 33 32 30 29 28 27 27
30 30 30 31 32 32 33 34 35 37 38 39 38 38 38 37 36 35 35 34 34 34 34 34 34 35 36 36 36 37 37 37 36 35 35 34 32 31 31 30 29 28
32 32 32 32 33 34 34 35 37 38 39 40 40 40 39 38 36 36 36 36 34 34 34 34 34 35 36 37 37 38 39 39 38 37 35 34 33 32 32 31 31 29
34 34 34 34 34 35 36 37 38 39 40 41 41 41 40 39 38 37 37 35 34 33 33 33 33 34 35 37 38 38 40 40 39 37 36 35 34 33 32 32 32 31
35 35 35 35 36 36 38 39 40 40 41 41 41 41 41 40 39 38 36 34 33 34 34 34 34 34 35 37 37 38 40 40 39 38 37 36 35 34 34 33 33 33
37 37 37 37 37 38 39 40 41 42 41 41 41 41 41 41 40 40 38 37 36 36 37 36 35 35 35 36 37 39 39 40 39 39 39 37 36 35 35 35 35 34
37 37 37 38 38 39 40 41 42 43 42 42 42 42 42 42 41 41 41 40 40 39 39 39 37 36 37 37 37 39 40 40 40 40 40 39 37 36 37 37 37 36
39 38 39 39 40 41 41 42 42 43 42 42 43 43 43 43 43 43 43 42 42 42 42 41 39 38 37 37 37 39 40 41 41 41 41 40 38 38 39 39 39 38

ECMWFNIL_250_spd_081.txt.gz
Wind_Speed
13 12 12 12 11 10 9 9 7 6 5 5 4 4 4 4 5 5 5 5 6 6 7 7 8 9 10 10 11 13 14 15 17 18 19 20 21 20 20 19 19 20
15 14 14 13 13 11 11 11 10 9 8 7 6 6 6 6 6 6 6 7 7 7 7 8 8 9 10 10 11 12 14 15 16 17 19 20 20 20 20 19 19 19
17 16 16 15 14 13 13 13 12 11 11 9 9 8 8 7 7 8 8 8 8 8 8 8 9 9 9 10 11 12 13 14 16 17 18 19 20 20 19 19 19 19
19 19 18 16 15 15 16 15 14 13 12 12 12 11 10 9 9 9 9 9 9 9 10 10 9 9 9 10 11 12 13 14 15 16 17 18 19 19 19 18 18 18
21 20 19 18 17 17 17 17 16 15 14 14 14 13 12 11 11 10 10 10 10 10 10 11 11 10 10 10 11 12 13 14 14 15 16 17 18 18 18 18 18 18
21 21 20 20 20 19 19 18 17 17 16 16 16 15 14 13 12 12 11 11 11 11 11 11 11 12 11 11 11 12 13 14 14 15 16 17 18 18 17 17 17 17
23 22 21 21 21 21 20 19 19 18 17 17 17 16 15 15 14 13 12 12 12 12 12 12 12 12 12 12 12 12 13 14 14 15 16 17 18 18 18 17 17 17
24 22 22 21 22 21 21 20 20 19 18 18 18 17 16 16 16 15 14 13 13 13 13 13 13 13 13 13 13 13 14 14 15 15 15 16 17 18 18 18 18 17
24 23 22 22 22 22 22 22 21 20 20 19 18 18 17 17 16 16 15 14 14 14 14 14 14 13 13 14 14 14 14 15 16 16 16 16 17 17 18 19 19 18
24 24 23 23 23 23 22 23 22 21 21 20 19 19 18 18 17 17 16 16 16 16 16 16 15 14 14 14 14 15 15 16 16 17 17 17 17 17 18 18 19 19
24 24 24 24 24 23 23 23 23 22 22 21 20 20 20 19 19 18 18 17 18 18 18 18 16 15 15 15 15 16 16 17 17 18 18 18 18 18 18 18 19 20
24 24 25 25 24 23 22 23 23 23 23 22 22 22 21 21 21 20 20 19 20 20 20 20 18 17 16 16 16 17 17 18 18 19 19 20 20 20 19 19 20 20
25 25 25 24 24 22 21 22 23 24 24 23 23 23 23 23 23 22 22 22 23 23 23 22 21 19 18 18 18 18 19 19 20 20 21 21 21 21 21 21 21 21
24 24 23 23 23 22 21 22 23 24 24 24 25 25 25 24 25 24 24 25 25 26 25 24 23 22 20 20 20 21 21 21 21 22 22 22 23 23 23 23 23 22
23 22 22 23 23 23 22 23 24 25 25 25 26 26 26 26 26 26 26 27 27 27 27 26 26 25 23 23 23 23 23 23 23 23 24 24 24 24 25 25 25 25
23 22 22 22 23 23 24 24 24 25 26 26 27 27 27 27 27 28 28 28 28 28 28 28 27 27 26 26 27 27 26 26 25 25 26 26 26 26 27 27 27 27
24 24 23 24 24 24 24 24 25 26 27 28 28 28 28 28 28 29 29 28 29 29 30 29 28 28 28 29 29 30 29 29 28 28 28 28 28 29 29 29 29 29
26 26 25 25 25 25 25 25 26 26 28 29 29 29 30 30 30 30 29 29 30 31 31 30 29 29 29 30 31 32 31 31 31 31 31 31 31 31 31 32 31 31
28 28 27 27 26 26 27 27 27 28 29 30 30 31 31 32 32 32 32 31 31 31 31 31 30 30 31 31 32 33 32 32 32 32 32 32 32 33 33 33 33 32
30 30 29 29 28 28 28 29 29 30 30 30 31 32 33 34 34 35 34 33 32 32 31 31 32 32 32 32 33 33 33 33 34 33 33 33 33 33 34 34 34 33
33 33 32 31 31 30 30 31 31 31 31 31 32 33 35 35 36 36 36 35 34 33 32 31 32 34 34 34 34 34 34 35 35 34 33 33 33 34 34 34 34 34
35 35 34 34 33 33 32 32 32 33 32 32 33 34 35 36 37 37 37 37 36 35 34 33 33 34 35 35 35 35 35 37 37 35 34 34 34 34 35 35 36 35
38 37 37 36 36 35 34 33 34 34 33 33 34 35 36 37 37 38 38 38 37 37 36 36 35 35 36 36 36 36 36 37 37 36 35 35 35 35 36 37 37 37
40 40 39 38 37 36 35 35 35 35 34 34 34 35 36 37 37 38 39 39 39 39 39 38 37 36 37 37 36 36 37 37 38 37 36 36 36 36 37 38 39 39
43 43 42 41 40 38 37 36 36 35 35 34 35 35 36 37 37 38 39 40 40 40 41 41 39 39 39 38 37 37 37 38 39 39 39 39 38 37 38 39 40 40
46 46 45 43 42 40 39 38 37 36 35 35 35 35 36 37 37 38 40 41 41 41 42 43 43 43 44 43 41 41 41 40 41 41 41 41 40 38 38 39 40 40

ECMWFNIL_250_spd_087.txt.gz
Wind_Speed
19 17 16 15 13 12 10 9 8 6 5 4 3 2 1 2 3 4 5 6 7 9 9 10 11 11 11 11 12 12 13 14 16 17 18 19 20 21 22 23 23 23
20 19 17 16 14 13 12 11 10 8 7 6 5 4 4 3 4 5 6 7 8 8 9 10 11 11 11 11 11 11 11 12 13 14 16 17 18 19 20 21 22 22
21 20 18 17 16 15 14 13 12 10 9 8 7 6 6 5 5 6 7 7 9 9 10 11 11 11 12 11 11 11 11 11 11 12 13 15 16 17 18 20 21 22
22 21 19 18 17 16 16 14 13 11 10 10 10 8 8 7 7 7 8 8 9 10 11 11 12 12 12 12 12 11 11 11 11 11 12 13 14 16 17 18 19 20
24 22 21 20 19 18 17 16 14 13 12 12 12 11 10 9 9 9 9 9 10 11 12 12 13 13 13 14 13 13 12 12 11 11 11 12 13 14 15 16 17 18
26 24 23 21 20 19 18 17 16 15 14 14 14 13 11 10 10 10 10 10 11 12 13 13 14 14 14 14 15 15 14 14 13 12 12 12 12 13 14 15 16 17
27 25 24 23 21 21 20 19 18 17 16 15 15 14 12 12 12 12 12 12 12 13 13 14 15 15 15 15 15 16 16 15 14 14 13 13 13 13 13 14 15 16
27 26 25 24 23 22 21 20 19 18 17 16 15 15 14 13 13 13 13 13 13 13 14 15 16 16 16 16 16 16 16 16 15 15 15 14 14 14 14 15 15 16
29 28 27 26 25 24 22 21 20 19 17 16 15 15 14 14 13 13 13 13 13 14 15 16 16 17 17 17 17 17 17 17 17 16 16 15 15 15 16 16 16 17
31 29 27 26 24 23 22 21 20 19 18 16 15 16 15 15 14 13 13 13 14 15 16 17 17 17 17 18 18 18 18 18 18 17 17 17 17 16 17 17 17 18
31 28 26 25 23 21 20 20 19 18 18 16 16 16 16 16 15 14 14 14 15 16 17 18 18 17 18 19 19 20 19 19 19 19 19 19 18 18 18 18 18 19
29 27 25 23 21 20 19 19 19 18 18 17 16 16 17 17 16 16 16 16 17 18 19 19 19 18 18 19 20 21 21 21 21 21 21 21 21 20 19 19 19 20
27 24 23 22 21 20 19 19 19 18 18 17 17 17 18 18 18 17 17 18 19 20 20 21 20 19 19 20 22 23 24 23 23 22 23 23 23 23 22 21 20 20
24 23 22 21 20 19 19 18 18 18 18 17 17 18 18 18 19 19 19 20 20 21 22 22 22 21 21 21 23 24 26 26 25 24 24 25 25 25 25 24 23 22
24 23 22 21 20 20 19 18 18 18 18 19 19 19 18 18 19 20 20 20 21 22 22 23 23 22 22 23 24 25 27 27 26 26 26 27 27 27 27 26 25 24
25 24 23 22 22 21 20 19 19 19 19 20 20 20 20 19 19 20 21 21 21 23 23 23 24 24 23 24 25 26 27 28 28 28 29 29 29 29 29 29 28 27
27 26 25 24 23 23 22 21 21 21 21 21 21 21 21 20 20 20 21 21 21 23 24 24 24 24 24 25 26 27 28 29 30 30 30 31 31 31 31 30 30 29
29 28 27 26 25 25 24 23 23 23 23 23 21 21 21 22 22 21 21 22 22 23 24 24 23 24 25 26 27 29 30 30 31 32 33 33 32 32 32 32 32 32
30 29 28 28 27 26 26 26 25 25 25 25 23 21 21 23 24 23 22 22 23 24 24 24 23 24 25 26 27 29 30 31 32 33 34 35 35 34 34 34 34 32
31 30 29 29 28 28 28 27 27 27 27 27 25 23 23 24 25 25 24 23 24 24 25 25 24 24 24 25 27 28 30 31 32 33 34 35 36 36 36 36 35 33
33 32 30 30 29 29 29 28 28 28 28 29 28 26 25 25 26 27 26 25 25 25 25 26 26 25 25 25 27 28 30 31 32 33 34 35 36 37 37 37 36 35
36 34 33 31 31 31 30 29 29 29 29 29 30 29 28 26 27 27 27 27 27 27 27 27 27 27 26 26 27 29 31 32 32 33 34 34 35 35 35 36 36 36
39 37 35 33 32 32 31 31 30 30 30 30 31 31 30 29 28 28 28 29 29 30 30 29 29 29 29 28 28 29 31 33 33 33 34 34 33 33 33 33 34 34
41 39 37 36 34 33 32 32 32 32 31 31 31 32 31 31 30 30 30 30 31 32 32 31 31 31 31 30 29 29 31 33 33 34 34 34 33 32 32 33 33 33
43 41 39 38 36 34 33 32 33 33 33 33 33 33 33 32 32 32 32 32 32 32 33 34 33 33 33 32 31 30 32 33 33 34 35 35 33 33 33 33 33 33
44 43 41 40 38 36 33 33 34 35 35 35 35 35 34 34 34 34 34 34 34 34 34 35 36 35 35 34 33 32 32 33 34 35 35 34 33 33 34 34 34 33

ECMWFNIL_250_spd_090.txt.gz
Wind_Speed
17 16 16 16 15 13 12 11 10 9 7 6 5 3 2 2 2 3 5 7 8 10 11 11 12 13 14 14 14 14 13 13 14 15 16 17 19 20 21 22 23 23
18 18 17 16 15 14 13 12 10 9 7 6 5 5 4 4 4 4 5 7 8 9 10 11 12 12 13 13 14 14 14 14 14 15 15 16 17 18 19 20 21 22
20 18 18 17 16 15 14 12 11 9 8 8 8 7 6 6 6 6 7 7 8 9 10 11 11 12 12 13 13 14 14 14 14 14 15 16 16 17 18 18 19 20
22 19 19 19 18 17 15 14 12 11 10 10 10 9 9 8 8 8 9 9 9 10 11 11 12 12 12 13 13 13 14 14 15 15 15 15 16 17 17 18 18 19
23 22 21 20 19 18 17 15 14 14 13 12 11 11 11 10 10 10 10 11 11 11 12 12 12 13 13 13 13 13 14 14 14 15 15 15 16 16 17 17 18 18
27 25 23 22 21 20 19 17 16 15 14 13 13 13 12 12 11 11 12 12 12 13 13 13 13 13 13 14 14 14 14 14 14 14 14 15 16 16 17 17 18 18
29 26 24 23 22 21 20 19 18 17 16 15 14 14 14 13 13 13 13 13 13 14 14 14 14 14 14 14 14 14 14 14 14 14 14 14 15 16 17 17 18 18
28 27 25 24 24 23 22 21 19 18 18 17 16 16 15 14 14 13 14 14 14 15 15 15 15 15 15 15 15 15 15 15 15 15 15 15 15 15 16 17 17 18
29 27 26 26 25 24 23 22 21 20 19 18 18 18 16 15 15 14 14 14 15 15 16 16 16 15 15 16 16 16 16 16 17 17 17 17 16 16 16 17 17 18
31 30 29 28 27 26 24 24 23 22 21 20 19 19 18 17 16 15 15 15 15 16 17 18 17 17 17 17 17 17 17 17 18 18 18 18 18 17 17 17 18 18
32 31 30 30 28 27 25 25 25 24 23 21 20 19 18 18 17 16 15 16 16 17 18 19 19 18 18 18 19 19 19 19 19 19 20 20 19 19 18 18 18 18
34 33 32 30 29 28 26 26 25 25 23 21 20 19 18 18 17 17 16 17 17 18 19 20 20 19 19 19 20 21 21 21 21 21 22 22 21 21 20 20 20 20
36 34 32 31 30 29 28 26 25 24 23 21 19 18 18 18 17 17 17 17 18 19 20 20 20 20 20 20 21 22 22 22 22 23 23 23 23 23 23 23 22 22
37 35 33 32 31 29 28 26 24 23 22 20 19 18 18 17 17 18 18 18 18 19 20 20 19 19 20 20 21 22 23 23 23 23 24 24 24 25 25 25 24 24
36 35 34 32 31 29 28 25 24 22 21 21 20 18 18 18 18 18 19 19 19 19 19 19 18 18 19 20 20 21 22 23 24 24 24 25 25 26 26 26 26 26
34 33 32 31 29 28 26 25 24 23 23 22 21 20 19 19 20 20 20 19 18 18 19 18 18 17 18 19 20 21 22 22 23 24 24 25 26 26 27 27 28 28
32 31 31 30 28 27 26 25 25 24 24 24 23 23 22 21 21 21 20 19 18 18 18 18 17 17 17 18 19 20 21 22 23 24 24 25 26 27 27 28 29 29
31 31 31 30 29 28 27 26 25 25 25 25 25 24 23 22 21 21 20 19 18 18 18 18 17 17 18 18 19 20 21 22 23 24 25 25 26 27 27 28 29 29
32 32 32 32 31 30 29 28 27 27 27 26 25 24 23 22 21 20 20 19 18 18 18 18 18 18 18 19 20 20 21 22 23 25 25 25 26 27 27 28 28 29
34 34 34 34 33 32 31 29 29 28 27 26 25 24 24 22 21 20 19 19 19 18 18 19 19 18 19 19 20 21 22 22 23 25 25 25 25 26 27 28 28 28
38 37 36 35 34 32 31 29 29 28 27 25 24 24 23 22 21 20 19 19 19 19 19 20 20 19 19 20 21 22 23 23 24 24 25 25 25 26 27 27 28 28
40 40 38 36 34 31 30 29 28 27 26 25 24 23 23 22 22 21 20 19 19 20 21 21 21 20 20 21 21 22 24 25 25 24 24 24 25 26 26 27 28 28
42 41 39 36 33 31 30 28 27 27 26 25 24 24 23 23 23 23 22 21 20 21 22 22 22 22 22 22 22 23 25 26 26 26 25 24 24 25 26 27 28 29
43 41 38 35 34 32 30 28 28 27 26 26 25 24 24 24 24 25 24 23 23 22 23 23 24 24 24 24 23 24 25 27 27 27 27 25 24 24 25 27 28 29
43 40 38 36 34 33 31 30 28 27 26 26 26 25 24 24 25 26 26 26 25 24 24 24 25 26 26 26 25 26 27 28 28 29 28 27 25 25 25 26 28 29
45 42 40 38 37 35 33 31 29 28 28 27 27 26 26 26 27 28 28 28 28 27 27 27 27 27 27 27 27 27 28 29 29 30 30 28 27 26 26 26 27 28

ECMWFNIL_250_spd_093.txt.gz
Wind_Speed
11 11 11 11 11 11 10 8 7 6 5 4 4 4 5 5 6 7 8 9 10 11 12 13 13 14 14 14 15 15 15 15 15 16 16 16 17 18 20 21 21 22
14 13 13 13 12 12 11 10 9 8 7 6 6 6 6 6 7 8 8 9 10 11 12 12 12 13 13 13 14 14 15 15 15 15 15 15 16 17 18 19 20 20
19 16 15 15 14 14 13 12 11 10 9 8 8 8 8 8 8 9 10 10 11 11 12 12 12 13 13 13 13 14 14 14 14 14 14 15 15 15 16 17 18 19
22 19 18 17 17 16 15 14 13 12 11 10 10 10 9 10 10 10 11 11 12 12 12 12 13 13 13 13 13 13 13 13 14 14 14 14 15 15 15 16 16 17
25 22 21 20 19 18 17 16 15 14 13 12 11 11 11 11 11 11 12 12 12 13 13 13 13 13 12 12 12 12 12 12 13 13 14 14 15 15 15 15 15 16
28 27 25 23 22 20 19 18 17 15 14 13 13 12 11 12 12 12 12 13 13 13 13 13 13 13 13 12 12 12 12 12 12 13 13 14 14 15 15 15 15 15
32 30 28 26 24 22 20 19 18 16 15 14 14 13 12 12 13 13 13 13 13 13 13 13 13 13 13 13 13 13 12 12 12 13 13 14 14 14 14 15 15 15
33 31 29 28 26 24 22 20 18 16 16 15 15 14 13 12 13 14 14 13 14 14 14 14 14 14 14 14 14 13 13 13 13 13 13 14 14 14 14 15 15 16
33 31 30 29 27 25 23 20 18 17 16 16 17 16 14 13 14 14 14 14 14 14 15 14 14 14 14 14 14 14 14 14 14 14 14 14 14 14 14 15 15 16
34 32 31 29 28 26 24 21 19 18 18 18 18 17 16 14 14 14 15 14 14 15 15 15 14 14 14 14 14 14 14 14 14 14 14 14 14 14 14 15 15 15
35 33 31 30 28 26 24 22 21 20 19 19 19 18 17 15 14 14 14 14 14 14 14 15 14 14 14 13 13 13 13 13 14 14 14 14 14 14 14 15 15 15
34 34 32 29 27 26 25 23 22 21 20 20 19 19 18 16 14 13 14 14 14 14 14 14 14 14 13 13 12 12 13 13 14 14 14 15 15 15 15 15 16 16
34 34 32 30 27 26 25 24 24 22 22 21 20 19 18 16 14 14 14 14 14 14 15 15 14 13 13 12 12 12 12 13 14 14 15 15 16 16 16 17 17 17
35 34 33 31 29 27 27 26 25 24 22 21 21 20 18 17 15 15 15 15 15 15 15 15 14 13 12 12 12 12 12 13 14 14 15 16 17 17 18 18 18 18
36 35 34 33 31 31 30 29 27 25 23 22 22 21 19 18 18 17 17 17 16 16 16 15 13 12 12 12 12 12 12 13 13 14 15 16 17 17 18 18 19 19
36 36 35 35 34 34 33 31 28 26 25 25 24 22 21 21 20 20 19 18 17 17 16 14 12 12 12 12 12 12 12 13 13 14 15 16 16 17 18 18 19 19
37 38 37 37 37 36 34 33 31 29 28 27 26 24 23 23 23 22 21 19 18 18 15 13 12 12 12 12 12 12 13 13 13 14 15 15 16 17 17 18 19 20
36 37 38 38 38 37 36 35 34 32 31 30 28 26 25 24 24 24 22 21 19 17 15 12 11 12 12 12 12 12 13 13 14 14 15 15 16 17 17 18 19 20
36 36 36 37 37 37 37 36 35 35 33 32 30 27 25 25 25 24 23 22 20 17 14 12 11 12 13 13 13 13 14 14 14 15 15 16 16 17 17 18 19 20
36 36 36 37 37 36 36 36 37 36 34 33 31 28 27 27 26 24 23 22 20 17 14 13 12 12 14 14 15 15 15 15 15 15 15 16 16 17 17 18 19 20
37 37 37 37 37 37 37 37 37 36 35 33 32 30 29 27 25 23 22 22 20 18 16 15 14 13 14 16 16 16 17 17 16 16 16 17 17 17 18 19 20 20
39 38 38 38 38 38 39 39 38 37 35 34 32 30 28 26 24 22 21 20 19 18 18 18 16 15 16 17 18 18 19 19 18 17 17 17 17 18 19 19 20 21
38 39 40 40 40 40 40 40 39 37 35 33 31 29 27 24 22 21 19 19 19 19 19 19 18 17 18 18 18 19 20 21 20 19 19 18 18 18 19 20 21 21
41 42 42 42 42 42 41 40 39 38 35 33 30 28 26 24 23 21 20 19 19 19 19 18 18 19 19 20 19 20 21 22 22 21 21 20 19 19 20 21 21 22
46 47 47 46 44 43 42 41 39 37 34 32 30 29 27 26 24 23 21 20 19 19 19 19 18 19 20 21 20 21 22 23 23 23 22 22 20 20 21 21 22 22
50 51 50 48 46 44 43 41 38 36 34 33 31 30 28 27 26 24 23 21 20 20 20 20 20 20 21 21 21 22 23 23 24 25 24 24 22 22 22 22 22 23

ECMWFNIL_250_spd_096.txt.gz
Wind_Speed
7 6 5 5 5 5 5 4 3 2 2 3 5 7 9 10 12 13 14 15 15 16 17 17 18 18 18 18 18 19 18 18 18 18 18 18 18 18 18 19 19 19
10 9 8 8 7 6 6 6 5 4 3 3 5 6 8 9 11 12 13 14 14 15 16 16 16 17 17 17 18 18 18 18 18 18 18 18 18 18 18 18 18 18
15 13 12 11 10 9 9 8 7 6 4 3 4 5 7 9 10 11 12 13 13 14 15 15 15 16 16 16 17 17 17 17 18 18 18 18 18 17 17 17 17 17
19 17 16 15 14 13 12 11 10 8 6 4 4 5 6 8 9 10 11 12 12 13 14 14 14 15 15 16 16 16 16 16 17 17 18 18 18 17 17 17 17 17
22 20 19 19 17 16 14 13 13 11 8 6 5 5 6 7 8 10 10 11 12 12 13 13 14 14 15 15 15 15 15 16 16 17 17 17 17 17 17 17 17 17
26 24 23 22 20 18 17 16 15 13 11 8 7 6 5 6 7 9 10 10 11 12 12 13 13 14 14 14 14 14 14 15 15 16 16 16 16 16 16 16 17 17
30 28 27 25 22 20 19 19 17 15 13 11 9 7 6 6 7 8 9 9 10 11 11 12 12 13 13 13 13 13 13 14 14 14 15 15 15 15 15 15 15 15
32 31 30 28 25 23 22 21 19 17 15 13 11 9 8 7 8 8 8 8 9 9 10 10 11 11 12 12 12 12 12 12 12 13 13 13 13 13 14 14 14 14
32 32 31 30 28 26 25 23 21 19 17 14 12 10 9 9 9 8 8 7 7 7 8 9 9 10 11 11 11 11 11 11 11 11 11 12 12 13 13 14 14 14
32 32 32 31 29 28 27 25 23 21 19 16 14 12 11 10 10 9 8 7 6 6 6 7 8 9 9 10 10 10 10 10 10 10 11 11 12 13 13 14 14 14
31 32 32 31 30 29 27 26 24 23 21 19 17 15 12 11 11 10 9 8 7 6 5 6 7 7 8 9 9 9 9 10 10 11 11 12 12 13 14 15 15 15
32 32 31 30 29 29 28 27 26 25 23 22 20 17 14 12 11 11 10 9 8 7 6 6 6 7 7 7 8 8 9 9 10 10 11 12 12 13 14 14 15 16
34 33 31 29 28 28 28 27 27 26 25 24 22 20 16 13 11 12 12 11 9 8 7 7 7 6 6 6 7 7 8 8 9 10 11 11 12 13 14 15 16 16
35 34 32 29 27 27 28 29 28 26 25 24 24 22 18 14 12 13 14 13 11 10 9 8 7 6 5 5 5 5 6 7 8 9 10 10 11 12 13 14 16 16
34 34 33 31 28 27 28 29 28 27 25 25 24 23 19 16 15 15 16 15 13 12 11 8 7 6 5 4 3 4 4 5 6 7 8 9 10 11 12 14 15 16
32 33 34 33 31 29 29 28 28 27 26 26 25 23 21 19 18 17 17 17 15 14 12 9 7 6 5 4 3 2 3 4 5 6 7 8 9 10 12 13 15 15
31 32 33 34 34 32 31 29 28 26 26 26 25 24 23 22 21 20 19 17 16 16 13 10 8 7 6 5 4 3 3 3 4 5 6 8 9 10 12 13 14 15
31 32 33 34 35 35 33 31 29 27 27 26 26 25 24 23 23 22 20 18 18 17 15 11 9 9 8 7 5 4 4 4 5 5 6 7 9 10 12 13 14 15
34 33 32 33 35 35 34 32 30 29 28 27 27 25 24 24 25 24 22 20 19 18 16 13 11 11 10 8 7 6 6 6 6 6 7 7 9 10 12 13 15 16
36 35 35 34 34 34 33 33 32 31 30 29 27 25 25 25 26 25 24 22 20 19 17 15 13 12 11 10 9 8 7 8 7 7 8 8 9 10 11 13 14 15
39 38 37 36 34 33 32 33 33 33 32 30 29 27 27 26 26 26 25 24 22 20 18 16 14 12 13 12 11 9 9 9 9 8 9 9 10 10 11 12 14 15
41 39 38 36 34 33 33 34 35 35 34 33 31 30 29 28 27 27 27 26 24 22 20 18 15 14 14 14 12 11 11 10 9 9 9 9 10 11 12 13 14 14
43 41 39 37 35 35 35 36 36 36 36 35 34 33 32 30 29 28 27 26 26 25 23 20 16 15 15 15 14 12 11 10 9 9 9 9 10 11 12 13 14 15
44 43 42 40 38 38 39 39 38 37 36 35 35 35 34 32 30 28 28 27 27 27 26 23 18 16 16 17 15 13 12 11 10 10 9 9 9 11 12 13 14 16
47 46 45 43 42 41 40 40 38 37 36 35 35 35 34 32 30 29 29 28 27 27 26 25 21 18 18 18 16 14 12 11 10 11 10 9 9 11 12 13 14 15
50 49 48 47 45 43 41 40 37 35 34 34 34 34 33 32 31 31 30 29 28 27 27 26 24 21 20 20 17 15 13 11 11 12 11 10 11 12 12 13 14 15

ECMWFNIL_250_spd_099.txt.gz
Wind_Speed
7 4 2 3 5 6 8 7 6 4 4 6 8 10 12 13 14 15 16 16 17 18 18 19 19 19 19 20 20 20 20 20 21 21 21 21 21 21 21 21 21 21
11 8 5 4 5 6 6 7 6 4 3 4 6 8 10 11 12 13 14 15 16 16 17 17 18 18 18 18 18 18 18 19 19 19 20 20 20 20 20 21 21 21
15 12 9 8 8 7 6 6 6 5 3 3 4 6 8 9 10 11 13 13 14 14 15 16 16 16 17 17 17 17 16 17 17 17 18 18 18 19 19 19 19 19
20 15 14 13 12 10 8 7 6 6 4 3 3 4 5 7 9 10 11 11 12 12 13 14 14 15 15 15 15 15 15 15 15 15 15 16 16 17 17 17 17 18
23 20 19 18 16 14 11 9 7 6 6 4 3 3 4 5 6 8 9 9 10 10 11 12 13 13 13 14 14 14 14 14 14 14 14 14 14 14 15 15 15 16
27 25 24 23 20 17 14 12 10 8 7 6 5 4 3 3 4 6 7 8 8 8 9 10 11 11 12 12 12 12 12 13 13 13 13 13 13 13 14 14 14 14
29 29 27 26 23 21 19 16 12 10 9 7 6 5 3 2 2 4 5 6 7 7 7 8 8 9 9 10 10 10 11 11 12 13 13 14 14 14 14 14 14 14
31 31 30 28 26 24 22 19 15 13 11 9 8 6 5 4 2 2 4 4 5 5 5 6 6 7 7 7 8 8 9 10 11 12 13 14 14 15 15 15 15 15
32 32 31 30 28 26 25 22 18 15 13 11 9 7 6 6 4 2 3 3 3 4 4 4 4 5 5 5 6 7 7 8 9 10 11 12 14 15 16 16 17 17
31 32 31 30 28 27 25 22 20 17 14 13 11 9 8 7 5 3 3 3 2 2 2 3 3 4 4 4 5 6 6 7 8 9 10 11 12 14 15 16 17 18
30 30 30 29 27 26 25 22 20 18 15 14 13 11 10 9 7 5 3 3 3 3 3 3 3 3 3 3 4 5 5 6 7 8 9 9 11 12 14 15 16 17
29 29 28 27 26 25 24 23 21 19 17 16 15 14 13 11 9 6 5 4 4 4 4 4 3 3 2 3 3 4 4 5 6 6 7 8 9 11 12 14 15 16
28 28 27 26 25 25 24 23 22 20 19 18 17 16 15 13 10 8 7 6 6 6 6 5 4 3 2 2 2 2 3 3 4 5 6 7 8 9 11 12 13 14
29 27 26 26 25 25 25 25 23 22 21 20 19 18 16 14 12 11 10 9 7 7 7 7 5 4 3 2 2 1 1 2 3 4 5 6 7 7 9 10 12 12
29 27 26 26 26 26 27 26 24 22 21 21 20 19 17 15 14 13 12 11 9 8 9 8 7 5 4 3 3 2 1 1 2 3 4 5 6 6 7 9 10 10
31 29 28 27 27 28 28 27 25 23 22 23 22 20 18 17 16 15 14 13 11 10 10 9 8 7 6 5 4 4 3 3 2 2 3 4 5 6 7 7 8 9
32 32 31 29 29 28 28 27 26 24 24 24 23 22 21 19 18 17 16 14 13 12 12 10 9 8 7 7 6 6 5 5 4 3 3 3 5 5 6 7 7 7
35 34 34 33 31 30 29 29 28 26 26 26 25 25 23 21 20 19 17 16 15 15 13 12 10 10 10 9 8 8 8 7 5 4 3 4 4 5 5 6 6 7
39 38 37 36 35 32 31 29 29 29 29 28 28 26 25 24 24 23 20 18 17 17 15 13 12 12 12 11 10 10 10 9 7 6 5 5 5 5 5 5 6 6
41 40 39 38 37 35 33 31 31 31 31 31 30 28 26 27 27 26 23 21 20 19 17 16 15 14 13 13 12 12 12 11 9 7 6 6 6 5 5 5 5 6
42 41 41 39 37 36 34 33 33 33 33 33 31 30 30 30 29 28 27 25 24 22 20 18 17 15 15 15 14 14 14 13 11 9 7 7 6 6 6 5 5 5
43 42 41 39 37 35 34 34 35 35 35 34 33 32 32 31 31 31 30 28 26 24 23 22 20 17 17 17 16 16 16 15 12 10 9 8 7 7 6 5 5 5
43 42 40 38 37 36 36 36 37 37 37 35 34 33 32 33 33 32 31 29 27 26 26 24 22 20 19 19 18 18 19 17 14 12 11 10 9 8 7 6 6 5
45 43 41 40 38 38 38 38 39 38 37 36 35 35 34 34 34 33 31 30 29 29 28 25 23 21 21 21 20 19 20 19 16 15 13 12 10 10 9 8 7 7
50 48 45 43 41 41 41 40 39 38 37 36 36 36 35 35 34 34 33 32 31 30 29 27 24 22 22 22 21 21 22 21 19 17 16 13 11 12 11 10 9 8
52 51 49 47 44 43 42 40 39 37 36 35 36 36 36 35 34 34 33 32 31 31 30 29 27 24 23 23 22 22 24 23 21 20 17 13 12 14 13 12 10 9

ECMWFNIL_250_spd_102.txt.gz
Wind_Speed
7 5 5 6 6 7 8 7 6 5 5 7 9 9 10 10 11 12 13 14 15 16 16 16 16 16 16 16 16 16 17 17 17 18 18 18 18 18 18 18 18 19
11 8 5 5 4 4 5 6 6 5 4 5 6 8 8 8 10 11 12 12 13 14 14 15 14 14 14 14 14 14 15 15 15 15 16 16 16 16 16 16 16 16
14 12 9 6 4 2 2 3 4 4 3 3 4 6 6 7 8 9 10 10 11 11 12 12 12 12 12 12 13 13 13 14 14 14 14 14 14 14 14 14 14 14
15 15 13 10 8 4 2 1 2 3 3 2 2 3 5 5 6 7 8 9 9 9 9 10 10 10 10 11 11 12 12 13 13 13 13 13 13 13 13 13 13 13
18 17 17 15 12 9 6 4 3 1 2 2 2 2 3 4 5 6 6 7 7 7 7 8 8 9 9 10 10 11 12 12 13 13 13 13 13 13 13 13 13 13
21 20 20 19 16 13 10 8 6 4 3 2 2 2 1 2 3 4 5 5 6 5 5 6 7 8 8 9 10 10 11 12 13 13 13 13 13 14 13 13 13 13
23 23 23 22 20 17 15 13 10 8 6 4 4 3 2 1 2 3 4 4 4 4 4 5 6 7 8 8 9 10 11 12 12 13 13 13 14 14 14 14 14 14
24 25 25 25 24 22 19 17 14 12 9 6 6 4 3 2 1 1 3 3 3 3 3 4 5 6 6 7 8 8 9 10 11 12 13 13 14 14 14 14 14 15
25 26 27 27 26 25 23 21 18 15 12 9 8 6 5 4 3 1 1 2 2 2 2 3 4 5 5 6 6 7 7 8 10 11 12 12 13 14 14 14 15 15
28 27 27 28 28 27 26 23 21 18 14 12 10 8 7 7 5 4 2 1 1 1 2 2 3 4 4 5 5 5 6 7 8 9 10 11 12 13 13 14 15 15
30 28 28 27 27 27 27 25 23 20 16 14 12 11 10 9 8 6 4 3 2 1 2 2 3 3 3 4 4 4 4 5 6 7 8 9 10 11 12 12 14 14
31 30 29 27 26 26 27 26 25 22 19 17 15 14 13 12 11 9 7 5 4 3 2 2 2 3 3 3 3 3 3 3 4 5 6 7 8 9 10 11 12 13
33 32 30 28 26 26 26 26 25 23 21 19 18 17 16 15 14 12 10 8 6 5 4 3 3 3 3 3 2 2 3 3 3 3 4 5 6 7 8 9 10 11
34 34 32 30 28 28 28 27 26 25 23 22 21 20 19 18 17 15 14 11 9 7 6 5 4 4 4 3 3 3 3 3 3 2 3 3 4 5 6 7 8 9
36 35 33 32 30 30 29 29 27 26 25 24 23 22 22 21 19 18 17 15 12 10 9 8 7 6 6 5 5 4 4 4 4 4 3 2 3 3 4 5 6 7
38 37 36 34 33 32 31 30 29 28 26 26 25 23 23 22 21 20 19 17 15 13 12 11 9 8 8 7 7 6 6 7 6 6 5 3 3 3 3 4 5 6
42 40 39 37 36 34 33 32 31 30 28 28 26 25 24 24 23 23 22 20 18 16 15 14 12 10 10 10 9 9 9 9 9 8 7 6 5 4 3 3 3 4
44 44 43 41 39 37 36 34 33 31 31 30 28 27 26 25 25 25 24 22 21 19 18 16 14 13 13 13 12 11 11 11 11 10 9 8 7 6 4 3 3 3
46 45 45 44 43 41 38 36 34 33 33 32 30 29 27 27 27 27 26 25 24 23 21 19 18 17 17 16 15 14 14 14 14 13 12 10 9 8 6 5 4 4
47 45 45 44 43 41 38 36 36 35 35 34 32 31 30 30 29 29 28 27 27 26 25 23 22 21 20 20 18 17 17 17 17 16 15 13 11 10 9 7 6 5
48 47 46 45 43 41 38 37 36 36 36 35 34 33 33 32 31 31 30 30 29 29 28 26 25 24 23 22 21 20 19 19 19 18 16 14 13 12 11 10 9 7
50 49 48 46 44 42 40 38 37 37 37 37 36 35 35 35 34 34 33 32 31 30 29 28 26 25 24 24 23 21 21 21 20 19 17 16 15 14 13 12 11 9
52 52 50 48 46 44 43 42 40 39 39 38 37 37 37 37 37 36 34 32 31 30 30 29 27 25 25 25 24 23 23 23 21 19 18 17 16 16 15 14 12 11
54 54 53 51 49 47 47 45 42 41 40 39 38 37 38 38 38 37 36 34 33 33 32 31 28 26 26 26 26 24 25 25 23 20 20 19 18 17 16 15 14 13
55 56 55 54 52 51 50 47 44 42 42 40 39 38 38 38 38 38 38 37 36 34 33 31 29 28 27 28 27 26 26 26 24 22 22 21 19 18 17 17 16 15
55 57 57 57 55 54 52 49 46 43 42 41 40 39 38 37 37 38 39 39 37 36 34 33 31 29 28 28 28 27 28 28 26 25 24 22 20 18 19 19 18 17

ECMWFNIL_250_spd_105.txt.gz
Wind_Speed
4 5 6 6 5 5 5 5 4 5 6 7 8 8 8 8 8 9 9 9 9 10 10 11 12 13 13 14 14 14 14 14 14 14 14 15 15 15 15 15 16 16
6 6 6 6 5 4 4 4 3 3 4 5 6 7 7 7 7 7 8 8 8 9 9 10 11 12 12 12 13 13 14 14 14 14 14 14 14 14 14 14 14 14
8 8 7 7 6 4 3 2 2 2 3 3 4 6 7 6 6 6 6 7 7 8 9 10 11 11 12 12 13 13 13 14 14 14 14 14 13 13 13 13 13 13
9 10 10 10 8 5 3 1 0 1 1 2 3 4 5 6 5 5 5 5 6 7 8 9 10 11 12 12 12 13 13 14 14 14 14 14 14 14 13 13 12 12
12 12 13 13 11 8 6 4 2 1 1 1 1 2 3 4 5 4 4 4 5 6 7 8 9 10 11 11 12 12 13 14 14 14 14 14 14 15 14 14 13 12
17 15 15 16 14 12 10 8 6 4 3 3 2 2 1 2 3 3 3 3 3 4 6 7 8 9 10 10 11 11 12 13 13 14 14 14 14 14 15 15 14 13
20 19 18 18 18 16 14 12 9 7 6 5 5 4 2 1 0 1 2 2 2 3 4 6 7 8 8 9 9 10 10 11 11 12 13 14 13 14 15 15 15 15
22 22 21 20 20 19 18 16 13 11 9 8 7 6 5 4 3 2 1 1 2 2 3 4 5 6 7 7 7 8 8 9 10 11 12 13 13 14 15 15 16 16
24 25 24 23 22 21 21 20 18 15 13 12 10 8 7 6 5 4 3 3 2 1 2 2 3 4 5 6 6 6 7 7 8 9 10 11 12 13 14 15 15 16
26 26 26 26 24 23 23 23 21 19 17 15 14 11 9 9 8 7 6 5 3 2 2 2 2 2 3 4 4 4 5 6 6 7 8 9 10 11 12 13 14 15
28 28 28 28 27 25 25 25 24 23 21 18 16 14 12 11 11 10 8 7 6 5 3 3 2 2 1 1 2 3 3 4 5 5 6 7 8 9 10 11 12 13
31 30 30 29 28 27 26 26 26 25 23 21 19 17 15 14 14 13 11 10 9 7 6 5 4 3 3 2 2 2 3 3 3 4 4 5 6 7 8 9 9 10
34 32 31 30 29 28 27 27 27 27 26 24 22 20 18 17 16 15 14 13 11 10 8 7 6 6 5 4 3 3 4 4 3 3 3 3 4 5 5 6 7 8
38 35 33 32 30 29 29 28 28 28 27 26 25 23 21 19 18 18 17 16 14 12 11 10 9 8 7 7 6 6 5 5 5 4 3 3 3 3 4 5 5 6
41 39 36 34 32 31 31 30 29 28 27 27 27 25 23 21 20 20 20 19 17 15 14 13 12 11 10 10 9 8 8 7 7 6 5 4 3 3 3 3 4 5
43 42 40 37 35 33 33 32 31 29 28 28 28 27 26 24 23 22 22 21 20 18 17 16 15 14 13 13 12 11 10 10 9 8 7 6 5 4 3 3 3 3
45 44 43 41 38 36 35 34 33 32 30 29 29 28 27 26 25 25 24 24 23 22 21 20 19 17 16 16 15 14 13 12 11 10 9 8 7 6 4 4 3 3
50 47 46 45 42 39 38 37 36 34 33 32 31 30 29 28 28 27 26 26 26 25 25 24 22 20 19 19 17 16 15 14 13 12 10 10 9 7 6 5 5 4
52 52 49 47 45 43 41 39 38 37 36 35 33 32 31 30 30 30 29 29 29 29 28 27 25 23 22 21 19 17 16 15 15 14 13 12 10 9 8 7 7 6
51 54 53 50 47 45 43 41 40 40 38 36 35 33 33 34 34 33 32 32 32 32 31 30 28 26 24 23 21 19 17 17 17 16 15 14 12 12 11 10 9 9
55 55 54 53 50 47 44 43 43 42 40 38 36 35 35 36 35 35 34 34 34 34 33 32 30 29 26 25 23 21 19 19 20 19 18 16 15 14 13 12 11 10
61 57 55 54 52 49 46 45 44 42 40 39 37 36 36 37 37 36 36 36 36 35 35 34 32 30 29 27 25 23 22 22 22 21 20 19 18 16 15 15 13 12
62 59 57 54 52 50 47 45 44 42 40 39 37 36 36 37 37 37 37 37 36 36 36 35 34 32 30 29 27 25 25 25 24 23 22 21 20 19 18 17 16 14
62 60 57 54 53 50 46 42 41 40 39 38 36 36 37 37 38 38 38 37 37 36 37 36 35 33 32 30 29 28 27 27 26 25 24 24 22 21 20 19 18 17
61 60 58 55 53 50 45 42 42 42 40 38 37 37 38 39 39 38 37 38 38 37 37 37 36 35 33 32 31 30 29 29 28 27 27 26 24 23 22 22 21 20
60 60 59 57 55 51 48 48 49 49 47 45 44 43 43 44 44 42 39 38 39 39 38 37 37 36 35 33 32 31 31 31 30 30 30 28 25 24 24 24 24 23

ECMWFNIL_250_spd_108.txt.gz
Wind_Speed
2 1 1 3 4 5 6 7 8 10 11 12 13 13 13 13 13 13 14 14 15 16 17 17 17 17 17 17 17 16 16 16 16 16 15 15 14 13 12 12 12 12
3 3 2 1 1 3 4 5 7 8 9 10 11 11 12 12 12 12 13 13 14 15 16 16 17 17 17 17 17 17 17 16 17 17 17 16 15 14 13 12 12 11
4 5 5 4 2 1 2 3 4 6 7 8 9 10 11 11 11 11 11 12 13 14 14 15 16 16 16 16 17 17 17 17 17 17 18 17 17 16 15 14 14 13
6 6 7 7 5 4 3 2 2 4 5 6 7 9 9 10 10 11 11 11 11 12 13 14 14 15 15 15 16 16 16 17 18 18 18 18 18 18 18 17 16 15
8 7 8 8 7 7 6 5 4 3 4 5 6 7 8 9 9 10 10 10 10 11 11 12 13 13 14 14 14 15 15 15 16 17 17 18 18 18 19 19 18 18
10 9 9 10 9 9 9 9 7 6 5 5 5 6 7 8 8 9 10 10 9 9 10 10 11 12 12 12 13 13 13 14 15 16 16 17 18 18 18 19 19 19
12 12 11 11 11 11 12 12 11 10 8 7 6 6 7 7 8 8 9 9 9 8 8 8 9 10 10 10 11 11 12 12 13 14 15 16 16 17 17 18 19 19
13 14 14 13 13 13 14 14 14 14 12 10 9 8 7 7 8 8 9 9 9 8 8 7 7 7 8 8 9 9 10 11 11 12 13 14 15 15 16 17 17 19
14 15 15 16 15 15 16 16 16 17 16 14 12 11 9 9 8 8 9 9 9 8 8 7 6 6 6 7 7 7 8 9 9 10 11 12 13 14 15 15 16 18
15 15 16 17 18 18 18 17 18 19 19 17 16 15 12 11 10 9 9 10 10 9 9 8 7 6 6 6 6 6 7 7 8 8 9 10 11 12 13 14 15 16
16 15 15 17 19 20 21 20 20 21 21 20 20 18 16 13 11 10 10 11 11 10 10 10 9 7 6 6 6 6 6 7 7 7 7 8 9 10 11 12 13 14
18 14 14 16 19 21 23 23 23 23 23 22 22 21 19 16 14 12 12 12 12 12 11 11 11 10 8 7 7 7 6 7 7 6 7 7 7 8 9 10 11 12
23 17 13 17 20 22 24 26 26 25 25 25 24 24 22 20 17 15 14 14 14 14 13 13 13 12 11 9 9 8 8 7 7 7 7 7 7 7 8 8 9 10
27 23 16 17 21 23 25 27 28 28 27 27 26 26 24 22 20 19 18 18 17 16 16 16 15 14 13 12 11 10 9 9 8 8 7 7 7 7 7 7 8 8
22 23 21 19 21 23 26 29 30 30 30 29 29 28 27 25 23 22 21 21 20 20 19 19 18 17 16 15 13 12 11 10 10 9 8 8 7 7 7 7 7 7
24 26 27 25 24 26 29 30 31 32 32 32 32 31 29 28 27 25 24 24 24 23 23 23 22 20 19 18 16 14 13 12 11 11 10 9 8 7 7 7 7 6
32 32 31 31 31 30 30 30 31 33 34 34 34 34 33 31 30 28 28 27 27 27 27 26 25 23 22 21 19 17 15 14 13 13 12 10 9 8 8 7 7 6
36 37 34 32 32 31 31 31 31 34 36 37 37 37 36 34 33 32 31 30 30 30 29 29 28 26 24 23 22 19 17 16 15 15 14 13 11 10 10 9 8 7
38 39 38 35 33 31 33 35 34 33 34 36 38 39 39 38 37 36 35 34 32 32 31 30 29 28 27 25 24 22 20 18 18 17 17 15 13 12 12 10 10 9
42 40 39 39 38 37 38 39 38 35 34 35 39 41 42 41 40 39 37 36 34 33 32 32 31 30 29 27 25 24 23 22 21 20 19 18 16 15 14 13 12 11
47 46 44 44 44 42 39 38 37 36 35 36 40 44 44 44 43 41 39 38 37 35 34 33 32 32 31 29 27 26 25 25 24 24 22 20 19 17 16 15 14 13
48 49 48 48 47 45 43 41 39 38 39 41 45 47 47 46 45 43 42 40 38 37 36 35 35 34 33 32 29 27 27 28 28 27 25 24 21 20 18 17 17 15
51 50 50 50 48 46 46 46 45 45 47 51 54 54 51 49 46 43 43 42 40 38 37 37 37 35 35 34 32 29 29 30 31 29 28 27 24 22 21 19 18 17
51 51 52 54 51 48 48 49 49 50 51 53 54 55 54 51 47 43 43 43 41 39 37 38 38 37 36 34 33 31 31 32 33 32 31 29 27 24 22 21 20 19
52 49 50 54 52 49 51 53 52 52 53 52 53 55 55 52 49 46 44 42 41 39 38 37 37 36 35 34 34 33 32 33 34 34 34 32 28 25 24 22 21 20
61 53 49 50 50 49 50 51 49 49 52 52 53 55 56 53 51 49 47 44 40 39 38 37 35 34 34 34 34 34 34 34 35 36 36 34 30 27 25 24 23 22

ECMWFNIL_250_spd_114.txt.gz
Wind_Speed
3 2 2 4 6 7 9 10 12 14 15 16 16 17 18 18 19 18 18 19 19 19 20 20 21 22 23 24 25 25 26 26 25 25 24 23 21 21 20 19 17 17
4 3 2 2 3 4 6 7 9 11 12 13 14 15 16 17 17 17 17 17 18 18 18 19 19 20 21 22 23 24 25 25 25 26 25 24 23 22 22 20 19 18
5 5 4 3 3 3 3 5 6 8 9 11 12 13 14 14 15 15 16 16 16 17 17 17 18 18 19 21 22 23 23 24 25 26 26 25 24 24 23 22 21 20
6 6 5 5 4 4 4 4 4 6 7 8 10 11 12 12 13 14 14 15 15 15 16 16 17 17 18 19 20 21 22 23 24 25 26 25 25 24 24 23 23 22
6 5 5 5 5 6 6 5 5 5 6 6 7 8 10 11 12 12 13 14 15 15 15 15 16 16 17 18 19 19 20 21 22 23 24 24 24 24 24 24 24 24
7 5 5 5 6 6 7 7 6 6 6 6 6 7 8 9 10 11 12 13 14 14 15 15 15 15 16 16 17 18 18 19 20 21 22 23 23 23 24 24 24 24
9 7 5 4 5 6 7 8 8 8 8 7 7 7 7 8 9 10 11 12 13 14 14 15 14 14 14 15 15 16 16 17 18 19 20 21 21 22 22 23 24 24
10 7 6 5 5 6 7 8 9 9 9 9 8 8 7 8 8 9 10 11 12 13 14 14 14 14 14 13 14 14 15 15 16 17 18 19 19 20 20 21 22 23
11 8 7 6 6 6 7 8 9 10 11 11 10 10 9 9 9 8 9 10 12 13 13 14 14 14 14 13 13 13 13 14 14 15 16 17 17 18 18 19 20 21
15 11 8 8 8 8 9 9 10 11 11 12 12 12 11 10 10 10 10 10 11 12 13 13 13 14 14 13 13 13 12 13 13 13 14 15 15 16 16 17 17 18
18 15 13 10 10 10 10 11 12 12 13 13 13 13 13 12 12 12 12 11 11 12 13 13 13 13 13 13 13 12 12 12 11 11 12 12 13 14 14 15 15 16
19 17 17 15 15 14 13 13 14 14 15 15 14 15 15 15 14 14 13 13 12 12 13 13 13 13 12 12 12 12 11 10 10 10 10 10 10 11 12 13 13 14
20 18 19 20 19 18 15 13 14 16 17 17 17 16 16 16 16 16 16 15 13 12 13 13 13 13 12 11 10 10 10 9 9 9 8 8 8 8 9 10 10 11
24 21 22 21 20 18 15 12 14 16 19 21 21 19 18 17 17 18 18 16 15 14 13 13 14 14 13 13 11 10 10 9 8 8 7 7 7 6 6 7 7 8
27 25 24 22 21 19 16 14 15 18 20 24 26 24 21 19 19 20 19 17 16 15 14 13 13 13 14 13 12 11 10 9 9 8 7 6 6 5 5 4 4 5
30 27 26 23 22 21 18 16 18 20 22 24 27 28 26 24 23 23 22 20 18 17 16 15 14 13 14 14 14 13 11 10 10 9 9 8 7 6 5 4 3 3
33 30 29 26 24 23 22 21 21 23 24 24 26 29 30 29 28 26 24 23 22 20 19 18 17 16 15 15 15 15 14 13 12 11 11 10 9 8 7 6 5 4
38 35 33 32 30 28 28 29 28 27 27 25 24 26 29 31 32 31 28 26 25 24 22 20 19 19 18 17 16 16 17 16 15 14 14 13 12 11 10 9 8 8
42 39 37 37 35 33 34 36 35 32 30 29 28 27 30 32 33 34 34 31 29 27 26 23 21 20 20 20 19 18 18 18 18 18 17 16 15 14 13 12 11 11
44 42 41 41 41 41 41 41 42 40 38 36 34 33 33 34 34 35 36 36 35 32 31 28 25 22 22 22 21 21 20 19 19 20 19 19 18 17 16 15 14 13
48 46 44 42 42 46 50 51 50 48 46 42 40 39 37 36 37 37 37 37 37 35 33 32 29 26 24 23 21 21 21 20 19 19 19 19 19 18 18 17 17 16
58 56 52 46 40 40 48 55 56 52 49 46 44 43 41 39 38 38 37 37 36 34 32 33 33 31 28 25 23 21 21 22 21 20 19 19 19 19 19 19 20 19
68 66 65 60 49 38 38 46 52 52 50 49 48 46 43 41 41 41 40 38 37 34 32 33 35 34 33 31 29 27 25 25 25 24 22 22 22 21 21 22 22 22
74 73 72 69 62 53 46 45 48 50 51 50 50 48 45 43 43 44 43 42 41 38 36 35 36 35 34 34 34 33 30 29 29 28 25 23 22 22 22 23 23 24
81 80 78 73 70 69 66 62 60 59 56 54 53 50 46 44 45 47 47 45 44 43 41 41 39 36 34 35 36 35 33 33 33 32 30 27 23 22 23 24 25 25
87 85 83 79 76 75 74 73 69 65 62 60 57 52 49 48 48 49 50 49 47 46 45 46 45 41 37 36 36 35 35 35 36 36 35 34 30 27 26 26 26 26

ECMWFNIL_250_spd_117.txt.gz
Wind_Speed
11 11 10 10 11 12 13 14 16 17 18 18 18 19 20 21 22 22 23 23 23 24 24 24 25 26 26 27 27 27 27 26 25 25 25 24 23 22 21 20 19 18
10 10 10 10 10 11 11 12 14 15 17 18 18 19 19 20 21 22 22 22 23 23 23 24 24 25 25 26 26 27 27 27 27 27 27 26 26 25 24 23 22 21
9 9 9 9 9 10 10 11 12 13 14 16 17 18 19 19 20 21 21 22 22 22 23 23 23 24 24 24 25 26 26 27 27 27 28 28 28 28 27 26 25 24
10 9 9 8 8 9 9 10 11 12 13 14 15 16 17 18 19 19 20 21 21 22 22 22 22 23 23 23 24 24 25 25 26 27 27 28 29 29 30 29 28 26
12 11 10 8 7 7 8 8 9 10 11 12 13 14 15 17 18 18 19 19 20 21 21 22 22 22 22 23 23 23 23 23 24 25 26 27 27 28 29 30 30 29
13 13 11 9 7 7 7 8 8 9 10 11 12 13 14 15 16 17 18 18 19 19 19 20 20 21 21 21 21 21 21 22 23 23 24 25 26 26 27 28 29 29
13 13 12 11 8 7 7 8 8 9 9 10 11 12 13 14 15 16 17 17 18 18 18 18 19 19 20 20 20 20 20 20 21 21 22 23 24 24 25 25 26 27
13 12 12 11 9 7 7 8 9 9 8 9 10 11 12 13 14 15 16 17 17 17 17 18 17 18 18 18 18 18 18 19 19 19 20 20 21 22 23 24 24 25
15 14 14 12 10 7 7 8 9 9 9 8 8 9 10 11 12 13 15 16 16 16 16 16 17 16 16 16 17 17 17 17 17 17 18 18 19 20 21 21 22 23
17 16 16 15 11 8 8 9 10 11 11 9 8 8 9 10 11 11 13 14 15 15 15 15 15 15 15 15 15 15 15 15 15 15 16 16 17 18 19 19 20 20
19 19 18 18 14 10 10 10 11 13 13 12 10 9 9 10 10 10 11 12 13 14 14 14 13 13 14 14 14 14 13 13 13 13 14 14 15 16 16 17 17 18
20 20 20 20 17 14 13 13 12 12 13 13 12 12 12 12 11 11 11 11 12 13 14 14 14 13 12 13 13 13 12 12 12 11 12 12 13 13 14 14 15 15
20 21 20 20 19 18 17 16 13 13 13 11 11 13 14 14 14 13 12 12 12 13 14 14 14 14 13 12 12 12 12 11 10 10 10 10 10 11 11 11 12 12
25 24 21 19 19 19 20 18 15 14 15 12 11 13 14 14 14 15 14 14 13 13 14 14 14 14 14 14 13 11 11 10 10 9 8 8 8 8 8 9 9 9
30 27 23 20 20 21 20 19 16 15 17 17 15 15 15 14 14 14 15 15 14 14 14 15 15 14 13 13 13 13 11 10 10 9 9 8 7 7 6 6 7 7
33 30 25 21 22 23 22 20 17 17 19 20 19 18 17 17 17 16 15 15 16 16 16 15 15 15 15 14 13 13 12 11 10 9 9 9 8 7 6 5 5 5
35 32 28 25 24 25 25 23 20 20 22 23 22 21 19 19 20 18 16 15 15 17 18 18 17 16 16 15 15 13 12 11 11 10 9 9 9 9 8 7 6 5
39 35 32 30 28 28 28 27 25 25 26 27 27 24 22 21 21 20 19 17 16 17 19 20 20 20 19 18 17 16 14 12 11 11 10 10 9 10 10 10 10 9
43 38 34 32 31 31 31 31 30 29 30 31 30 27 26 25 24 23 22 21 21 21 21 21 22 23 24 23 22 19 18 15 13 12 11 10 10 9 10 11 12 12
46 41 36 33 33 33 34 35 35 34 32 32 32 31 31 30 30 29 27 26 27 26 26 25 24 24 25 26 25 24 21 19 16 13 11 10 11 11 11 11 12 12
47 43 36 33 34 36 38 39 40 39 38 37 36 36 36 36 36 35 35 34 34 32 30 29 28 26 26 26 26 26 24 21 20 17 14 12 11 12 13 13 13 13
46 43 37 33 35 39 42 42 41 41 42 43 42 39 36 35 37 39 40 40 39 36 34 32 31 31 30 28 26 26 25 24 23 22 20 18 16 15 14 15 15 15
46 43 40 38 37 38 42 44 44 43 43 43 42 40 36 31 30 35 40 43 42 39 36 34 34 35 34 31 28 27 27 27 26 25 25 24 24 21 19 17 17 16
48 47 45 43 42 42 44 46 48 49 48 45 41 38 35 30 28 29 36 42 44 41 38 35 35 36 37 35 32 30 30 30 30 29 28 27 26 26 24 22 20 19
53 51 50 49 48 50 52 52 52 54 52 47 41 36 31 29 29 30 34 39 42 41 38 36 36 37 39 39 38 35 34 33 33 33 32 30 28 26 27 27 26 24
59 56 56 57 56 56 56 55 55 56 54 50 47 43 37 32 30 31 33 38 42 42 41 40 40 39 40 41 42 41 40 38 37 36 36 34 32 30 28 28 28 27

ECMWFNIL_250_spd_120.txt.gz
Wind_Speed
13 14 14 14 14 15 16 17 19 21 22 24 25 25 26 26 27 27 27 28 28 28 28 29 29 30 31 31 32 31 31 30 29 28 27 27 26 26 25 24 23 22
12 12 13 13 13 14 15 16 17 19 20 21 23 24 25 25 26 27 27 27 27 27 27 28 28 28 29 30 30 30 30 30 30 29 29 28 28 27 27 26 25 24
11 12 12 12 12 12 13 14 16 17 18 19 20 22 23 24 25 26 26 26 26 26 26 26 26 27 27 27 28 28 29 29 29 29 29 29 29 28 28 27 27 26
10 10 10 11 11 11 11 13 14 15 16 17 17 18 20 22 23 24 25 25 25 25 25 25 25 25 25 25 26 26 27 27 28 28 28 28 28 28 28 28 27 27
9 9 9 9 9 9 9 11 12 13 15 15 16 16 17 18 20 22 23 23 24 24 24 24 24 24 24 24 24 24 25 26 26 26 27 27 27 27 27 27 27 27
9 8 7 7 7 7 7 8 10 12 14 15 15 15 16 16 17 18 20 21 21 22 22 23 23 23 23 23 23 23 24 25 25 25 26 26 26 26 26 27 27 27
10 9 7 6 6 6 6 6 8 10 12 13 15 15 16 15 15 16 17 18 19 20 20 21 21 22 22 22 22 22 23 23 24 24 24 24 24 25 25 26 26 26
12 12 10 8 6 5 5 5 7 9 10 12 13 14 15 16 15 15 15 16 17 18 19 19 20 20 21 21 21 21 21 21 22 22 22 23 23 23 23 24 25 25
15 14 13 11 8 6 4 3 4 7 8 9 11 12 13 15 15 15 15 15 16 16 17 18 19 19 19 19 20 20 20 20 20 20 20 20 21 21 21 22 23 23
19 16 15 14 11 9 5 2 2 5 6 7 8 9 10 12 14 15 15 15 14 14 15 15 16 17 17 18 18 18 18 18 18 18 18 18 18 19 19 20 20 21
22 20 18 18 16 12 7 3 1 3 5 5 6 8 8 9 11 12 12 14 13 13 13 13 13 14 14 15 16 16 15 15 15 15 15 15 16 16 16 17 17 18
25 24 22 20 20 17 12 7 4 4 5 4 4 5 7 8 9 9 9 10 11 11 11 11 11 11 11 12 12 13 13 13 13 12 12 12 13 13 14 14 15 15
27 27 26 23 21 20 16 11 8 7 6 4 3 3 5 8 9 9 8 7 8 10 10 10 10 10 10 9 9 9 10 10 10 10 10 10 10 11 12 12 12 13
27 26 27 26 24 21 17 13 11 10 9 8 5 5 6 8 10 10 9 8 7 8 8 9 9 9 9 8 8 8 7 7 8 8 8 8 8 9 10 10 11 11
29 27 26 26 25 23 18 15 14 14 13 11 9 8 9 10 11 11 11 10 9 7 6 7 8 9 8 7 7 8 8 7 6 6 7 7 8 8 8 8 9 9
33 32 29 26 26 26 24 20 19 18 16 14 13 12 13 14 14 13 12 12 10 8 5 6 7 9 10 9 8 8 9 8 7 6 5 5 6 6 6 6 6 6
36 34 31 28 26 27 27 26 24 22 20 18 17 16 16 16 15 14 14 14 12 9 6 5 7 10 11 12 11 10 10 10 9 8 7 6 5 5 5 5 5 4
38 36 31 29 28 28 29 29 29 27 24 22 20 19 20 20 18 17 18 19 17 14 11 8 8 10 12 13 13 12 12 12 11 9 8 7 7 6 5 5 5 5
37 36 32 30 32 33 32 31 31 31 28 25 24 23 22 23 21 20 22 23 23 21 18 16 14 13 14 15 15 15 15 14 13 12 10 9 8 8 7 7 6 6
35 36 34 32 33 36 37 34 32 33 31 28 27 27 26 26 24 23 24 26 26 26 25 24 22 20 18 18 18 18 17 16 15 13 11 10 9 9 8 8 8 8
38 38 36 34 32 35 39 38 37 36 36 33 31 31 31 29 27 26 26 27 28 29 30 30 30 27 24 22 21 20 19 19 18 16 13 12 11 11 11 11 11 11
40 37 37 37 36 38 41 42 42 42 41 39 36 34 34 32 31 30 29 30 31 32 34 35 33 30 28 27 26 24 22 20 20 19 17 15 14 13 14 15 15 15
47 42 41 42 42 43 44 44 45 44 43 42 40 38 36 34 32 31 31 32 33 33 34 35 33 29 28 29 30 29 26 23 21 21 20 19 17 16 16 17 17 18
55 50 48 47 47 47 47 47 47 45 45 45 44 41 40 36 32 30 31 32 32 32 34 36 33 28 27 29 31 32 30 26 23 21 22 22 22 20 20 19 20 20
60 57 55 53 53 53 53 52 50 48 48 49 47 45 43 39 36 34 32 31 31 33 38 39 34 29 29 32 33 33 33 31 27 23 22 23 24 25 25 24 23 22
63 61 59 56 55 56 57 57 54 51 50 51 49 47 46 43 40 38 35 35 36 39 42 42 36 32 33 34 35 34 34 34 31 28 25 24 25 27 29 30 29 27

ECMWFNIL_250_spd_123.txt.gz
Wind_Speed
15 15 16 16 17 18 20 21 22 24 25 26 25 25 25 25 26 26 26 27 27 28 30 31 31 32 32 32 32 32 32 31 31 30 30 29 28 27 26 25 24 23
13 14 14 14 15 16 17 19 20 21 22 24 24 25 25 25 25 25 25 26 26 27 27 28 29 30 30 30 31 31 31 31 31 31 30 30 30 29 28 27 26 26
10 11 12 12 13 14 15 17 18 19 20 21 22 23 23 24 24 24 24 25 25 25 26 26 27 28 29 29 30 30 30 30 30 30 30 30 30 30 29 29 28 28
7 8 9 9 10 11 13 15 16 18 18 19 20 21 22 22 23 23 23 23 24 24 25 25 25 26 27 28 28 29 29 28 28 29 29 29 29 29 29 29 29 29
5 6 7 7 8 8 10 13 15 16 17 17 18 19 20 21 21 22 22 23 23 23 24 24 24 24 25 25 26 26 27 27 27 27 27 28 28 29 29 29 29 30
4 5 5 6 6 7 8 11 13 14 15 16 17 17 18 19 19 20 21 21 22 22 22 23 23 23 23 23 24 24 24 25 26 26 26 26 27 27 28 29 29 30
5 5 5 4 5 6 7 9 11 12 13 14 15 16 16 17 17 18 19 19 20 21 21 21 21 21 22 22 22 22 22 22 23 24 25 25 25 26 27 27 28 29
5 5 6 5 4 5 6 8 9 10 11 12 13 14 15 15 15 16 16 16 17 18 19 19 19 19 19 20 20 20 20 20 21 22 23 24 24 25 25 26 27 28
6 5 5 5 5 4 3 5 7 8 9 10 10 11 12 12 13 14 14 14 14 15 15 16 17 17 17 17 18 18 18 19 19 20 21 22 23 24 24 25 26 27
10 7 5 5 6 5 4 2 3 5 6 7 8 8 9 9 10 11 12 12 11 12 12 13 13 14 14 14 15 15 16 17 17 18 19 19 20 21 22 23 24 25
14 11 8 8 9 8 7 6 4 2 2 3 4 5 6 7 7 8 9 10 10 9 9 9 10 11 11 12 12 13 13 14 15 16 17 17 18 18 19 20 21 22
17 15 12 12 12 13 13 9 7 6 4 2 1 1 2 4 5 6 6 7 8 8 8 7 7 7 8 9 10 10 11 11 12 13 14 14 15 15 16 16 17 18
20 19 17 16 15 17 17 15 11 9 8 6 5 4 3 2 1 3 5 5 5 5 5 6 6 6 5 6 7 8 9 9 9 9 10 11 12 12 12 13 13 14
25 24 24 21 18 18 19 18 15 13 11 10 8 7 7 6 4 2 1 3 5 4 2 3 3 4 5 5 5 5 6 7 7 7 7 7 8 9 9 10 10 10
28 28 28 26 22 20 19 20 19 16 15 14 12 11 10 10 8 6 3 1 2 3 2 1 2 3 3 4 4 4 4 5 6 6 5 4 4 5 6 6 7 7
32 32 31 29 26 23 21 22 23 20 18 17 16 15 13 13 11 9 6 4 2 1 0 1 1 3 4 4 3 3 3 3 3 4 3 3 2 2 2 3 4 5
36 35 34 32 29 26 24 23 24 24 22 21 20 18 17 16 15 12 10 8 6 4 3 3 2 1 2 4 5 5 4 3 1 1 3 2 1 1 1 1 2 3
39 39 37 35 33 30 28 27 26 25 26 26 25 23 21 20 19 17 14 12 11 10 9 8 7 6 5 5 6 7 7 7 7 5 2 3 4 3 3 3 3 3
40 41 40 38 35 33 32 31 30 28 27 27 28 28 27 24 23 22 20 18 16 15 14 13 12 13 12 11 11 11 10 9 9 9 7 5 5 6 5 4 3 3
42 42 41 38 37 35 33 33 33 32 30 28 27 29 30 30 28 27 25 23 21 20 19 18 17 18 18 16 15 15 15 13 11 11 11 9 8 8 8 7 6 4
42 41 40 38 37 35 34 33 34 35 34 32 29 28 31 34 34 33 31 28 26 25 24 23 22 22 21 21 20 20 19 18 16 14 13 13 12 11 10 10 9 8
45 43 41 39 38 37 35 34 34 34 35 34 31 29 31 35 38 38 36 33 32 30 28 27 27 26 25 24 23 24 24 23 21 18 17 16 16 15 15 14 12 11
50 47 44 42 41 40 38 36 34 34 35 35 32 31 33 37 41 42 40 37 36 34 32 30 30 30 28 26 25 26 27 27 25 23 21 20 19 19 19 18 16 14
56 52 47 46 45 44 42 40 38 37 36 35 34 35 38 41 43 45 44 40 39 38 36 34 33 33 31 29 28 28 29 29 28 27 25 23 23 23 22 21 20 18
60 56 53 50 49 48 47 46 44 42 41 40 39 40 42 45 46 47 47 44 43 42 40 37 36 35 34 33 31 30 29 30 30 30 28 26 26 26 25 24 23 23
65 63 60 56 53 52 52 51 49 47 46 47 45 45 47 48 49 49 50 48 47 46 44 41 37 36 36 35 34 32 31 31 32 33 32 30 29 29 28 27 25 24

ECMWFNIL_250_spd_126.txt.gz
Wind_Speed
15 15 15 16 16 17 18 19 20 20 21 21 22 23 24 25 25 26 27 27 28 28 29 29 30 30 30 30 30 30 30 30 29 29 29 28 27 26 24 23 22 21
14 13 14 14 15 15 16 17 18 19 20 20 21 22 23 23 24 25 25 26 26 27 27 28 29 29 30 30 30 30 30 30 30 30 30 29 29 29 28 27 26 25
12 12 12 12 13 14 15 15 16 17 18 19 19 20 21 22 22 23 23 24 25 25 26 26 27 28 29 29 29 29 30 30 30 30 30 30 30 30 30 30 29 28
10 11 11 11 11 12 14 15 15 15 16 17 18 19 19 20 21 21 22 22 23 24 24 24 25 27 27 28 29 29 29 30 30 30 30 30 31 31 31 31 31 30
8 9 10 10 10 11 12 13 14 14 14 15 16 17 17 18 19 19 20 20 21 22 22 23 24 25 26 26 27 28 29 29 30 30 31 31 31 31 31 31 31 31
7 7 8 9 9 9 9 10 11 13 13 13 14 14 15 15 16 17 18 18 19 19 20 21 21 22 23 25 26 27 28 29 29 30 30 31 31 31 32 32 32 32
5 6 6 7 7 8 8 8 8 10 11 12 12 12 12 12 13 14 15 16 16 17 17 18 19 20 21 22 23 24 25 26 27 28 29 30 30 31 31 32 32 32
2 4 5 5 5 6 6 6 7 7 8 10 10 10 10 9 10 10 11 12 13 14 15 16 16 17 19 20 21 22 23 24 24 25 27 28 28 29 30 30 31 31
3 2 3 5 5 5 5 5 6 7 7 7 8 9 8 7 7 8 8 9 10 11 12 13 14 15 16 17 18 18 20 21 22 23 24 25 26 27 27 28 29 29
6 5 5 5 4 4 5 5 5 7 8 7 7 8 8 7 5 6 6 7 8 9 10 11 12 13 14 14 15 16 17 18 19 20 21 23 23 24 24 25 26 26
10 9 8 8 6 5 5 5 4 5 6 6 6 7 7 7 5 4 4 5 6 7 8 8 9 10 11 11 12 13 14 15 16 17 18 19 20 21 21 21 22 23
15 13 12 11 10 8 8 7 7 7 6 5 5 5 5 6 5 3 2 2 4 5 6 7 7 8 9 9 9 10 11 11 12 14 15 16 17 18 19 19 19 20
19 18 16 15 14 12 11 10 8 7 8 8 6 5 5 5 4 3 2 1 1 2 3 4 5 6 7 8 8 8 8 9 9 10 11 12 13 15 16 17 18 18
23 22 21 19 18 16 15 14 12 10 9 11 10 9 8 7 6 4 3 3 2 2 1 0 1 2 4 5 6 7 7 7 7 8 8 9 10 11 12 13 15 16
26 25 24 24 23 21 19 18 16 15 13 12 12 13 12 11 10 8 6 4 4 4 4 3 2 1 1 2 3 4 4 5 5 6 6 7 7 8 9 9 10 12
28 28 27 27 26 26 24 22 21 19 18 18 16 16 16 15 14 12 10 8 7 6 6 6 5 4 3 2 2 2 2 2 2 2 3 4 6 7 8 8 8 8
31 31 31 30 30 29 28 27 25 22 21 21 21 19 19 19 18 16 14 12 10 9 9 9 9 8 7 5 3 2 1 1 1 1 1 1 2 4 6 7 8 9
35 35 35 35 33 32 32 31 29 27 25 23 22 21 21 22 22 21 19 16 14 13 12 12 12 11 10 9 7 6 5 3 2 2 2 3 4 4 4 5 7 8
39 38 38 38 37 35 35 35 34 32 29 27 25 23 22 23 25 25 24 21 19 18 17 17 17 16 14 12 11 10 9 7 6 5 5 5 6 7 7 6 6 7
41 41 41 42 41 39 39 38 38 36 33 31 29 28 26 25 26 27 28 27 25 23 22 22 22 21 19 17 16 14 13 12 10 10 9 9 8 8 10 10 9 8
41 42 44 45 44 43 42 41 40 40 38 36 34 33 31 29 27 27 28 30 30 29 27 27 27 26 23 23 21 19 18 17 16 15 14 13 12 11 11 12 12 11
41 42 45 46 46 46 44 43 44 44 42 40 38 37 36 34 31 30 29 30 32 33 33 33 33 31 29 27 26 25 23 21 21 20 19 17 16 15 14 14 15 15
43 46 48 48 48 48 46 45 48 48 45 41 40 39 39 38 35 34 32 31 32 33 35 38 39 37 34 33 32 30 28 26 25 24 23 21 20 20 19 18 17 18
47 49 50 49 49 49 48 48 50 50 46 44 43 42 42 41 39 38 36 34 34 34 35 38 40 40 40 40 38 36 34 32 30 28 27 26 25 24 23 22 21 20
55 53 52 52 52 51 51 51 51 50 49 48 47 46 45 43 41 41 40 40 39 39 38 38 39 42 44 44 43 41 38 36 35 33 31 30 28 27 26 25 25 24
63 61 57 55 55 55 54 53 52 52 51 51 50 48 47 45 44 45 46 44 44 44 44 43 43 45 45 45 45 44 42 41 39 37 36 34 32 30 29 28 28 28

ECMWFNIL_250_spd_132.txt.gz
Wind_Speed
17 17 17 18 19 19 20 21 21 23 24 25 26 27 28 28 29 29 30 30 30 31 30 30 29 28 27 25 24 23 23 21 21 21 21 21 19 17 14 12 11 11
16 16 17 17 17 18 19 19 20 20 22 23 24 25 26 27 28 28 28 29 29 29 30 30 30 30 29 28 27 25 24 23 23 21 21 22 21 19 17 15 12 11
14 15 16 16 17 17 17 18 18 19 20 21 22 23 24 25 26 26 27 27 28 28 28 29 29 29 30 29 28 27 25 25 24 23 22 21 20 20 20 19 16 13
12 12 13 14 15 16 16 17 17 18 18 19 19 20 21 22 23 24 24 25 26 26 27 27 28 28 28 29 28 27 27 26 25 24 23 23 23 23 22 21 19 16
9 10 11 12 13 14 15 16 16 16 17 17 18 18 18 19 20 20 21 22 23 23 24 25 26 26 26 27 27 27 27 27 26 25 24 25 25 25 24 23 21 20
6 7 8 9 11 12 13 14 15 15 16 16 17 17 17 17 18 18 19 20 20 21 22 23 24 24 24 24 25 25 25 25 26 26 26 26 26 25 25 25 24 24
4 4 6 7 8 10 11 12 13 14 14 15 16 16 16 16 16 16 17 17 18 18 19 20 21 21 22 22 23 23 24 23 24 24 25 26 26 27 27 26 25 26
1 2 3 4 6 7 8 10 10 11 11 13 14 15 15 15 15 15 15 15 15 16 17 17 17 17 18 19 19 21 22 22 22 22 23 23 25 25 26 26 26 26
2 2 2 2 2 3 5 6 7 8 9 9 10 12 13 13 13 13 13 13 13 13 13 14 15 16 16 16 16 17 18 18 18 19 20 21 22 23 23 24 24 25
5 4 4 3 2 2 3 4 5 6 7 7 7 8 8 10 11 11 11 11 11 11 11 11 12 13 14 15 14 14 14 14 14 15 16 18 19 19 20 21 22 22
9 8 7 6 5 5 4 4 5 5 5 5 5 6 5 6 7 8 9 9 9 9 9 8 9 10 12 13 13 12 12 12 12 12 13 14 15 16 17 19 19 19
12 11 10 9 8 8 8 8 7 7 5 5 5 5 5 5 4 5 6 6 7 7 7 7 6 7 8 10 11 10 10 10 9 9 10 11 12 14 15 16 16 17
15 14 14 13 12 11 11 11 11 10 8 7 7 6 6 6 6 4 3 3 4 4 5 5 5 4 4 5 7 7 7 7 7 6 7 8 10 11 12 13 14 14
19 18 17 16 15 15 14 13 14 14 13 11 10 10 8 8 8 7 5 4 3 2 3 3 2 2 1 1 2 4 6 7 7 7 6 6 7 8 9 11 12 12
23 22 21 20 19 18 17 17 17 17 17 16 15 14 13 12 11 9 9 8 6 5 4 4 4 4 3 3 3 4 6 7 7 8 8 7 7 6 7 8 10 11
26 25 24 23 22 21 21 21 20 21 21 20 19 18 17 17 15 14 12 11 11 10 8 8 8 8 7 6 5 5 6 7 8 9 9 9 9 9 8 8 9 9
29 28 27 26 25 25 26 25 25 25 25 25 24 23 22 21 20 19 16 14 13 13 13 13 13 11 9 8 8 8 8 8 9 10 11 10 11 11 11 11 11 11
29 28 28 27 27 29 30 29 29 29 28 28 28 27 26 25 24 23 20 18 16 14 16 19 18 14 11 10 10 11 11 10 11 12 13 12 12 12 13 13 13 14
30 28 27 27 29 31 32 32 31 31 31 30 30 29 28 27 27 27 25 22 18 16 17 20 20 17 16 14 14 14 14 14 13 12 12 13 12 12 13 14 15 16
35 32 31 30 31 33 35 35 34 33 33 33 32 31 29 29 30 29 28 26 22 20 21 20 18 18 19 18 17 17 17 17 16 15 14 13 13 13 15 16 17 18
38 37 37 37 36 37 38 38 37 36 35 35 35 33 31 31 32 31 30 30 26 24 24 23 20 19 20 20 21 21 20 20 20 19 18 17 16 16 17 17 17 17
43 41 40 40 40 40 40 40 40 39 38 37 37 36 34 34 34 32 32 33 32 30 29 27 25 24 22 21 22 24 24 24 24 24 22 21 21 21 20 19 19 18
51 48 46 44 43 45 46 46 44 43 42 40 38 38 37 38 38 36 33 33 34 35 35 33 31 30 28 25 24 25 26 27 27 27 27 27 26 25 24 24 23 22
56 55 52 50 49 51 53 52 49 45 45 45 43 41 40 41 41 39 37 36 36 38 39 39 37 36 35 32 30 29 29 29 29 29 30 31 31 30 29 29 29 28
59 58 57 57 57 58 58 57 56 51 48 49 49 46 45 45 44 43 42 41 40 41 42 43 43 42 40 38 37 35 34 33 33 33 32 33 34 34 35 35 35 34
61 61 61 61 62 62 61 61 61 57 53 52 52 51 51 50 49 48 47 46 46 45 44 45 47 46 44 42 41 41 39 37 36 37 36 36 36 37 37 38 40 40

ECMWFNIL_250_spd_135.txt.gz
Wind_Speed
18 19 19 20 20 21 22 23 23 24 25 25 26 27 28 28 29 29 29 28 28 27 26 25 23 22 21 19 17 15 14 13 13 12 13 13 13 11 10 11 12 15
17 18 18 19 19 19 20 20 21 22 22 23 23 24 25 26 27 28 28 28 28 28 27 26 25 24 23 22 20 17 16 15 14 14 14 14 14 13 12 11 12 15
14 16 17 18 18 18 19 19 19 19 20 21 21 22 22 24 25 26 27 27 27 27 27 26 26 26 25 24 22 21 19 18 17 17 18 19 21 21 20 18 17 21
12 13 14 16 17 17 17 18 18 18 18 19 19 20 21 21 22 24 25 26 26 27 26 26 25 26 26 25 24 23 22 21 20 19 19 21 23 25 25 24 23 24
9 10 11 13 14 15 16 16 17 17 17 17 17 18 19 20 20 21 22 23 24 24 25 25 25 25 25 25 25 24 23 23 22 21 21 21 21 23 24 25 24 24
6 7 8 9 11 12 13 14 15 15 16 16 16 16 17 17 18 19 19 20 20 21 22 23 24 24 24 25 24 24 23 23 22 22 22 23 23 24 25 26 26 25
2 4 5 6 8 9 10 11 12 13 13 14 15 15 15 15 16 16 17 17 18 18 19 20 21 22 23 23 23 23 23 23 23 23 23 23 23 25 26 27 27 26
1 0 2 3 4 6 8 8 9 10 10 11 12 13 13 14 14 14 14 14 15 16 17 17 17 18 19 20 20 20 21 21 22 22 22 22 22 23 24 24 25 24
5 4 2 1 1 3 4 5 6 7 8 9 9 10 11 12 12 13 13 12 13 14 14 14 14 14 15 16 17 17 18 19 20 20 20 20 20 20 20 20 21 21
7 6 6 5 4 3 3 3 4 4 5 5 6 7 8 9 11 11 11 11 11 11 11 11 11 11 11 13 14 15 15 16 16 16 17 18 18 18 18 18 18 18
10 9 8 8 7 6 6 5 4 4 4 4 3 4 4 5 8 9 10 10 9 9 9 8 8 8 9 10 11 12 12 13 13 13 13 14 15 15 16 16 16 16
13 12 11 11 10 9 9 8 7 6 5 4 3 3 2 2 3 5 6 7 7 7 7 6 6 6 6 7 8 8 8 9 9 10 10 11 12 12 13 13 13 13
15 15 14 14 13 12 12 11 10 9 7 6 5 4 3 2 1 1 2 3 3 3 4 4 4 3 3 3 4 4 4 4 5 5 6 7 8 8 9 10 11 11
19 19 18 17 17 16 15 14 13 13 12 10 9 8 6 4 4 4 3 3 3 1 0 1 2 2 2 2 2 1 1 1 1 2 2 3 3 3 5 6 7 8
23 23 22 21 21 20 20 19 17 17 16 15 14 13 11 8 7 7 6 6 6 5 4 3 1 2 3 3 3 3 2 2 3 3 3 2 2 2 2 3 4 5
26 26 26 26 26 25 24 23 22 21 20 19 17 16 15 14 12 11 11 11 10 9 8 7 4 3 4 4 5 5 4 5 5 6 6 6 6 6 6 7 7 6
28 28 29 31 31 29 27 26 26 25 24 23 21 19 18 18 18 16 15 15 15 15 13 10 9 8 7 6 6 7 7 7 7 7 8 9 10 10 11 11 10 9
30 30 31 32 31 29 29 29 28 28 26 26 25 23 22 21 22 21 20 19 19 19 17 14 13 13 12 10 9 8 9 10 10 10 10 11 12 14 15 14 13 12
33 33 34 33 32 30 30 30 30 29 28 26 25 25 24 24 24 24 23 22 22 23 22 19 16 16 16 15 13 12 11 11 12 12 12 13 14 16 16 15 15 15
39 40 38 36 35 33 30 30 29 29 28 27 26 26 27 27 27 26 25 24 25 25 25 23 20 19 19 18 17 16 14 13 13 14 13 14 17 18 17 16 16 17
44 45 42 39 37 35 33 32 31 30 29 28 28 28 29 30 31 29 28 27 27 28 29 28 26 23 22 21 20 18 17 16 16 16 16 17 19 19 19 19 18 18
46 47 45 42 40 39 39 37 35 34 34 33 33 32 32 33 34 33 32 30 30 31 32 31 30 27 25 24 23 22 21 20 20 19 19 21 22 21 21 21 22 21
47 47 47 47 46 45 44 43 41 40 39 39 40 39 37 36 36 36 34 33 33 34 35 35 34 32 30 28 28 27 26 25 25 24 23 23 24 24 24 25 25 25
50 49 49 50 52 52 50 49 49 49 47 46 46 46 43 40 40 39 37 36 37 37 37 38 37 35 34 33 32 32 31 29 28 29 28 27 27 27 28 28 28 28
49 51 52 51 53 55 55 54 54 54 54 51 51 52 51 47 45 43 43 42 41 41 41 41 40 39 38 37 36 36 36 35 33 32 32 32 31 32 32 33 32 32
47 52 55 54 52 52 54 55 56 56 57 56 55 55 56 54 50 48 49 48 45 44 44 44 44 43 41 41 40 40 40 39 37 36 36 36 37 37 37 39 39 38